<?xml version='1.0' encoding='UTF-8'?><gpx version="1.1" creator="JPX - https://github.com/jenetics/jpx" xmlns="http://www.topografix.com/GPX/1/1"><trk><trkseg><trkpt lat="48.17899551936259" lon="11.564239355183764"><ele>511.99999999999994</ele><time>2026-04-27T15:43:28.636Z</time></trkpt><trkpt lat="48.17889799377247" lon="11.564257616516006"><ele>512.0</ele><time>2026-04-27T15:44:15.007Z</time></trkpt><trkpt lat="48.1789731444308" lon="11.564229377355568"><ele>512.0</ele><time>2026-04-27T15:45:25.007Z</time></trkpt><trkpt lat="48.178992232396546" lon="11.564135195742693"><ele>512.0</ele><time>2026-04-27T15:45:51.001Z</time></trkpt><trkpt lat="48.17909077839625" lon="11.564041643062852"><ele>511.99999999999994</ele><time>2026-04-27T15:47:38Z</time></trkpt><trkpt lat="48.179163946118855" lon="11.564008756073179"><ele>512.0</ele><time>2026-04-27T15:47:39Z</time></trkpt><trkpt lat="48.17924104348181" lon="11.563975821651129"><ele>511.8333333333333</ele><time>2026-04-27T15:47:40Z</time></trkpt><trkpt lat="48.17931031775421" lon="11.563947731489392"><ele>511.66666666666663</ele><time>2026-04-27T15:47:41Z</time></trkpt><trkpt lat="48.17938922335638" lon="11.563914006558324"><ele>511.5</ele><time>2026-04-27T15:47:42Z</time></trkpt><trkpt lat="48.17947474677075" lon="11.56387648902375"><ele>511.33333333333337</ele><time>2026-04-27T15:47:43Z</time></trkpt><trkpt lat="48.17957146513733" lon="11.563875851165253"><ele>511.1666666666667</ele><time>2026-04-27T15:47:44Z</time></trkpt><trkpt lat="48.179670645221535" lon="11.563836577974213"><ele>511.0</ele><time>2026-04-27T15:47:45Z</time></trkpt><trkpt lat="48.17976846862528" lon="11.563797341143133"><ele>511.20000000000005</ele><time>2026-04-27T15:47:46Z</time></trkpt><trkpt lat="48.17985228621922" lon="11.563763539241789"><ele>511.40000000000003</ele><time>2026-04-27T15:47:47Z</time></trkpt><trkpt lat="48.17994350014548" lon="11.563726738330836"><ele>511.6</ele><time>2026-04-27T15:47:48Z</time></trkpt><trkpt lat="48.18003802466583" lon="11.563688601675056"><ele>511.8</ele><time>2026-04-27T15:47:49Z</time></trkpt><trkpt lat="48.18013206611793" lon="11.563650659973295"><ele>512.0</ele><time>2026-04-27T15:47:50Z</time></trkpt><trkpt lat="48.18023259202136" lon="11.563610102029802"><ele>512.2</ele><time>2026-04-27T15:47:51Z</time></trkpt><trkpt lat="48.180330679805685" lon="11.563570548765728"><ele>512.4000000000001</ele><time>2026-04-27T15:47:52Z</time></trkpt><trkpt lat="48.180423916030335" lon="11.563532983904533"><ele>512.5999999999999</ele><time>2026-04-27T15:47:53Z</time></trkpt><trkpt lat="48.180518258127286" lon="11.563495389877898"><ele>512.8</ele><time>2026-04-27T15:47:54Z</time></trkpt><trkpt lat="48.18061429988436" lon="11.563437393362252"><ele>513.0</ele><time>2026-04-27T15:47:55Z</time></trkpt><trkpt lat="48.18071851542653" lon="11.563417964869814"><ele>513.0</ele><time>2026-04-27T15:47:56Z</time></trkpt><trkpt lat="48.18080905862794" lon="11.563382703052092"><ele>513.0</ele><time>2026-04-27T15:47:57Z</time></trkpt><trkpt lat="48.18090801247024" lon="11.56333386529602"><ele>513.0</ele><time>2026-04-27T15:47:58Z</time></trkpt><trkpt lat="48.18100590364117" lon="11.56330602071028"><ele>513.0</ele><time>2026-04-27T15:47:59Z</time></trkpt><trkpt lat="48.18111099020027" lon="11.563278923710756"><ele>513.0</ele><time>2026-04-27T15:48:00Z</time></trkpt><trkpt lat="48.18121236915007" lon="11.563253973228035"><ele>513.0</ele><time>2026-04-27T15:48:01Z</time></trkpt><trkpt lat="48.181319798042665" lon="11.56323519807534"><ele>513.0</ele><time>2026-04-27T15:48:02Z</time></trkpt><trkpt lat="48.1814459074565" lon="11.563210846726811"><ele>513.0</ele><time>2026-04-27T15:48:03Z</time></trkpt><trkpt lat="48.18157518291887" lon="11.563220255119301"><ele>513.0</ele><time>2026-04-27T15:48:04Z</time></trkpt><trkpt lat="48.181706390429426" lon="11.563211827165427"><ele>512.75</ele><time>2026-04-27T15:48:05Z</time></trkpt><trkpt lat="48.18182245440542" lon="11.563215681117681"><ele>512.5</ele><time>2026-04-27T15:48:06Z</time></trkpt><trkpt lat="48.181951879397865" lon="11.563209962354124"><ele>512.25</ele><time>2026-04-27T15:48:07Z</time></trkpt><trkpt lat="48.182068037228966" lon="11.563205891251346"><ele>512.0</ele><time>2026-04-27T15:48:08Z</time></trkpt><trkpt lat="48.18217803275399" lon="11.56319552768024"><ele>512.0</ele><time>2026-04-27T15:48:09Z</time></trkpt><trkpt lat="48.182297553280236" lon="11.563187827976888"><ele>512.0</ele><time>2026-04-27T15:48:10Z</time></trkpt><trkpt lat="48.1824182204865" lon="11.563197992061383"><ele>512.0</ele><time>2026-04-27T15:48:11Z</time></trkpt><trkpt lat="48.18252267896787" lon="11.56318004442855"><ele>512.0</ele><time>2026-04-27T15:48:12Z</time></trkpt><trkpt lat="48.1826205469872" lon="11.563180825369994"><ele>512.0</ele><time>2026-04-27T15:48:13Z</time></trkpt><trkpt lat="48.18272848106632" lon="11.56318133403711"><ele>511.99999999999994</ele><time>2026-04-27T15:48:14Z</time></trkpt><trkpt lat="48.182797452068314" lon="11.563164700333303"><ele>512.0</ele><time>2026-04-27T15:48:15Z</time></trkpt><trkpt lat="48.18288210092728" lon="11.56316029602411"><ele>512.0</ele><time>2026-04-27T15:48:16Z</time></trkpt><trkpt lat="48.18295905484207" lon="11.56314525655878"><ele>512.0</ele><time>2026-04-27T15:48:17Z</time></trkpt><trkpt lat="48.183035500582015" lon="11.563136823326811"><ele>511.99999999999994</ele><time>2026-04-27T15:48:18Z</time></trkpt><trkpt lat="48.18310420831098" lon="11.563103951974039"><ele>512.0</ele><time>2026-04-27T15:48:19Z</time></trkpt><trkpt lat="48.18318590713172" lon="11.563068706430732"><ele>511.3333333333333</ele><time>2026-04-27T15:48:20Z</time></trkpt><trkpt lat="48.183266307358885" lon="11.563074655678399"><ele>510.66666666666663</ele><time>2026-04-27T15:48:21Z</time></trkpt><trkpt lat="48.18334973897791" lon="11.563052347001676"><ele>510.0</ele><time>2026-04-27T15:48:22Z</time></trkpt><trkpt lat="48.18344109773033" lon="11.56305173482906"><ele>509.33333333333337</ele><time>2026-04-27T15:48:23Z</time></trkpt><trkpt lat="48.18353038287033" lon="11.563047031936465"><ele>508.6666666666667</ele><time>2026-04-27T15:48:24Z</time></trkpt><trkpt lat="48.183616868002964" lon="11.5630223967877"><ele>508.0</ele><time>2026-04-27T15:48:25Z</time></trkpt><trkpt lat="48.18368198097088" lon="11.563005417004936"><ele>508.0</ele><time>2026-04-27T15:48:26Z</time></trkpt><trkpt lat="48.18379863488694" lon="11.562944117323115"><ele>507.99999999999994</ele><time>2026-04-27T15:48:28Z</time></trkpt><trkpt lat="48.18386363065384" lon="11.56292604480362"><ele>507.99999999999994</ele><time>2026-04-27T15:48:29Z</time></trkpt><trkpt lat="48.183967028859286" lon="11.562889670070987"><ele>508.0</ele><time>2026-04-27T15:48:31Z</time></trkpt><trkpt lat="48.18406678075901" lon="11.56285547072519"><ele>508.0</ele><time>2026-04-27T15:48:33Z</time></trkpt><trkpt lat="48.1841845755652" lon="11.562824040174084"><ele>508.33333333333337</ele><time>2026-04-27T15:48:35Z</time></trkpt><trkpt lat="48.18425917557427" lon="11.562808990161026"><ele>508.6666666666667</ele><time>2026-04-27T15:48:36Z</time></trkpt><trkpt lat="48.18434348989559" lon="11.562793088649808"><ele>509.0</ele><time>2026-04-27T15:48:37Z</time></trkpt><trkpt lat="48.18441117252505" lon="11.562778767351672"><ele>509.33333333333337</ele><time>2026-04-27T15:48:38Z</time></trkpt><trkpt lat="48.1845180019768" lon="11.562757390387223"><ele>509.6666666666667</ele><time>2026-04-27T15:48:40Z</time></trkpt><trkpt lat="48.18460131572899" lon="11.562738768489199"><ele>510.0</ele><time>2026-04-27T15:48:42Z</time></trkpt><trkpt lat="48.18469484243381" lon="11.562714698352053"><ele>510.0</ele><time>2026-04-27T15:48:44Z</time></trkpt><trkpt lat="48.18479301419136" lon="11.562696737126545"><ele>510.0</ele><time>2026-04-27T15:48:46Z</time></trkpt><trkpt lat="48.18489920824968" lon="11.56267980216181"><ele>510.0</ele><time>2026-04-27T15:48:48Z</time></trkpt><trkpt lat="48.18498855793315" lon="11.562674197690786"><ele>510.0</ele><time>2026-04-27T15:48:50Z</time></trkpt><trkpt lat="48.18508516418474" lon="11.56266317308289"><ele>510.0</ele><time>2026-04-27T15:48:52Z</time></trkpt><trkpt lat="48.185170503459354" lon="11.562640515802853"><ele>510.25</ele><time>2026-04-27T15:48:53Z</time></trkpt><trkpt lat="48.185292080199886" lon="11.562596094838824"><ele>510.5</ele><time>2026-04-27T15:48:54Z</time></trkpt><trkpt lat="48.185419941325144" lon="11.562575306007531"><ele>510.75</ele><time>2026-04-27T15:48:55Z</time></trkpt><trkpt lat="48.185542183324195" lon="11.562558289894486"><ele>511.0</ele><time>2026-04-27T15:48:56Z</time></trkpt><trkpt lat="48.18564681090797" lon="11.562548130906446"><ele>510.8</ele><time>2026-04-27T15:48:57Z</time></trkpt><trkpt lat="48.1857331123243" lon="11.562530400882123"><ele>510.6</ele><time>2026-04-27T15:48:58Z</time></trkpt><trkpt lat="48.185821134186206" lon="11.56252223141362"><ele>510.4</ele><time>2026-04-27T15:48:59Z</time></trkpt><trkpt lat="48.185917328790126" lon="11.562498914264646"><ele>510.2</ele><time>2026-04-27T15:49:00Z</time></trkpt><trkpt lat="48.18600878467408" lon="11.562465758816941"><ele>510.0</ele><time>2026-04-27T15:49:01Z</time></trkpt><trkpt lat="48.18609264489077" lon="11.562475534905765"><ele>510.0</ele><time>2026-04-27T15:49:02Z</time></trkpt><trkpt lat="48.18616479511948" lon="11.562441044984924"><ele>510.00000000000006</ele><time>2026-04-27T15:49:03Z</time></trkpt><trkpt lat="48.186245384806874" lon="11.562447671047869"><ele>510.0</ele><time>2026-04-27T15:49:04Z</time></trkpt><trkpt lat="48.18630963262096" lon="11.562455511696655"><ele>510.0</ele><time>2026-04-27T15:49:05Z</time></trkpt><trkpt lat="48.18638894512597" lon="11.56244396343497"><ele>510.00000000000006</ele><time>2026-04-27T15:49:07Z</time></trkpt><trkpt lat="48.18645461428596" lon="11.562432102489732"><ele>510.0</ele><time>2026-04-27T15:49:54.999Z</time></trkpt><trkpt lat="48.18652767969684" lon="11.562415647307791"><ele>510.0</ele><time>2026-04-27T15:49:56.999Z</time></trkpt><trkpt lat="48.18662957306823" lon="11.562403801720542"><ele>509.8</ele><time>2026-04-27T15:49:58.999Z</time></trkpt><trkpt lat="48.18670165488785" lon="11.562401244020583"><ele>509.6</ele><time>2026-04-27T15:50:00.999Z</time></trkpt><trkpt lat="48.186777110115344" lon="11.562385482459145"><ele>509.4</ele><time>2026-04-27T15:50:03.999Z</time></trkpt><trkpt lat="48.186823103870424" lon="11.562522473141945"><ele>509.2</ele><time>2026-04-27T15:50:05.999Z</time></trkpt><trkpt lat="48.18684795444469" lon="11.562730413223397"><ele>509.0</ele><time>2026-04-27T15:50:07.999Z</time></trkpt><trkpt lat="48.18686679118272" lon="11.562863797494545"><ele>509.2</ele><time>2026-04-27T15:50:08.999Z</time></trkpt><trkpt lat="48.18687667220929" lon="11.56300050134086"><ele>509.4</ele><time>2026-04-27T15:50:09.999Z</time></trkpt><trkpt lat="48.18688760154765" lon="11.56313943665197"><ele>509.6</ele><time>2026-04-27T15:50:10.999Z</time></trkpt><trkpt lat="48.186899754819095" lon="11.563284072768498"><ele>509.8</ele><time>2026-04-27T15:50:11.999Z</time></trkpt><trkpt lat="48.186911563346655" lon="11.563433901557252"><ele>510.0</ele><time>2026-04-27T15:50:12.999Z</time></trkpt><trkpt lat="48.186920151152236" lon="11.563586458786823"><ele>509.25</ele><time>2026-04-27T15:50:13.999Z</time></trkpt><trkpt lat="48.186929784128765" lon="11.563744766251064"><ele>508.5</ele><time>2026-04-27T15:50:14.999Z</time></trkpt><trkpt lat="48.18694529842345" lon="11.563910051224104"><ele>507.75</ele><time>2026-04-27T15:50:15.999Z</time></trkpt><trkpt lat="48.186956246661026" lon="11.564083654553237"><ele>507.0</ele><time>2026-04-27T15:50:16.999Z</time></trkpt><trkpt lat="48.18697176775616" lon="11.564266024696563"><ele>507.0</ele><time>2026-04-27T15:50:17.999Z</time></trkpt><trkpt lat="48.186992361504736" lon="11.564454759489767"><ele>507.0</ele><time>2026-04-27T15:50:18.999Z</time></trkpt><trkpt lat="48.18700956170036" lon="11.564639748971464"><ele>507.0</ele><time>2026-04-27T15:50:19.999Z</time></trkpt><trkpt lat="48.18702568747081" lon="11.564837069170432"><ele>507.0</ele><time>2026-04-27T15:50:20.999Z</time></trkpt><trkpt lat="48.1870425592999" lon="11.565057861078273"><ele>506.75</ele><time>2026-04-27T15:50:21.999Z</time></trkpt><trkpt lat="48.18706640530782" lon="11.565302180510814"><ele>506.5</ele><time>2026-04-27T15:50:22.999Z</time></trkpt><trkpt lat="48.18708507023039" lon="11.56551601467247"><ele>506.25</ele><time>2026-04-27T15:50:23.999Z</time></trkpt><trkpt lat="48.18710188297109" lon="11.565699192695106"><ele>506.0</ele><time>2026-04-27T15:50:24.999Z</time></trkpt><trkpt lat="48.187120605371035" lon="11.565891437152418"><ele>506.0</ele><time>2026-04-27T15:50:25.999Z</time></trkpt><trkpt lat="48.18713778050086" lon="11.566102876652938"><ele>506.0</ele><time>2026-04-27T15:50:26.999Z</time></trkpt><trkpt lat="48.18715455699278" lon="11.566321197878674"><ele>506.0</ele><time>2026-04-27T15:50:27.999Z</time></trkpt><trkpt lat="48.18717127428565" lon="11.566540047367395"><ele>506.0</ele><time>2026-04-27T15:50:28.999Z</time></trkpt><trkpt lat="48.1871899085315" lon="11.566750534062063"><ele>507.0</ele><time>2026-04-27T15:50:29.999Z</time></trkpt><trkpt lat="48.18720702069712" lon="11.566957395923477"><ele>508.0</ele><time>2026-04-27T15:50:30.999Z</time></trkpt><trkpt lat="48.18722371962861" lon="11.567160933961558"><ele>509.0</ele><time>2026-04-27T15:50:31.999Z</time></trkpt><trkpt lat="48.18724064974201" lon="11.567363456905651"><ele>510.0</ele><time>2026-04-27T15:50:32.999Z</time></trkpt><trkpt lat="48.187257506898064" lon="11.567562191499073"><ele>510.0</ele><time>2026-04-27T15:50:33.999Z</time></trkpt><trkpt lat="48.18727252601125" lon="11.567762106248821"><ele>510.0</ele><time>2026-04-27T15:50:34.999Z</time></trkpt><trkpt lat="48.1872880241005" lon="11.567980088414647"><ele>510.0</ele><time>2026-04-27T15:50:35.999Z</time></trkpt><trkpt lat="48.18729867341096" lon="11.568178531320251"><ele>510.0</ele><time>2026-04-27T15:50:37Z</time></trkpt><trkpt lat="48.18730771471103" lon="11.568360193959045"><ele>509.8</ele><time>2026-04-27T15:50:38Z</time></trkpt><trkpt lat="48.18731116540849" lon="11.568527944721547"><ele>509.6</ele><time>2026-04-27T15:50:39Z</time></trkpt><trkpt lat="48.18730708893217" lon="11.568679597287705"><ele>509.4</ele><time>2026-04-27T15:50:40Z</time></trkpt><trkpt lat="48.187304479771775" lon="11.56883565820495"><ele>509.2</ele><time>2026-04-27T15:50:41Z</time></trkpt><trkpt lat="48.187315221276336" lon="11.56901187296446"><ele>509.0</ele><time>2026-04-27T15:50:42Z</time></trkpt><trkpt lat="48.187336822810195" lon="11.569204697763032"><ele>508.25</ele><time>2026-04-27T15:50:43Z</time></trkpt><trkpt lat="48.18735550125319" lon="11.569424285281794"><ele>507.5</ele><time>2026-04-27T15:50:44Z</time></trkpt><trkpt lat="48.18736424982027" lon="11.5696558668327"><ele>506.75</ele><time>2026-04-27T15:50:45Z</time></trkpt><trkpt lat="48.18737311724542" lon="11.569874773497014"><ele>506.0</ele><time>2026-04-27T15:50:46Z</time></trkpt><trkpt lat="48.18738186449734" lon="11.570068825677229"><ele>505.75</ele><time>2026-04-27T15:50:47Z</time></trkpt><trkpt lat="48.187390045045" lon="11.570257076962488"><ele>505.5</ele><time>2026-04-27T15:50:48Z</time></trkpt><trkpt lat="48.18739740154541" lon="11.570443238037523"><ele>505.25</ele><time>2026-04-27T15:50:49Z</time></trkpt><trkpt lat="48.18740207224348" lon="11.570616996533081"><ele>505.0</ele><time>2026-04-27T15:50:50Z</time></trkpt><trkpt lat="48.18740447886153" lon="11.570769995961674"><ele>505.00000000000006</ele><time>2026-04-27T15:50:51Z</time></trkpt><trkpt lat="48.187403569898855" lon="11.570906659841176"><ele>505.0</ele><time>2026-04-27T15:50:52Z</time></trkpt><trkpt lat="48.187404956327484" lon="11.571037150463091"><ele>505.0</ele><time>2026-04-27T15:50:53Z</time></trkpt><trkpt lat="48.187410925796506" lon="11.571159887183772"><ele>505.0</ele><time>2026-04-27T15:50:54Z</time></trkpt><trkpt lat="48.187412641561686" lon="11.571257662927925"><ele>505.00000000000006</ele><time>2026-04-27T15:50:55Z</time></trkpt><trkpt lat="48.187414427425935" lon="11.571404836034493"><ele>505.0</ele><time>2026-04-27T15:50:57Z</time></trkpt><trkpt lat="48.187419220363545" lon="11.571539779405581"><ele>504.8</ele><time>2026-04-27T15:51:32Z</time></trkpt><trkpt lat="48.18742217902949" lon="11.571684385540191"><ele>504.6</ele><time>2026-04-27T15:51:34Z</time></trkpt><trkpt lat="48.18742783852401" lon="11.571836828206143"><ele>504.4</ele><time>2026-04-27T15:51:36Z</time></trkpt><trkpt lat="48.18743492435521" lon="11.572037566209984"><ele>504.2</ele><time>2026-04-27T15:51:38Z</time></trkpt><trkpt lat="48.18743895337687" lon="11.57215563310685"><ele>504.0</ele><time>2026-04-27T15:51:39Z</time></trkpt><trkpt lat="48.18744159852075" lon="11.57227124391989"><ele>504.0</ele><time>2026-04-27T15:51:40Z</time></trkpt><trkpt lat="48.18744683462129" lon="11.572398816068237"><ele>504.0</ele><time>2026-04-27T15:51:41Z</time></trkpt><trkpt lat="48.187455959290986" lon="11.572549862937347"><ele>504.0</ele><time>2026-04-27T15:51:42Z</time></trkpt><trkpt lat="48.18746410776149" lon="11.572713236064235"><ele>504.0</ele><time>2026-04-27T15:51:43Z</time></trkpt><trkpt lat="48.18747220470942" lon="11.572876109914981"><ele>504.0</ele><time>2026-04-27T15:51:44Z</time></trkpt><trkpt lat="48.187479829954135" lon="11.573039431475072"><ele>504.0</ele><time>2026-04-27T15:51:44.999Z</time></trkpt><trkpt lat="48.187485893142515" lon="11.573208144903786"><ele>504.0</ele><time>2026-04-27T15:51:45.999Z</time></trkpt><trkpt lat="48.18748989147712" lon="11.573382759860348"><ele>504.0</ele><time>2026-04-27T15:51:46.999Z</time></trkpt><trkpt lat="48.18749940984783" lon="11.573559306209667"><ele>504.0</ele><time>2026-04-27T15:51:47.999Z</time></trkpt><trkpt lat="48.187503655480725" lon="11.573746875514011"><ele>504.5</ele><time>2026-04-27T15:51:48.999Z</time></trkpt><trkpt lat="48.18750979668176" lon="11.573933562404305"><ele>505.0</ele><time>2026-04-27T15:51:49.999Z</time></trkpt><trkpt lat="48.187514063464114" lon="11.574118925032566"><ele>505.5</ele><time>2026-04-27T15:51:50.999Z</time></trkpt><trkpt lat="48.18751464146077" lon="11.574293785956941"><ele>506.0</ele><time>2026-04-27T15:51:51.999Z</time></trkpt><trkpt lat="48.18751459764504" lon="11.574470506503722"><ele>506.0</ele><time>2026-04-27T15:51:52.999Z</time></trkpt><trkpt lat="48.18751851253832" lon="11.574665858476711"><ele>506.0</ele><time>2026-04-27T15:51:53.999Z</time></trkpt><trkpt lat="48.18752928330031" lon="11.574885015367416"><ele>506.0</ele><time>2026-04-27T15:51:54.999Z</time></trkpt><trkpt lat="48.187537528920295" lon="11.575110532022887"><ele>506.0</ele><time>2026-04-27T15:51:55.999Z</time></trkpt><trkpt lat="48.1875428992888" lon="11.575355503042033"><ele>505.66666666666663</ele><time>2026-04-27T15:51:56.999Z</time></trkpt><trkpt lat="48.18755044118658" lon="11.575585982667096"><ele>505.33333333333337</ele><time>2026-04-27T15:51:57.999Z</time></trkpt><trkpt lat="48.18755559215188" lon="11.575799574427421"><ele>505.0</ele><time>2026-04-27T15:51:58.999Z</time></trkpt><trkpt lat="48.18756377331178" lon="11.576046288818327"><ele>505.25</ele><time>2026-04-27T15:51:59.999Z</time></trkpt><trkpt lat="48.18757686765452" lon="11.576256388607879"><ele>505.5</ele><time>2026-04-27T15:52:00.999Z</time></trkpt><trkpt lat="48.187587524507315" lon="11.576435515330099"><ele>505.75</ele><time>2026-04-27T15:52:01.999Z</time></trkpt><trkpt lat="48.18759607953317" lon="11.576603022489696"><ele>506.0</ele><time>2026-04-27T15:52:02.999Z</time></trkpt><trkpt lat="48.187603401080985" lon="11.576765681117047"><ele>506.0</ele><time>2026-04-27T15:52:03.999Z</time></trkpt><trkpt lat="48.187607952224994" lon="11.576929020077252"><ele>506.0</ele><time>2026-04-27T15:52:04.999Z</time></trkpt><trkpt lat="48.18761025061624" lon="11.577083205171121"><ele>506.0</ele><time>2026-04-27T15:52:05.999Z</time></trkpt><trkpt lat="48.187616129538995" lon="11.577247749506713"><ele>506.0</ele><time>2026-04-27T15:52:06.999Z</time></trkpt><trkpt lat="48.18762262232311" lon="11.57743186841081"><ele>506.0</ele><time>2026-04-27T15:52:07.999Z</time></trkpt><trkpt lat="48.18762705555484" lon="11.577608518512138"><ele>506.0</ele><time>2026-04-27T15:52:08.999Z</time></trkpt><trkpt lat="48.18763178420492" lon="11.577801046690388"><ele>506.0</ele><time>2026-04-27T15:52:09.999Z</time></trkpt><trkpt lat="48.18764135774992" lon="11.578020087257224"><ele>506.0</ele><time>2026-04-27T15:52:10.999Z</time></trkpt><trkpt lat="48.18764971238354" lon="11.578261634238133"><ele>506.0</ele><time>2026-04-27T15:52:11.999Z</time></trkpt><trkpt lat="48.18765932869541" lon="11.578508475647102"><ele>506.3333333333333</ele><time>2026-04-27T15:52:12.999Z</time></trkpt><trkpt lat="48.187667737421705" lon="11.578743793733125"><ele>506.66666666666663</ele><time>2026-04-27T15:52:13.999Z</time></trkpt><trkpt lat="48.187676039442" lon="11.578982193873042"><ele>507.0</ele><time>2026-04-27T15:52:14.999Z</time></trkpt><trkpt lat="48.18768345049555" lon="11.57922196849451"><ele>507.0</ele><time>2026-04-27T15:52:15.999Z</time></trkpt><trkpt lat="48.18769136787183" lon="11.579448959461415"><ele>507.0</ele><time>2026-04-27T15:52:16.999Z</time></trkpt><trkpt lat="48.18769797558795" lon="11.579667989605172"><ele>507.0</ele><time>2026-04-27T15:52:17.999Z</time></trkpt><trkpt lat="48.18770291536758" lon="11.579876815535064"><ele>507.0</ele><time>2026-04-27T15:52:18.999Z</time></trkpt><trkpt lat="48.187708488422714" lon="11.580084193296111"><ele>506.5</ele><time>2026-04-27T15:52:19.999Z</time></trkpt><trkpt lat="48.18771712874496" lon="11.580294392929371"><ele>506.0</ele><time>2026-04-27T15:52:20.999Z</time></trkpt><trkpt lat="48.187725738197436" lon="11.580515592520644"><ele>505.5</ele><time>2026-04-27T15:52:21.999Z</time></trkpt><trkpt lat="48.187732831438744" lon="11.580742988146495"><ele>505.0</ele><time>2026-04-27T15:52:22.999Z</time></trkpt><trkpt lat="48.18773961847501" lon="11.580980951301415"><ele>505.5</ele><time>2026-04-27T15:52:23.999Z</time></trkpt><trkpt lat="48.18774872626623" lon="11.581200595677808"><ele>506.0</ele><time>2026-04-27T15:52:24.999Z</time></trkpt><trkpt lat="48.18775806687056" lon="11.5814049130408"><ele>506.5</ele><time>2026-04-27T15:52:25.999Z</time></trkpt><trkpt lat="48.18776554690084" lon="11.581599716002938"><ele>507.0</ele><time>2026-04-27T15:52:26.999Z</time></trkpt><trkpt lat="48.18777434747689" lon="11.581794449054875"><ele>507.0</ele><time>2026-04-27T15:52:27.999Z</time></trkpt><trkpt lat="48.18778764143032" lon="11.581992589396659"><ele>507.0</ele><time>2026-04-27T15:52:28.999Z</time></trkpt><trkpt lat="48.18779998021076" lon="11.582194272863475"><ele>507.0</ele><time>2026-04-27T15:52:30Z</time></trkpt><trkpt lat="48.18780453314043" lon="11.582395181654745"><ele>507.0</ele><time>2026-04-27T15:52:31Z</time></trkpt><trkpt lat="48.1878096989778" lon="11.582583044234529"><ele>507.0</ele><time>2026-04-27T15:52:32Z</time></trkpt><trkpt lat="48.187817771307444" lon="11.582764185097309"><ele>507.0</ele><time>2026-04-27T15:52:33Z</time></trkpt><trkpt lat="48.18782487324393" lon="11.582930599343877"><ele>507.0</ele><time>2026-04-27T15:52:34Z</time></trkpt><trkpt lat="48.18783011590053" lon="11.583099320074258"><ele>507.0</ele><time>2026-04-27T15:52:35Z</time></trkpt><trkpt lat="48.18783863644262" lon="11.583272221798856"><ele>506.75</ele><time>2026-04-27T15:52:36Z</time></trkpt><trkpt lat="48.1878473649438" lon="11.583443736336305"><ele>506.5</ele><time>2026-04-27T15:52:37Z</time></trkpt><trkpt lat="48.187853718269025" lon="11.5836190282886"><ele>506.25</ele><time>2026-04-27T15:52:38Z</time></trkpt><trkpt lat="48.18786037636535" lon="11.583790887162738"><ele>506.0</ele><time>2026-04-27T15:52:39Z</time></trkpt><trkpt lat="48.187865126489925" lon="11.583966598245365"><ele>506.0</ele><time>2026-04-27T15:52:40Z</time></trkpt><trkpt lat="48.187871084659065" lon="11.584145989747734"><ele>506.0</ele><time>2026-04-27T15:52:41Z</time></trkpt><trkpt lat="48.18787680213867" lon="11.584327992190028"><ele>506.0</ele><time>2026-04-27T15:52:42Z</time></trkpt><trkpt lat="48.187881610181456" lon="11.584513579833146"><ele>506.0</ele><time>2026-04-27T15:52:43Z</time></trkpt><trkpt lat="48.18788781660077" lon="11.58470376143209"><ele>506.5</ele><time>2026-04-27T15:52:44Z</time></trkpt><trkpt lat="48.187893802054006" lon="11.584898822324018"><ele>507.0</ele><time>2026-04-27T15:52:45Z</time></trkpt><trkpt lat="48.18789916480994" lon="11.585086495955604"><ele>507.5</ele><time>2026-04-27T15:52:46Z</time></trkpt><trkpt lat="48.18790587548024" lon="11.585280310352601"><ele>508.0</ele><time>2026-04-27T15:52:47Z</time></trkpt><trkpt lat="48.18791278309067" lon="11.58547909226231"><ele>508.0</ele><time>2026-04-27T15:52:48Z</time></trkpt><trkpt lat="48.187918632675945" lon="11.585679401798846"><ele>508.0</ele><time>2026-04-27T15:52:49Z</time></trkpt><trkpt lat="48.187923259373086" lon="11.585881165928363"><ele>508.0</ele><time>2026-04-27T15:52:50Z</time></trkpt><trkpt lat="48.18792297127958" lon="11.586087680820556"><ele>508.0</ele><time>2026-04-27T15:52:51Z</time></trkpt><trkpt lat="48.187920965308564" lon="11.586302773697842"><ele>508.0</ele><time>2026-04-27T15:52:52Z</time></trkpt><trkpt lat="48.18791705044663" lon="11.58651942780897"><ele>508.0</ele><time>2026-04-27T15:52:53Z</time></trkpt><trkpt lat="48.1879139656392" lon="11.586746932161091"><ele>508.0</ele><time>2026-04-27T15:52:54Z</time></trkpt><trkpt lat="48.18791072948599" lon="11.586978163406531"><ele>508.0</ele><time>2026-04-27T15:52:55Z</time></trkpt><trkpt lat="48.18790876660371" lon="11.587192206637392"><ele>508.0</ele><time>2026-04-27T15:52:56Z</time></trkpt><trkpt lat="48.18791067297644" lon="11.587396983000103"><ele>508.0</ele><time>2026-04-27T15:52:57Z</time></trkpt><trkpt lat="48.187911395681134" lon="11.587588134814546"><ele>508.0</ele><time>2026-04-27T15:52:58Z</time></trkpt><trkpt lat="48.18791127377233" lon="11.58777868260688"><ele>507.25</ele><time>2026-04-27T15:52:59Z</time></trkpt><trkpt lat="48.187911721749344" lon="11.587962378331415"><ele>506.5</ele><time>2026-04-27T15:53:00Z</time></trkpt><trkpt lat="48.18791096607973" lon="11.588163270401873"><ele>505.75</ele><time>2026-04-27T15:53:01Z</time></trkpt><trkpt lat="48.18790871838179" lon="11.5883663422658"><ele>505.0</ele><time>2026-04-27T15:53:02Z</time></trkpt><trkpt lat="48.18790747578737" lon="11.588561425459428"><ele>505.0</ele><time>2026-04-27T15:53:03Z</time></trkpt><trkpt lat="48.187906831145376" lon="11.588737608533428"><ele>505.0</ele><time>2026-04-27T15:53:04Z</time></trkpt><trkpt lat="48.18790668527667" lon="11.588917396907606"><ele>505.0</ele><time>2026-04-27T15:53:05Z</time></trkpt><trkpt lat="48.18790752354518" lon="11.589095045520361"><ele>505.0</ele><time>2026-04-27T15:53:06Z</time></trkpt><trkpt lat="48.18790791766435" lon="11.589278819458546"><ele>505.0</ele><time>2026-04-27T15:53:07Z</time></trkpt><trkpt lat="48.187908112613734" lon="11.589461181032899"><ele>505.0</ele><time>2026-04-27T15:53:08Z</time></trkpt><trkpt lat="48.1879063772607" lon="11.589643342383168"><ele>505.0</ele><time>2026-04-27T15:53:09Z</time></trkpt><trkpt lat="48.18790363692977" lon="11.589823586995745"><ele>505.0</ele><time>2026-04-27T15:53:10Z</time></trkpt><trkpt lat="48.187902144832215" lon="11.590002523257311"><ele>504.8</ele><time>2026-04-27T15:53:11Z</time></trkpt><trkpt lat="48.18790232222681" lon="11.590178210855605"><ele>504.6</ele><time>2026-04-27T15:53:12Z</time></trkpt><trkpt lat="48.1879023345852" lon="11.590336979163546"><ele>504.4</ele><time>2026-04-27T15:53:13Z</time></trkpt><trkpt lat="48.18790156421489" lon="11.590491248527076"><ele>504.2</ele><time>2026-04-27T15:53:14Z</time></trkpt><trkpt lat="48.187900297703116" lon="11.590642261083973"><ele>504.0</ele><time>2026-04-27T15:53:15Z</time></trkpt><trkpt lat="48.18789901441172" lon="11.590788549911156"><ele>504.0</ele><time>2026-04-27T15:53:16Z</time></trkpt><trkpt lat="48.18789667965116" lon="11.590930491190004"><ele>504.0</ele><time>2026-04-27T15:53:17Z</time></trkpt><trkpt lat="48.18789690021963" lon="11.591067632682678"><ele>504.0</ele><time>2026-04-27T15:53:18Z</time></trkpt><trkpt lat="48.18789986448006" lon="11.591188760288015"><ele>504.0</ele><time>2026-04-27T15:53:19Z</time></trkpt><trkpt lat="48.18789952366411" lon="11.59130804742036"><ele>504.0</ele><time>2026-04-27T15:53:20Z</time></trkpt><trkpt lat="48.18790005180282" lon="11.591416760767045"><ele>504.0</ele><time>2026-04-27T15:53:21Z</time></trkpt><trkpt lat="48.18790216354433" lon="11.591573696196026"><ele>504.0</ele><time>2026-04-27T15:53:23Z</time></trkpt><trkpt lat="48.18790240825687" lon="11.591692206886336"><ele>504.0</ele><time>2026-04-27T15:53:25Z</time></trkpt><trkpt lat="48.18790500991493" lon="11.591800364681173"><ele>504.0</ele><time>2026-04-27T15:53:27Z</time></trkpt><trkpt lat="48.187903742790844" lon="11.591900229122448"><ele>504.0</ele><time>2026-04-27T15:53:29Z</time></trkpt><trkpt lat="48.18789992753529" lon="11.592006346870715"><ele>504.0</ele><time>2026-04-27T15:53:32Z</time></trkpt><trkpt lat="48.18789365378601" lon="11.592155946949696"><ele>504.0</ele><time>2026-04-27T15:53:44Z</time></trkpt><trkpt lat="48.1878902302157" lon="11.592266999908837"><ele>504.0</ele><time>2026-04-27T15:53:45Z</time></trkpt><trkpt lat="48.18788578724322" lon="11.592396515108868"><ele>504.0</ele><time>2026-04-27T15:53:46Z</time></trkpt><trkpt lat="48.1878799754407" lon="11.592515294840771"><ele>504.0</ele><time>2026-04-27T15:53:47Z</time></trkpt><trkpt lat="48.18787373361807" lon="11.592634122316001"><ele>504.0</ele><time>2026-04-27T15:53:48Z</time></trkpt><trkpt lat="48.18786608818976" lon="11.592764252582699"><ele>504.0</ele><time>2026-04-27T15:53:49Z</time></trkpt><trkpt lat="48.18785668629502" lon="11.592919730617616"><ele>504.0</ele><time>2026-04-27T15:53:50Z</time></trkpt><trkpt lat="48.18784919540895" lon="11.593083891118996"><ele>504.0</ele><time>2026-04-27T15:53:50.999Z</time></trkpt><trkpt lat="48.18783933105771" lon="11.593234879107046"><ele>504.0</ele><time>2026-04-27T15:53:51.999Z</time></trkpt><trkpt lat="48.18782834258249" lon="11.593388876603044"><ele>504.0</ele><time>2026-04-27T15:53:52.999Z</time></trkpt><trkpt lat="48.18781909076222" lon="11.593539570644984"><ele>504.0</ele><time>2026-04-27T15:53:53.999Z</time></trkpt><trkpt lat="48.18780648506398" lon="11.593687513104053"><ele>504.0</ele><time>2026-04-27T15:53:54.999Z</time></trkpt><trkpt lat="48.18779394673395" lon="11.5938327905157"><ele>503.6</ele><time>2026-04-27T15:53:55.999Z</time></trkpt><trkpt lat="48.187783417945255" lon="11.593979442031747"><ele>503.2</ele><time>2026-04-27T15:53:56.999Z</time></trkpt><trkpt lat="48.18777120507323" lon="11.59413213115978"><ele>502.80000000000007</ele><time>2026-04-27T15:53:57.999Z</time></trkpt><trkpt lat="48.187753487459034" lon="11.594292895712735"><ele>502.40000000000003</ele><time>2026-04-27T15:53:58.999Z</time></trkpt><trkpt lat="48.18773433626171" lon="11.59446544375447"><ele>502.0</ele><time>2026-04-27T15:53:59.999Z</time></trkpt><trkpt lat="48.187716944458884" lon="11.594642452646594"><ele>502.0</ele><time>2026-04-27T15:54:00.999Z</time></trkpt><trkpt lat="48.18769905875454" lon="11.594824913730372"><ele>502.0</ele><time>2026-04-27T15:54:01.999Z</time></trkpt><trkpt lat="48.18768070700169" lon="11.595015931993824"><ele>502.0</ele><time>2026-04-27T15:54:02.999Z</time></trkpt><trkpt lat="48.18766109925773" lon="11.595191474405768"><ele>502.0</ele><time>2026-04-27T15:54:03.999Z</time></trkpt><trkpt lat="48.18763432234948" lon="11.5953709327888"><ele>502.0</ele><time>2026-04-27T15:54:04.999Z</time></trkpt><trkpt lat="48.18761218757356" lon="11.595542655613972"><ele>502.00000000000006</ele><time>2026-04-27T15:54:05.999Z</time></trkpt><trkpt lat="48.187591824899854" lon="11.595691294673268"><ele>502.00000000000006</ele><time>2026-04-27T15:54:06.999Z</time></trkpt><trkpt lat="48.18757180202735" lon="11.59583029462996"><ele>502.0</ele><time>2026-04-27T15:54:07.999Z</time></trkpt><trkpt lat="48.18755687477769" lon="11.595983589502818"><ele>502.0</ele><time>2026-04-27T15:54:08.999Z</time></trkpt><trkpt lat="48.187539219503535" lon="11.59614079068344"><ele>501.8</ele><time>2026-04-27T15:54:09.999Z</time></trkpt><trkpt lat="48.1875236357227" lon="11.596283707553344"><ele>501.6</ele><time>2026-04-27T15:54:10.999Z</time></trkpt><trkpt lat="48.18750722644775" lon="11.596415754361526"><ele>501.40000000000003</ele><time>2026-04-27T15:54:11.999Z</time></trkpt><trkpt lat="48.18749142778845" lon="11.596546096306339"><ele>501.20000000000005</ele><time>2026-04-27T15:54:12.999Z</time></trkpt><trkpt lat="48.18747611113992" lon="11.596685354653303"><ele>501.0</ele><time>2026-04-27T15:54:13.999Z</time></trkpt><trkpt lat="48.1874594573597" lon="11.59682088888784"><ele>501.0</ele><time>2026-04-27T15:54:14.999Z</time></trkpt><trkpt lat="48.18744554091112" lon="11.596940303680977"><ele>501.0</ele><time>2026-04-27T15:54:15.999Z</time></trkpt><trkpt lat="48.187432406366845" lon="11.597062486791826"><ele>501.0</ele><time>2026-04-27T15:54:16.999Z</time></trkpt><trkpt lat="48.18741898968005" lon="11.597184934443808"><ele>501.0</ele><time>2026-04-27T15:54:17.999Z</time></trkpt><trkpt lat="48.18740733340349" lon="11.597303410451879"><ele>501.0</ele><time>2026-04-27T15:54:18.999Z</time></trkpt><trkpt lat="48.18739555208837" lon="11.597406686126762"><ele>501.0</ele><time>2026-04-27T15:54:19.999Z</time></trkpt><trkpt lat="48.18738575218053" lon="11.597503439635117"><ele>501.0</ele><time>2026-04-27T15:54:20.999Z</time></trkpt><trkpt lat="48.18737581098017" lon="11.59759770377524"><ele>501.0</ele><time>2026-04-27T15:54:21.999Z</time></trkpt><trkpt lat="48.18735495910941" lon="11.597772916480325"><ele>501.0</ele><time>2026-04-27T15:54:23.999Z</time></trkpt><trkpt lat="48.187341773593715" lon="11.597900555366216"><ele>501.0</ele><time>2026-04-27T15:54:25.999Z</time></trkpt><trkpt lat="48.18733053536501" lon="11.598009835178392"><ele>501.0</ele><time>2026-04-27T15:54:29Z</time></trkpt><trkpt lat="48.187321191911494" lon="11.598123635870683"><ele>501.0</ele><time>2026-04-27T15:54:40Z</time></trkpt><trkpt lat="48.18729966395154" lon="11.59832908916944"><ele>501.6</ele><time>2026-04-27T15:54:42Z</time></trkpt><trkpt lat="48.18728677546546" lon="11.598450816274328"><ele>502.20000000000005</ele><time>2026-04-27T15:54:43Z</time></trkpt><trkpt lat="48.18727163285366" lon="11.598591863840019"><ele>502.79999999999995</ele><time>2026-04-27T15:54:44Z</time></trkpt><trkpt lat="48.187255169020204" lon="11.598743634165071"><ele>503.4</ele><time>2026-04-27T15:54:45Z</time></trkpt><trkpt lat="48.18723919935304" lon="11.598883498426938"><ele>504.0</ele><time>2026-04-27T15:54:46Z</time></trkpt><trkpt lat="48.18722481179202" lon="11.599011307875234"><ele>504.2</ele><time>2026-04-27T15:54:47Z</time></trkpt><trkpt lat="48.187209144586085" lon="11.599133851551638"><ele>504.4</ele><time>2026-04-27T15:54:48Z</time></trkpt><trkpt lat="48.18719337740032" lon="11.599263884025662"><ele>504.6</ele><time>2026-04-27T15:54:49Z</time></trkpt><trkpt lat="48.1871804695802" lon="11.599407248071214"><ele>504.8</ele><time>2026-04-27T15:54:50Z</time></trkpt><trkpt lat="48.18716697098751" lon="11.599551569930785"><ele>505.0</ele><time>2026-04-27T15:54:51Z</time></trkpt><trkpt lat="48.18715198123506" lon="11.599697690680115"><ele>505.0</ele><time>2026-04-27T15:54:52Z</time></trkpt><trkpt lat="48.18713710858403" lon="11.599833542314567"><ele>505.0</ele><time>2026-04-27T15:54:53Z</time></trkpt><trkpt lat="48.18712245893417" lon="11.599971013724469"><ele>505.0</ele><time>2026-04-27T15:54:54Z</time></trkpt><trkpt lat="48.18710592271329" lon="11.600112577444266"><ele>505.0</ele><time>2026-04-27T15:54:55Z</time></trkpt><trkpt lat="48.18708983534629" lon="11.600254926142915"><ele>505.0</ele><time>2026-04-27T15:54:56Z</time></trkpt><trkpt lat="48.18707528766446" lon="11.600401698952277"><ele>504.8</ele><time>2026-04-27T15:54:57Z</time></trkpt><trkpt lat="48.18706038350547" lon="11.600547361827159"><ele>504.6</ele><time>2026-04-27T15:54:58Z</time></trkpt><trkpt lat="48.18704350177373" lon="11.600705163598535"><ele>504.4</ele><time>2026-04-27T15:54:59Z</time></trkpt><trkpt lat="48.18702446488148" lon="11.600866839481496"><ele>504.2</ele><time>2026-04-27T15:55:00Z</time></trkpt><trkpt lat="48.18700268188435" lon="11.60102153106185"><ele>504.0</ele><time>2026-04-27T15:55:01Z</time></trkpt><trkpt lat="48.18698315466952" lon="11.601177173380426"><ele>504.0</ele><time>2026-04-27T15:55:02Z</time></trkpt><trkpt lat="48.186964486314714" lon="11.60134213481975"><ele>504.0</ele><time>2026-04-27T15:55:03Z</time></trkpt><trkpt lat="48.1869449635959" lon="11.6015134947093"><ele>504.0</ele><time>2026-04-27T15:55:04Z</time></trkpt><trkpt lat="48.18692903758349" lon="11.601702723780665"><ele>504.0</ele><time>2026-04-27T15:55:05Z</time></trkpt><trkpt lat="48.18690596991818" lon="11.601915664558211"><ele>504.0</ele><time>2026-04-27T15:55:06Z</time></trkpt><trkpt lat="48.18688653484116" lon="11.60210282242888"><ele>504.0</ele><time>2026-04-27T15:55:07Z</time></trkpt><trkpt lat="48.186867243262235" lon="11.602288235236593"><ele>504.0</ele><time>2026-04-27T15:55:08Z</time></trkpt><trkpt lat="48.18684829467978" lon="11.602472072097864"><ele>504.0</ele><time>2026-04-27T15:55:09Z</time></trkpt><trkpt lat="48.18682662596058" lon="11.602649742920649"><ele>504.0</ele><time>2026-04-27T15:55:10Z</time></trkpt><trkpt lat="48.18680806226397" lon="11.602811065576345"><ele>504.0</ele><time>2026-04-27T15:55:11Z</time></trkpt><trkpt lat="48.186790261994425" lon="11.602975985497244"><ele>504.0</ele><time>2026-04-27T15:55:12Z</time></trkpt><trkpt lat="48.186771598618385" lon="11.60315143866771"><ele>504.0</ele><time>2026-04-27T15:55:13Z</time></trkpt><trkpt lat="48.186752183347956" lon="11.603323794397136"><ele>503.6</ele><time>2026-04-27T15:55:14Z</time></trkpt><trkpt lat="48.186734551841866" lon="11.603480704097223"><ele>503.2</ele><time>2026-04-27T15:55:15Z</time></trkpt><trkpt lat="48.18671885505622" lon="11.603624639349638"><ele>502.80000000000007</ele><time>2026-04-27T15:55:16Z</time></trkpt><trkpt lat="48.186704028173" lon="11.603763429574455"><ele>502.40000000000003</ele><time>2026-04-27T15:55:17Z</time></trkpt><trkpt lat="48.18668915300632" lon="11.60389206020985"><ele>502.0</ele><time>2026-04-27T15:55:18Z</time></trkpt><trkpt lat="48.18667588550464" lon="11.604006388437005"><ele>502.00000000000006</ele><time>2026-04-27T15:55:19Z</time></trkpt><trkpt lat="48.18666323269732" lon="11.604116269623221"><ele>502.0</ele><time>2026-04-27T15:55:20Z</time></trkpt><trkpt lat="48.18665112273673" lon="11.604217552615784"><ele>502.0</ele><time>2026-04-27T15:55:21Z</time></trkpt><trkpt lat="48.18663994671912" lon="11.604315988314434"><ele>502.0</ele><time>2026-04-27T15:55:22Z</time></trkpt><trkpt lat="48.186631998799925" lon="11.604416159900328"><ele>502.00000000000006</ele><time>2026-04-27T15:55:23Z</time></trkpt><trkpt lat="48.186616787017" lon="11.604589869946063"><ele>502.0</ele><time>2026-04-27T15:55:25Z</time></trkpt><trkpt lat="48.1865981030852" lon="11.604710333776362"><ele>501.83333333333337</ele><time>2026-04-27T15:55:27Z</time></trkpt><trkpt lat="48.1865875935559" lon="11.604816524469067"><ele>501.6666666666667</ele><time>2026-04-27T15:55:29Z</time></trkpt><trkpt lat="48.186575452100186" lon="11.604930515844437"><ele>501.5</ele><time>2026-04-27T15:55:32Z</time></trkpt><trkpt lat="48.18656931932477" lon="11.605038899731976"><ele>501.33333333333337</ele><time>2026-04-27T15:55:39Z</time></trkpt><trkpt lat="48.18655475295115" lon="11.60519468409376"><ele>501.1666666666667</ele><time>2026-04-27T15:55:41Z</time></trkpt><trkpt lat="48.186544807259224" lon="11.605312551762724"><ele>501.0</ele><time>2026-04-27T15:55:42Z</time></trkpt><trkpt lat="48.186528550422004" lon="11.605434829046239"><ele>501.0</ele><time>2026-04-27T15:55:43Z</time></trkpt><trkpt lat="48.18651488864194" lon="11.605543497320973"><ele>501.0</ele><time>2026-04-27T15:55:44Z</time></trkpt><trkpt lat="48.18650380995014" lon="11.605640793234858"><ele>501.0</ele><time>2026-04-27T15:55:45Z</time></trkpt><trkpt lat="48.18649172491079" lon="11.60573374394789"><ele>501.0</ele><time>2026-04-27T15:55:46Z</time></trkpt><trkpt lat="48.186464637034284" lon="11.605938081916532"><ele>501.0</ele><time>2026-04-27T15:55:48Z</time></trkpt><trkpt lat="48.186445136313715" lon="11.606062534814516"><ele>501.0</ele><time>2026-04-27T15:55:49Z</time></trkpt><trkpt lat="48.18643461817996" lon="11.606194773781803"><ele>501.3333333333333</ele><time>2026-04-27T15:55:50Z</time></trkpt><trkpt lat="48.18641957794582" lon="11.606317963726408"><ele>501.66666666666663</ele><time>2026-04-27T15:55:51Z</time></trkpt><trkpt lat="48.18640865717313" lon="11.60641938121997"><ele>502.0</ele><time>2026-04-27T15:55:52Z</time></trkpt><trkpt lat="48.18639711707176" lon="11.606572260577888"><ele>502.3333333333333</ele><time>2026-04-27T15:55:54Z</time></trkpt><trkpt lat="48.18638960806343" lon="11.606668570536"><ele>502.66666666666663</ele><time>2026-04-27T15:55:56Z</time></trkpt><trkpt lat="48.18636921553982" lon="11.60675890260878"><ele>503.0</ele><time>2026-04-27T15:56:03Z</time></trkpt><trkpt lat="48.18636872846191" lon="11.6068667435405"><ele>502.5</ele><time>2026-04-27T15:56:06Z</time></trkpt><trkpt lat="48.18634542154066" lon="11.607073179566386"><ele>502.0</ele><time>2026-04-27T15:56:08Z</time></trkpt><trkpt lat="48.18632789136666" lon="11.607241542823411"><ele>501.5</ele><time>2026-04-27T15:56:09Z</time></trkpt><trkpt lat="48.18630620449024" lon="11.607414118765204"><ele>501.0</ele><time>2026-04-27T15:56:10Z</time></trkpt><trkpt lat="48.186284559370634" lon="11.607651835698018"><ele>501.33333333333337</ele><time>2026-04-27T15:56:11Z</time></trkpt><trkpt lat="48.18625838153191" lon="11.607914846949386"><ele>501.6666666666667</ele><time>2026-04-27T15:56:12Z</time></trkpt><trkpt lat="48.18622671563046" lon="11.608155885069731"><ele>502.0</ele><time>2026-04-27T15:56:13Z</time></trkpt><trkpt lat="48.18619873749451" lon="11.608380091035711"><ele>502.0</ele><time>2026-04-27T15:56:14Z</time></trkpt><trkpt lat="48.18617520083674" lon="11.608585587522898"><ele>502.0</ele><time>2026-04-27T15:56:15Z</time></trkpt><trkpt lat="48.18615313145144" lon="11.608772674292267"><ele>502.0</ele><time>2026-04-27T15:56:16Z</time></trkpt><trkpt lat="48.18613253457408" lon="11.60894133640515"><ele>502.0</ele><time>2026-04-27T15:56:17Z</time></trkpt><trkpt lat="48.1861129716737" lon="11.60909327074198"><ele>502.00000000000006</ele><time>2026-04-27T15:56:18Z</time></trkpt><trkpt lat="48.18609528971473" lon="11.609220279723884"><ele>502.0</ele><time>2026-04-27T15:56:19Z</time></trkpt><trkpt lat="48.186085210159725" lon="11.60934602552995"><ele>502.0</ele><time>2026-04-27T15:56:21Z</time></trkpt><trkpt lat="48.186079608641386" lon="11.609444106799243"><ele>502.0</ele><time>2026-04-27T15:56:24Z</time></trkpt><trkpt lat="48.18606598932698" lon="11.609544808421589"><ele>502.00000000000006</ele><time>2026-04-27T15:57:08Z</time></trkpt><trkpt lat="48.18605808589584" lon="11.609694398338883"><ele>502.0</ele><time>2026-04-27T15:57:10Z</time></trkpt><trkpt lat="48.1860367053032" lon="11.609878969189335"><ele>502.00000000000006</ele><time>2026-04-27T15:57:12Z</time></trkpt><trkpt lat="48.186006478391064" lon="11.609991119384556"><ele>502.0</ele><time>2026-04-27T15:57:13Z</time></trkpt><trkpt lat="48.18600266795055" lon="11.610099825038942"><ele>502.0</ele><time>2026-04-27T15:57:14Z</time></trkpt><trkpt lat="48.18598962672425" lon="11.61020509871909"><ele>502.0</ele><time>2026-04-27T15:57:15Z</time></trkpt><trkpt lat="48.185974880781885" lon="11.610303274764373"><ele>502.00000000000006</ele><time>2026-04-27T15:57:16Z</time></trkpt><trkpt lat="48.18595704011145" lon="11.610431854911539"><ele>502.0</ele><time>2026-04-27T15:57:18Z</time></trkpt><trkpt lat="48.18594132359537" lon="11.610549926893647"><ele>502.0</ele><time>2026-04-27T15:58:33Z</time></trkpt><trkpt lat="48.18595079236262" lon="11.610722860759603"><ele>502.0</ele><time>2026-04-27T15:58:35Z</time></trkpt><trkpt lat="48.18596545691432" lon="11.610845969712727"><ele>502.0</ele><time>2026-04-27T15:58:36Z</time></trkpt><trkpt lat="48.18591520681461" lon="11.610941362578462"><ele>502.0</ele><time>2026-04-27T15:58:37Z</time></trkpt><trkpt lat="48.18606287494376" lon="11.611074662867653"><ele>501.75</ele><time>2026-04-27T15:58:38Z</time></trkpt><trkpt lat="48.18615264490113" lon="11.611190897047834"><ele>501.5</ele><time>2026-04-27T15:58:39Z</time></trkpt><trkpt lat="48.186270011112406" lon="11.611320969733184"><ele>501.25</ele><time>2026-04-27T15:58:40Z</time></trkpt><trkpt lat="48.18639875437776" lon="11.611458880449906"><ele>501.0</ele><time>2026-04-27T15:58:41Z</time></trkpt><trkpt lat="48.186529760839484" lon="11.611593798669169"><ele>501.5</ele><time>2026-04-27T15:58:42Z</time></trkpt><trkpt lat="48.18665926349393" lon="11.611719077194998"><ele>502.0</ele><time>2026-04-27T15:58:43Z</time></trkpt><trkpt lat="48.186776390307166" lon="11.611843483951468"><ele>502.5</ele><time>2026-04-27T15:58:44Z</time></trkpt><trkpt lat="48.18689251078856" lon="11.611972813832217"><ele>503.0</ele><time>2026-04-27T15:58:45Z</time></trkpt><trkpt lat="48.18700207505594" lon="11.612092143228601"><ele>503.0</ele><time>2026-04-27T15:58:46Z</time></trkpt><trkpt lat="48.187101254608315" lon="11.612195448267695"><ele>503.0</ele><time>2026-04-27T15:58:47Z</time></trkpt><trkpt lat="48.1871846309009" lon="11.612292103238806"><ele>503.0</ele><time>2026-04-27T15:58:48Z</time></trkpt><trkpt lat="48.18726898249066" lon="11.612407866402839"><ele>503.0</ele><time>2026-04-27T15:58:49Z</time></trkpt><trkpt lat="48.18734636018513" lon="11.61254743807073"><ele>502.5</ele><time>2026-04-27T15:58:50Z</time></trkpt><trkpt lat="48.187406406039756" lon="11.612715222295876"><ele>502.0</ele><time>2026-04-27T15:58:51Z</time></trkpt><trkpt lat="48.18745850517622" lon="11.612909048433007"><ele>501.5</ele><time>2026-04-27T15:58:52Z</time></trkpt><trkpt lat="48.18749376108041" lon="11.61311453823809"><ele>501.0</ele><time>2026-04-27T15:58:53Z</time></trkpt><trkpt lat="48.18750718257939" lon="11.613340455870265"><ele>501.0</ele><time>2026-04-27T15:58:54Z</time></trkpt><trkpt lat="48.18750304420635" lon="11.613579458789031"><ele>501.0</ele><time>2026-04-27T15:58:55Z</time></trkpt><trkpt lat="48.18748360502549" lon="11.613812835051034"><ele>501.0</ele><time>2026-04-27T15:58:56Z</time></trkpt><trkpt lat="48.18745816662952" lon="11.614035858967409"><ele>501.25</ele><time>2026-04-27T15:58:57Z</time></trkpt><trkpt lat="48.18743163319255" lon="11.614236836534838"><ele>501.5</ele><time>2026-04-27T15:58:58Z</time></trkpt><trkpt lat="48.18740486457045" lon="11.614411036626034"><ele>501.75</ele><time>2026-04-27T15:58:59Z</time></trkpt><trkpt lat="48.187358837922964" lon="11.614558603436194"><ele>502.0</ele><time>2026-04-27T15:59:00Z</time></trkpt><trkpt lat="48.18730715390122" lon="11.614689426924143"><ele>502.6</ele><time>2026-04-27T15:59:01Z</time></trkpt><trkpt lat="48.187226596439984" lon="11.614785220759494"><ele>503.20000000000005</ele><time>2026-04-27T15:59:02Z</time></trkpt><trkpt lat="48.18711497113854" lon="11.614840195807515"><ele>503.8</ele><time>2026-04-27T15:59:03Z</time></trkpt><trkpt lat="48.18700104888187" lon="11.614854223912207"><ele>504.4</ele><time>2026-04-27T15:59:04Z</time></trkpt><trkpt lat="48.186891223026784" lon="11.61481781169002"><ele>505.0</ele><time>2026-04-27T15:59:05Z</time></trkpt><trkpt lat="48.1868030460943" lon="11.614729695505241"><ele>505.0</ele><time>2026-04-27T15:59:06Z</time></trkpt><trkpt lat="48.18673932895819" lon="11.6145926086391"><ele>505.0</ele><time>2026-04-27T15:59:07Z</time></trkpt><trkpt lat="48.18669654668957" lon="11.614408559835658"><ele>505.0</ele><time>2026-04-27T15:59:08Z</time></trkpt><trkpt lat="48.1866849330882" lon="11.614194547103908"><ele>505.0</ele><time>2026-04-27T15:59:09Z</time></trkpt><trkpt lat="48.18670367872309" lon="11.613968427352866"><ele>504.33333333333337</ele><time>2026-04-27T15:59:10Z</time></trkpt><trkpt lat="48.186748790215816" lon="11.613742531711729"><ele>503.66666666666663</ele><time>2026-04-27T15:59:11Z</time></trkpt><trkpt lat="48.18679848375058" lon="11.613508914445603"><ele>503.0</ele><time>2026-04-27T15:59:12Z</time></trkpt><trkpt lat="48.18686028154289" lon="11.613277196778943"><ele>503.0</ele><time>2026-04-27T15:59:13Z</time></trkpt><trkpt lat="48.18694544053656" lon="11.613064025239446"><ele>503.0</ele><time>2026-04-27T15:59:14Z</time></trkpt><trkpt lat="48.18704211055384" lon="11.612873432471794"><ele>503.0</ele><time>2026-04-27T15:59:15Z</time></trkpt><trkpt lat="48.187137529338536" lon="11.61271669302777"><ele>503.0</ele><time>2026-04-27T15:59:16Z</time></trkpt><trkpt lat="48.18723633046171" lon="11.612581156268273"><ele>503.0</ele><time>2026-04-27T15:59:17Z</time></trkpt><trkpt lat="48.18735016428616" lon="11.612477792314126"><ele>503.0</ele><time>2026-04-27T15:59:18Z</time></trkpt><trkpt lat="48.18748403181848" lon="11.612411169834774"><ele>503.0</ele><time>2026-04-27T15:59:19Z</time></trkpt><trkpt lat="48.187630074051214" lon="11.612394302031303"><ele>502.0</ele><time>2026-04-27T15:59:20Z</time></trkpt><trkpt lat="48.187789587033535" lon="11.612428269847575"><ele>501.0</ele><time>2026-04-27T15:59:21Z</time></trkpt><trkpt lat="48.18796408979792" lon="11.612511175791054"><ele>500.0</ele><time>2026-04-27T15:59:22Z</time></trkpt><trkpt lat="48.18814873341408" lon="11.612633956557545"><ele>499.66666666666663</ele><time>2026-04-27T15:59:23Z</time></trkpt><trkpt lat="48.188337231963565" lon="11.612777121079239"><ele>499.33333333333337</ele><time>2026-04-27T15:59:24Z</time></trkpt><trkpt lat="48.188527121450704" lon="11.612924690725428"><ele>499.0</ele><time>2026-04-27T15:59:25Z</time></trkpt><trkpt lat="48.18871814975551" lon="11.613071782705777"><ele>499.0</ele><time>2026-04-27T15:59:26Z</time></trkpt><trkpt lat="48.18890819872965" lon="11.613213819039911"><ele>499.0</ele><time>2026-04-27T15:59:27Z</time></trkpt><trkpt lat="48.1890902102043" lon="11.613341978778557"><ele>499.0</ele><time>2026-04-27T15:59:28Z</time></trkpt><trkpt lat="48.18927412625323" lon="11.613462647089667"><ele>499.0</ele><time>2026-04-27T15:59:29Z</time></trkpt><trkpt lat="48.18946484765007" lon="11.613581809032585"><ele>499.0</ele><time>2026-04-27T15:59:30Z</time></trkpt><trkpt lat="48.18966191310051" lon="11.61369315611553"><ele>499.0</ele><time>2026-04-27T15:59:31Z</time></trkpt><trkpt lat="48.189867607694076" lon="11.61379077497071"><ele>500.0</ele><time>2026-04-27T15:59:32Z</time></trkpt><trkpt lat="48.19009519122001" lon="11.613889152324061"><ele>501.0</ele><time>2026-04-27T15:59:33Z</time></trkpt><trkpt lat="48.19032626780383" lon="11.614002660833858"><ele>501.0</ele><time>2026-04-27T15:59:34Z</time></trkpt><trkpt lat="48.19055798018942" lon="11.61412032702672"><ele>501.0</ele><time>2026-04-27T15:59:35Z</time></trkpt><trkpt lat="48.190774037531305" lon="11.614246842663393"><ele>500.5</ele><time>2026-04-27T15:59:36Z</time></trkpt><trkpt lat="48.19100364022632" lon="11.614387033461817"><ele>500.0</ele><time>2026-04-27T15:59:37Z</time></trkpt><trkpt lat="48.19122548644854" lon="11.614515717087777"><ele>499.5</ele><time>2026-04-27T15:59:38Z</time></trkpt><trkpt lat="48.191438669314586" lon="11.614633235131736"><ele>499.0</ele><time>2026-04-27T15:59:39Z</time></trkpt><trkpt lat="48.19166015917443" lon="11.614747247545544"><ele>498.5</ele><time>2026-04-27T15:59:40Z</time></trkpt><trkpt lat="48.191886137916704" lon="11.614858876664442"><ele>498.0</ele><time>2026-04-27T15:59:41Z</time></trkpt><trkpt lat="48.19211142272438" lon="11.614974413958517"><ele>498.0</ele><time>2026-04-27T15:59:42Z</time></trkpt><trkpt lat="48.19233793811237" lon="11.615089304270526"><ele>498.0</ele><time>2026-04-27T15:59:43Z</time></trkpt><trkpt lat="48.19255994196869" lon="11.61520300305199"><ele>498.0</ele><time>2026-04-27T15:59:44Z</time></trkpt><trkpt lat="48.192773332171" lon="11.615312322226748"><ele>498.0</ele><time>2026-04-27T15:59:45Z</time></trkpt><trkpt lat="48.19298155720379" lon="11.615416035165696"><ele>498.0</ele><time>2026-04-27T15:59:46Z</time></trkpt><trkpt lat="48.19318942070909" lon="11.615515961721888"><ele>498.0</ele><time>2026-04-27T15:59:47Z</time></trkpt><trkpt lat="48.19340927163083" lon="11.615606701609751"><ele>498.0</ele><time>2026-04-27T15:59:48Z</time></trkpt><trkpt lat="48.19363216824874" lon="11.615704402040032"><ele>498.0</ele><time>2026-04-27T15:59:49Z</time></trkpt><trkpt lat="48.19386055777543" lon="11.615814027273116"><ele>498.0</ele><time>2026-04-27T15:59:50Z</time></trkpt><trkpt lat="48.19409684235932" lon="11.615912188279852"><ele>498.5</ele><time>2026-04-27T15:59:51Z</time></trkpt><trkpt lat="48.19433694569497" lon="11.616012684610107"><ele>499.0</ele><time>2026-04-27T15:59:52Z</time></trkpt><trkpt lat="48.19457941597368" lon="11.616126061201296"><ele>499.0</ele><time>2026-04-27T15:59:53Z</time></trkpt><trkpt lat="48.19482191552169" lon="11.616246174356549"><ele>499.0</ele><time>2026-04-27T15:59:54Z</time></trkpt><trkpt lat="48.1950675803777" lon="11.616368791961115"><ele>499.0</ele><time>2026-04-27T15:59:55Z</time></trkpt><trkpt lat="48.195313778052686" lon="11.616490989823415"><ele>499.0</ele><time>2026-04-27T15:59:56Z</time></trkpt><trkpt lat="48.19556059084588" lon="11.61661193673553"><ele>499.5</ele><time>2026-04-27T15:59:57Z</time></trkpt><trkpt lat="48.19580871927607" lon="11.616731720967495"><ele>500.0</ele><time>2026-04-27T15:59:58Z</time></trkpt><trkpt lat="48.19605974415943" lon="11.616852529751723"><ele>500.0</ele><time>2026-04-27T15:59:59Z</time></trkpt><trkpt lat="48.19631174889788" lon="11.61697456946437"><ele>500.0</ele><time>2026-04-27T16:00:00Z</time></trkpt><trkpt lat="48.1965650651678" lon="11.61709685472076"><ele>500.5</ele><time>2026-04-27T16:00:01Z</time></trkpt><trkpt lat="48.19682064824977" lon="11.617220425769185"><ele>501.0</ele><time>2026-04-27T16:00:02Z</time></trkpt><trkpt lat="48.197078079458635" lon="11.61734189529067"><ele>499.5</ele><time>2026-04-27T16:00:03Z</time></trkpt><trkpt lat="48.197336170860744" lon="11.617459816306527"><ele>498.0</ele><time>2026-04-27T16:00:04Z</time></trkpt><trkpt lat="48.197595145810666" lon="11.617579827881691"><ele>498.0</ele><time>2026-04-27T16:00:05Z</time></trkpt><trkpt lat="48.19785275477822" lon="11.617692293203513"><ele>498.0</ele><time>2026-04-27T16:00:06Z</time></trkpt><trkpt lat="48.19810812773826" lon="11.617799223796744"><ele>496.5</ele><time>2026-04-27T16:00:07Z</time></trkpt><trkpt lat="48.1983654179317" lon="11.617947634508646"><ele>495.0</ele><time>2026-04-27T16:00:08Z</time></trkpt><trkpt lat="48.19862615735483" lon="11.618075840964162"><ele>495.0</ele><time>2026-04-27T16:00:09Z</time></trkpt><trkpt lat="48.19888618470822" lon="11.61820459373517"><ele>495.0</ele><time>2026-04-27T16:00:10Z</time></trkpt><trkpt lat="48.19914753882287" lon="11.61833285163236"><ele>495.0</ele><time>2026-04-27T16:00:11Z</time></trkpt><trkpt lat="48.199411983559635" lon="11.618459506578253"><ele>495.0</ele><time>2026-04-27T16:00:12Z</time></trkpt><trkpt lat="48.19967456022299" lon="11.618591239437851"><ele>494.5</ele><time>2026-04-27T16:00:13Z</time></trkpt><trkpt lat="48.19993809214653" lon="11.61872461189198"><ele>494.0</ele><time>2026-04-27T16:00:14Z</time></trkpt><trkpt lat="48.20019959289934" lon="11.618857322853545"><ele>494.0</ele><time>2026-04-27T16:00:15Z</time></trkpt><trkpt lat="48.20047492491837" lon="11.618998442344456"><ele>494.0</ele><time>2026-04-27T16:00:16Z</time></trkpt><trkpt lat="48.20077363357322" lon="11.619148368490533"><ele>495.5</ele><time>2026-04-27T16:00:17Z</time></trkpt><trkpt lat="48.201078945913466" lon="11.619303490948479"><ele>497.0</ele><time>2026-04-27T16:00:18Z</time></trkpt><trkpt lat="48.20136948081896" lon="11.619451560015936"><ele>495.5</ele><time>2026-04-27T16:00:19Z</time></trkpt><trkpt lat="48.20164993803629" lon="11.619592826881032"><ele>494.0</ele><time>2026-04-27T16:00:20Z</time></trkpt><trkpt lat="48.20193862945123" lon="11.619732067607822"><ele>494.0</ele><time>2026-04-27T16:00:21Z</time></trkpt><trkpt lat="48.202232700212456" lon="11.619880422100785"><ele>494.0</ele><time>2026-04-27T16:00:22Z</time></trkpt><trkpt lat="48.20252644387119" lon="11.620033280897086"><ele>494.0</ele><time>2026-04-27T16:00:23Z</time></trkpt><trkpt lat="48.202814874127235" lon="11.620179311380621"><ele>494.0</ele><time>2026-04-27T16:00:24Z</time></trkpt><trkpt lat="48.20310062894293" lon="11.620321520068611"><ele>495.5</ele><time>2026-04-27T16:00:25Z</time></trkpt><trkpt lat="48.203381225275855" lon="11.620462025877737"><ele>497.0</ele><time>2026-04-27T16:00:26Z</time></trkpt><trkpt lat="48.20365762015518" lon="11.62060332816758"><ele>497.0</ele><time>2026-04-27T16:00:27Z</time></trkpt><trkpt lat="48.20393590585722" lon="11.62074015428354"><ele>497.0</ele><time>2026-04-27T16:00:28Z</time></trkpt><trkpt lat="48.20421796857214" lon="11.620878254391613"><ele>496.5</ele><time>2026-04-27T16:00:29Z</time></trkpt><trkpt lat="48.204501359652696" lon="11.621019988084376"><ele>496.0</ele><time>2026-04-27T16:00:30Z</time></trkpt><trkpt lat="48.20478754691763" lon="11.621155171286453"><ele>495.0</ele><time>2026-04-27T16:00:31Z</time></trkpt><trkpt lat="48.205078041111186" lon="11.621303433325167"><ele>494.0</ele><time>2026-04-27T16:00:32Z</time></trkpt><trkpt lat="48.205375558426326" lon="11.621460263023746"><ele>493.0</ele><time>2026-04-27T16:00:33Z</time></trkpt><trkpt lat="48.205675270601375" lon="11.621616704986469"><ele>492.0</ele><time>2026-04-27T16:00:34.001Z</time></trkpt><trkpt lat="48.20597391590139" lon="11.62176887362235"><ele>492.0</ele><time>2026-04-27T16:00:35.001Z</time></trkpt><trkpt lat="48.20626906104865" lon="11.62191584644784"><ele>492.0</ele><time>2026-04-27T16:00:36.001Z</time></trkpt><trkpt lat="48.2065594587069" lon="11.622061631944048"><ele>494.5</ele><time>2026-04-27T16:00:37.001Z</time></trkpt><trkpt lat="48.206842590669325" lon="11.622204685748097"><ele>497.0</ele><time>2026-04-27T16:00:38.001Z</time></trkpt><trkpt lat="48.20712598472004" lon="11.622356715612808"><ele>496.0</ele><time>2026-04-27T16:00:39.001Z</time></trkpt><trkpt lat="48.20741021024483" lon="11.622512014758318"><ele>495.0</ele><time>2026-04-27T16:00:40.001Z</time></trkpt><trkpt lat="48.2076994530759" lon="11.622673465810065"><ele>494.5</ele><time>2026-04-27T16:00:41.001Z</time></trkpt><trkpt lat="48.20798962716366" lon="11.6228178406752"><ele>494.0</ele><time>2026-04-27T16:00:42.001Z</time></trkpt><trkpt lat="48.20828380382509" lon="11.62296534601804"><ele>492.5</ele><time>2026-04-27T16:00:43.001Z</time></trkpt><trkpt lat="48.20857816316726" lon="11.623112706048975"><ele>491.0</ele><time>2026-04-27T16:00:44.001Z</time></trkpt><trkpt lat="48.20887205075433" lon="11.623260456719864"><ele>492.5</ele><time>2026-04-27T16:00:45.001Z</time></trkpt><trkpt lat="48.209164052241285" lon="11.62340714585491"><ele>494.0</ele><time>2026-04-27T16:00:46.001Z</time></trkpt><trkpt lat="48.20946655267932" lon="11.623559631004952"><ele>493.0</ele><time>2026-04-27T16:00:47.001Z</time></trkpt><trkpt lat="48.209787939837554" lon="11.62372420740132"><ele>492.0</ele><time>2026-04-27T16:00:48.001Z</time></trkpt><trkpt lat="48.21010344720879" lon="11.623890049520094"><ele>492.0</ele><time>2026-04-27T16:00:49.001Z</time></trkpt><trkpt lat="48.21041691495354" lon="11.624061357817864"><ele>492.0</ele><time>2026-04-27T16:00:50.001Z</time></trkpt><trkpt lat="48.210729262963675" lon="11.624226578561172"><ele>492.5</ele><time>2026-04-27T16:00:51.001Z</time></trkpt><trkpt lat="48.21103530405189" lon="11.624393218325512"><ele>493.0</ele><time>2026-04-27T16:00:52.001Z</time></trkpt><trkpt lat="48.211327127820844" lon="11.624547679856617"><ele>493.5</ele><time>2026-04-27T16:00:53.001Z</time></trkpt><trkpt lat="48.21161713255226" lon="11.624697528097535"><ele>494.0</ele><time>2026-04-27T16:00:54.001Z</time></trkpt><trkpt lat="48.21190942097319" lon="11.624844074496135"><ele>494.0</ele><time>2026-04-27T16:00:55.001Z</time></trkpt><trkpt lat="48.21220082610955" lon="11.624988945151767"><ele>494.0</ele><time>2026-04-27T16:00:56.001Z</time></trkpt><trkpt lat="48.21249019898567" lon="11.625131861652829"><ele>494.5</ele><time>2026-04-27T16:00:57.001Z</time></trkpt><trkpt lat="48.212782514518594" lon="11.625277407602809"><ele>495.0</ele><time>2026-04-27T16:00:58.001Z</time></trkpt><trkpt lat="48.21307583256919" lon="11.625422878058622"><ele>493.5</ele><time>2026-04-27T16:00:59.001Z</time></trkpt><trkpt lat="48.21336815683467" lon="11.625569018919217"><ele>492.0</ele><time>2026-04-27T16:01:00.001Z</time></trkpt><trkpt lat="48.21365816875891" lon="11.62571528706474"><ele>492.0</ele><time>2026-04-27T16:01:01.001Z</time></trkpt><trkpt lat="48.21394582392488" lon="11.625861038972603"><ele>492.0</ele><time>2026-04-27T16:01:02.001Z</time></trkpt><trkpt lat="48.21423753947611" lon="11.625998039242816"><ele>492.5</ele><time>2026-04-27T16:01:03.001Z</time></trkpt><trkpt lat="48.21453565455143" lon="11.626125882614351"><ele>493.0</ele><time>2026-04-27T16:01:04.001Z</time></trkpt><trkpt lat="48.21484210636635" lon="11.626253357440792"><ele>493.0</ele><time>2026-04-27T16:01:05.001Z</time></trkpt><trkpt lat="48.215156718021454" lon="11.626390340731097"><ele>493.0</ele><time>2026-04-27T16:01:06.001Z</time></trkpt><trkpt lat="48.215472612055414" lon="11.62654041846808"><ele>492.5</ele><time>2026-04-27T16:01:07.001Z</time></trkpt><trkpt lat="48.21579781392209" lon="11.62670466657813"><ele>492.0</ele><time>2026-04-27T16:01:08.001Z</time></trkpt><trkpt lat="48.21612582631771" lon="11.626875661868528"><ele>492.0</ele><time>2026-04-27T16:01:09.001Z</time></trkpt><trkpt lat="48.21643706650498" lon="11.627041602524251"><ele>492.0</ele><time>2026-04-27T16:01:10.001Z</time></trkpt><trkpt lat="48.21674420346246" lon="11.627219497894952"><ele>492.0</ele><time>2026-04-27T16:01:11.001Z</time></trkpt><trkpt lat="48.21705038405355" lon="11.627403577988478"><ele>492.0</ele><time>2026-04-27T16:01:12.001Z</time></trkpt><trkpt lat="48.21735186747955" lon="11.627574248351262"><ele>492.0</ele><time>2026-04-27T16:01:13.001Z</time></trkpt><trkpt lat="48.21765949654106" lon="11.627731139700655"><ele>492.0</ele><time>2026-04-27T16:01:14.001Z</time></trkpt><trkpt lat="48.21796915683303" lon="11.627881705833653"><ele>492.0</ele><time>2026-04-27T16:01:15.001Z</time></trkpt><trkpt lat="48.2182753716159" lon="11.62803362255304"><ele>492.0</ele><time>2026-04-27T16:01:16.001Z</time></trkpt><trkpt lat="48.218578129548305" lon="11.628183523408095"><ele>492.0</ele><time>2026-04-27T16:01:17.001Z</time></trkpt><trkpt lat="48.21888076931187" lon="11.628332987117474"><ele>492.0</ele><time>2026-04-27T16:01:18.001Z</time></trkpt><trkpt lat="48.21917947039225" lon="11.628478808438043"><ele>493.0</ele><time>2026-04-27T16:01:19.001Z</time></trkpt><trkpt lat="48.219475181961904" lon="11.628623476637244"><ele>494.0</ele><time>2026-04-27T16:01:20.001Z</time></trkpt><trkpt lat="48.21977038148413" lon="11.628773014671502"><ele>492.5</ele><time>2026-04-27T16:01:21.001Z</time></trkpt><trkpt lat="48.22006600596365" lon="11.628923169869584"><ele>491.0</ele><time>2026-04-27T16:01:22.001Z</time></trkpt><trkpt lat="48.22036155954909" lon="11.629072657351355"><ele>492.0</ele><time>2026-04-27T16:01:23.001Z</time></trkpt><trkpt lat="48.22065574528543" lon="11.629221443602978"><ele>493.0</ele><time>2026-04-27T16:01:24.001Z</time></trkpt><trkpt lat="48.220946031931724" lon="11.629366103277075"><ele>493.5</ele><time>2026-04-27T16:01:25.001Z</time></trkpt><trkpt lat="48.221233692020675" lon="11.629503786350531"><ele>494.0</ele><time>2026-04-27T16:01:26.001Z</time></trkpt><trkpt lat="48.2215207779422" lon="11.629638468302725"><ele>491.5</ele><time>2026-04-27T16:01:27.001Z</time></trkpt><trkpt lat="48.22180809574065" lon="11.629762619938074"><ele>489.0</ele><time>2026-04-27T16:01:28.001Z</time></trkpt><trkpt lat="48.222084233243145" lon="11.62989084751472"><ele>489.5</ele><time>2026-04-27T16:01:29.001Z</time></trkpt><trkpt lat="48.22237420027637" lon="11.630017064830813"><ele>490.0</ele><time>2026-04-27T16:01:30.001Z</time></trkpt><trkpt lat="48.22267015408086" lon="11.630145219907272"><ele>490.0</ele><time>2026-04-27T16:01:31.001Z</time></trkpt><trkpt lat="48.22296198936483" lon="11.630282244928477"><ele>490.0</ele><time>2026-04-27T16:01:32.001Z</time></trkpt><trkpt lat="48.223241022277875" lon="11.630416643448168"><ele>492.0</ele><time>2026-04-27T16:01:33.001Z</time></trkpt><trkpt lat="48.2235198919376" lon="11.630552426272564"><ele>494.0</ele><time>2026-04-27T16:01:34.001Z</time></trkpt><trkpt lat="48.22380130264494" lon="11.63069709794588"><ele>493.0</ele><time>2026-04-27T16:01:35.001Z</time></trkpt><trkpt lat="48.22408097665465" lon="11.630840106640797"><ele>492.0</ele><time>2026-04-27T16:01:36.001Z</time></trkpt><trkpt lat="48.22436632777202" lon="11.630987502347761"><ele>492.0</ele><time>2026-04-27T16:01:37.001Z</time></trkpt><trkpt lat="48.22464432943961" lon="11.631124679953878"><ele>492.0</ele><time>2026-04-27T16:01:38.001Z</time></trkpt><trkpt lat="48.22491949277275" lon="11.631259264184742"><ele>491.0</ele><time>2026-04-27T16:01:39.001Z</time></trkpt><trkpt lat="48.22519254812997" lon="11.631391103679542"><ele>490.0</ele><time>2026-04-27T16:01:40.001Z</time></trkpt><trkpt lat="48.225460150420744" lon="11.631525781336439"><ele>490.5</ele><time>2026-04-27T16:01:41.001Z</time></trkpt><trkpt lat="48.22572236994853" lon="11.631660767458722"><ele>491.0</ele><time>2026-04-27T16:01:42.001Z</time></trkpt><trkpt lat="48.22598359945609" lon="11.631793688611607"><ele>491.0</ele><time>2026-04-27T16:01:43.001Z</time></trkpt><trkpt lat="48.2262465311883" lon="11.63192867370246"><ele>491.0</ele><time>2026-04-27T16:01:44.001Z</time></trkpt><trkpt lat="48.22651123387968" lon="11.632063397059122"><ele>490.5</ele><time>2026-04-27T16:01:45.001Z</time></trkpt><trkpt lat="48.226776683538525" lon="11.632197067683016"><ele>490.0</ele><time>2026-04-27T16:01:46.001Z</time></trkpt><trkpt lat="48.22704493224239" lon="11.632329709056059"><ele>488.5</ele><time>2026-04-27T16:01:47.001Z</time></trkpt><trkpt lat="48.22731504388002" lon="11.632458833508437"><ele>487.0</ele><time>2026-04-27T16:01:48.001Z</time></trkpt><trkpt lat="48.22758141036351" lon="11.632587395690479"><ele>487.0</ele><time>2026-04-27T16:01:49.001Z</time></trkpt><trkpt lat="48.22784716525086" lon="11.632716507744616"><ele>487.0</ele><time>2026-04-27T16:01:50.001Z</time></trkpt><trkpt lat="48.228111301014444" lon="11.632847014277866"><ele>486.5</ele><time>2026-04-27T16:01:51.001Z</time></trkpt><trkpt lat="48.22837495883413" lon="11.632980470159422"><ele>486.0</ele><time>2026-04-27T16:01:52.001Z</time></trkpt><trkpt lat="48.228639075711506" lon="11.633119081457425"><ele>486.0</ele><time>2026-04-27T16:01:53.001Z</time></trkpt><trkpt lat="48.22890842067974" lon="11.633258753568445"><ele>486.0</ele><time>2026-04-27T16:01:54.001Z</time></trkpt><trkpt lat="48.22918156749358" lon="11.63339702738769"><ele>486.0</ele><time>2026-04-27T16:01:55.001Z</time></trkpt><trkpt lat="48.229453816027636" lon="11.63353248998562"><ele>486.0</ele><time>2026-04-27T16:01:56.001Z</time></trkpt><trkpt lat="48.22972474702363" lon="11.633665039584866"><ele>486.0</ele><time>2026-04-27T16:01:57.001Z</time></trkpt><trkpt lat="48.23000026405796" lon="11.633803144796822"><ele>486.0</ele><time>2026-04-27T16:01:58.001Z</time></trkpt><trkpt lat="48.23028065010662" lon="11.633945920161995"><ele>486.0</ele><time>2026-04-27T16:01:59.001Z</time></trkpt><trkpt lat="48.23056762195886" lon="11.634092454850125"><ele>486.0</ele><time>2026-04-27T16:02:00.001Z</time></trkpt><trkpt lat="48.230860324827184" lon="11.63423872283675"><ele>486.0</ele><time>2026-04-27T16:02:01.001Z</time></trkpt><trkpt lat="48.23115404720261" lon="11.634382625483104"><ele>486.0</ele><time>2026-04-27T16:02:02.001Z</time></trkpt><trkpt lat="48.231452654417915" lon="11.634528880253775"><ele>485.5</ele><time>2026-04-27T16:02:03.001Z</time></trkpt><trkpt lat="48.23175006006736" lon="11.63467628869231"><ele>485.0</ele><time>2026-04-27T16:02:04.001Z</time></trkpt><trkpt lat="48.23204456263347" lon="11.634824730088514"><ele>486.0</ele><time>2026-04-27T16:02:05.001Z</time></trkpt><trkpt lat="48.23233923081822" lon="11.634972159038934"><ele>487.0</ele><time>2026-04-27T16:02:06.001Z</time></trkpt><trkpt lat="48.23263545011451" lon="11.635116968580716"><ele>487.0</ele><time>2026-04-27T16:02:07.001Z</time></trkpt><trkpt lat="48.23294642604286" lon="11.635270220253986"><ele>487.0</ele><time>2026-04-27T16:02:08.001Z</time></trkpt><trkpt lat="48.23325478298826" lon="11.635425610891179"><ele>488.0</ele><time>2026-04-27T16:02:09.001Z</time></trkpt><trkpt lat="48.23355785659719" lon="11.635580377684187"><ele>489.0</ele><time>2026-04-27T16:02:10.001Z</time></trkpt><trkpt lat="48.23385799614676" lon="11.635730038505173"><ele>487.5</ele><time>2026-04-27T16:02:11.001Z</time></trkpt><trkpt lat="48.234160364961404" lon="11.63587865922945"><ele>486.0</ele><time>2026-04-27T16:02:12.001Z</time></trkpt><trkpt lat="48.23446359095475" lon="11.636038507919604"><ele>485.5</ele><time>2026-04-27T16:02:13.001Z</time></trkpt><trkpt lat="48.234768489344404" lon="11.636206378753807"><ele>485.0</ele><time>2026-04-27T16:02:14.001Z</time></trkpt><trkpt lat="48.23507422134408" lon="11.636374564769358"><ele>485.0</ele><time>2026-04-27T16:02:15.001Z</time></trkpt><trkpt lat="48.23538153064792" lon="11.636531066722126"><ele>485.0</ele><time>2026-04-27T16:02:16.001Z</time></trkpt><trkpt lat="48.235688928009324" lon="11.636686082705074"><ele>484.5</ele><time>2026-04-27T16:02:17.001Z</time></trkpt><trkpt lat="48.235997143517665" lon="11.636843048369686"><ele>484.0</ele><time>2026-04-27T16:02:18.001Z</time></trkpt><trkpt lat="48.23630857820282" lon="11.637003333591771"><ele>483.5</ele><time>2026-04-27T16:02:19.001Z</time></trkpt><trkpt lat="48.236622043124655" lon="11.637158820630452"><ele>483.0</ele><time>2026-04-27T16:02:20.001Z</time></trkpt><trkpt lat="48.23693152848064" lon="11.637311918951273"><ele>483.0</ele><time>2026-04-27T16:02:21.001Z</time></trkpt><trkpt lat="48.23723981517684" lon="11.637466162322461"><ele>483.0</ele><time>2026-04-27T16:02:22.001Z</time></trkpt><trkpt lat="48.23754646570044" lon="11.637623370044158"><ele>483.5</ele><time>2026-04-27T16:02:23.001Z</time></trkpt><trkpt lat="48.237849104165015" lon="11.63778016271486"><ele>484.0</ele><time>2026-04-27T16:02:24.001Z</time></trkpt><trkpt lat="48.23817634255161" lon="11.637948284246606"><ele>484.0</ele><time>2026-04-27T16:02:25.001Z</time></trkpt><trkpt lat="48.23852840661003" lon="11.638132824695473"><ele>484.0</ele><time>2026-04-27T16:02:26.001Z</time></trkpt><trkpt lat="48.23888934619801" lon="11.638316900941925"><ele>483.0</ele><time>2026-04-27T16:02:27.001Z</time></trkpt><trkpt lat="48.239226071888005" lon="11.638477413758968"><ele>482.0</ele><time>2026-04-27T16:02:28.001Z</time></trkpt><trkpt lat="48.23954432938589" lon="11.63862970650168"><ele>482.0</ele><time>2026-04-27T16:02:29.001Z</time></trkpt><trkpt lat="48.23986002263711" lon="11.63878555613593"><ele>482.0</ele><time>2026-04-27T16:02:30.001Z</time></trkpt><trkpt lat="48.24019602228307" lon="11.638953046654832"><ele>482.0</ele><time>2026-04-27T16:02:31.001Z</time></trkpt><trkpt lat="48.24053341462339" lon="11.639123459364"><ele>482.0</ele><time>2026-04-27T16:02:32.001Z</time></trkpt><trkpt lat="48.24085505589727" lon="11.639287708684536"><ele>482.0</ele><time>2026-04-27T16:02:33.001Z</time></trkpt><trkpt lat="48.2411630851956" lon="11.639439199674767"><ele>482.0</ele><time>2026-04-27T16:02:34.001Z</time></trkpt><trkpt lat="48.241468468293995" lon="11.639590073172043"><ele>482.0</ele><time>2026-04-27T16:02:35.001Z</time></trkpt><trkpt lat="48.24176725112242" lon="11.639744175968445"><ele>482.0</ele><time>2026-04-27T16:02:36.001Z</time></trkpt><trkpt lat="48.242060718196306" lon="11.63989324561927"><ele>482.0</ele><time>2026-04-27T16:02:37.001Z</time></trkpt><trkpt lat="48.24234732779715" lon="11.640037719392337"><ele>482.0</ele><time>2026-04-27T16:02:38.001Z</time></trkpt><trkpt lat="48.242626305811115" lon="11.640177407089107"><ele>483.0</ele><time>2026-04-27T16:02:39.001Z</time></trkpt><trkpt lat="48.242913832659205" lon="11.640322138739952"><ele>484.0</ele><time>2026-04-27T16:02:40.001Z</time></trkpt><trkpt lat="48.243207262016774" lon="11.640466590866762"><ele>485.5</ele><time>2026-04-27T16:02:41.001Z</time></trkpt><trkpt lat="48.243496299447926" lon="11.640608831387661"><ele>487.0</ele><time>2026-04-27T16:02:42.001Z</time></trkpt><trkpt lat="48.24378758768585" lon="11.640755579781372"><ele>487.0</ele><time>2026-04-27T16:02:43.001Z</time></trkpt><trkpt lat="48.244083030559715" lon="11.64090776398605"><ele>487.0</ele><time>2026-04-27T16:02:44.001Z</time></trkpt><trkpt lat="48.24437395239835" lon="11.641058049892543"><ele>485.5</ele><time>2026-04-27T16:02:45.001Z</time></trkpt><trkpt lat="48.24466577442103" lon="11.641207763041281"><ele>484.0</ele><time>2026-04-27T16:02:46.001Z</time></trkpt><trkpt lat="48.24495867445645" lon="11.641355937474989"><ele>483.0</ele><time>2026-04-27T16:02:47.001Z</time></trkpt><trkpt lat="48.24524962895028" lon="11.641500567134782"><ele>482.0</ele><time>2026-04-27T16:02:48.001Z</time></trkpt><trkpt lat="48.24554306398421" lon="11.64164550609034"><ele>483.0</ele><time>2026-04-27T16:02:49.001Z</time></trkpt><trkpt lat="48.245840389110334" lon="11.641787860121982"><ele>484.0</ele><time>2026-04-27T16:02:50.001Z</time></trkpt><trkpt lat="48.2461648717368" lon="11.641928504601585"><ele>483.0</ele><time>2026-04-27T16:02:51.001Z</time></trkpt><trkpt lat="48.24648696596678" lon="11.642076095881967"><ele>482.0</ele><time>2026-04-27T16:02:52.001Z</time></trkpt><trkpt lat="48.24680485755499" lon="11.642236782067123"><ele>482.0</ele><time>2026-04-27T16:02:53.001Z</time></trkpt><trkpt lat="48.2471328261284" lon="11.642406463802573"><ele>482.0</ele><time>2026-04-27T16:02:54.001Z</time></trkpt><trkpt lat="48.24743877408466" lon="11.64256374734499"><ele>482.5</ele><time>2026-04-27T16:02:55.001Z</time></trkpt><trkpt lat="48.24774968807862" lon="11.642718584372666"><ele>483.0</ele><time>2026-04-27T16:02:56.001Z</time></trkpt><trkpt lat="48.248069956978064" lon="11.642876525821707"><ele>483.0</ele><time>2026-04-27T16:02:57.001Z</time></trkpt><trkpt lat="48.24839323578014" lon="11.643039347606196"><ele>483.0</ele><time>2026-04-27T16:02:58.001Z</time></trkpt><trkpt lat="48.248723357184375" lon="11.643207657079312"><ele>484.0</ele><time>2026-04-27T16:02:59.001Z</time></trkpt><trkpt lat="48.249061988101175" lon="11.643377191911322"><ele>485.0</ele><time>2026-04-27T16:03:00.001Z</time></trkpt><trkpt lat="48.24938995734311" lon="11.64353848412667"><ele>484.5</ele><time>2026-04-27T16:03:01.001Z</time></trkpt><trkpt lat="48.249712312456396" lon="11.643696573777728"><ele>484.0</ele><time>2026-04-27T16:03:02.001Z</time></trkpt><trkpt lat="48.25003487940538" lon="11.643851713788669"><ele>484.0</ele><time>2026-04-27T16:03:03.001Z</time></trkpt><trkpt lat="48.250358981935015" lon="11.644012042373344"><ele>484.0</ele><time>2026-04-27T16:03:04.001Z</time></trkpt><trkpt lat="48.250688395568794" lon="11.644176867080038"><ele>484.5</ele><time>2026-04-27T16:03:05.001Z</time></trkpt><trkpt lat="48.25101862446703" lon="11.644346842695963"><ele>485.0</ele><time>2026-04-27T16:03:06.001Z</time></trkpt><trkpt lat="48.25134615411172" lon="11.644513655494023"><ele>485.5</ele><time>2026-04-27T16:03:07.001Z</time></trkpt><trkpt lat="48.25168149280875" lon="11.64467979360224"><ele>486.0</ele><time>2026-04-27T16:03:08.001Z</time></trkpt><trkpt lat="48.25201823247169" lon="11.644847777798486"><ele>484.5</ele><time>2026-04-27T16:03:09.001Z</time></trkpt><trkpt lat="48.25235457068796" lon="11.645016299108194"><ele>483.0</ele><time>2026-04-27T16:03:10.001Z</time></trkpt><trkpt lat="48.252692682959406" lon="11.645187942796424"><ele>483.0</ele><time>2026-04-27T16:03:11.001Z</time></trkpt><trkpt lat="48.253029317245016" lon="11.645360535990747"><ele>483.0</ele><time>2026-04-27T16:03:12.001Z</time></trkpt><trkpt lat="48.2533665620157" lon="11.645533057478376"><ele>482.5</ele><time>2026-04-27T16:03:13.001Z</time></trkpt><trkpt lat="48.25370484561542" lon="11.645703282450832"><ele>482.0</ele><time>2026-04-27T16:03:14.001Z</time></trkpt><trkpt lat="48.2540457472777" lon="11.645870554604553"><ele>482.0</ele><time>2026-04-27T16:03:15.001Z</time></trkpt><trkpt lat="48.25439324299853" lon="11.646036729172806"><ele>482.0</ele><time>2026-04-27T16:03:16.001Z</time></trkpt><trkpt lat="48.25477127033219" lon="11.64621035759804"><ele>482.5</ele><time>2026-04-27T16:03:17.001Z</time></trkpt><trkpt lat="48.25515471764461" lon="11.646375402557707"><ele>483.0</ele><time>2026-04-27T16:03:18.001Z</time></trkpt><trkpt lat="48.255539942836414" lon="11.646521329908886"><ele>482.5</ele><time>2026-04-27T16:03:19.001Z</time></trkpt><trkpt lat="48.25591640625796" lon="11.646653260674416"><ele>482.0</ele><time>2026-04-27T16:03:20.001Z</time></trkpt><trkpt lat="48.256293001050494" lon="11.64677419421131"><ele>480.0</ele><time>2026-04-27T16:03:21.001Z</time></trkpt><trkpt lat="48.2566679389413" lon="11.64687971185962"><ele>478.0</ele><time>2026-04-27T16:03:22.001Z</time></trkpt><trkpt lat="48.25704806811093" lon="11.646975822467065"><ele>477.5</ele><time>2026-04-27T16:03:23.001Z</time></trkpt><trkpt lat="48.257414242552336" lon="11.647055731029598"><ele>477.0</ele><time>2026-04-27T16:03:24.001Z</time></trkpt><trkpt lat="48.257765864785554" lon="11.647119540842011"><ele>477.0</ele><time>2026-04-27T16:03:25.001Z</time></trkpt><trkpt lat="48.258121457933136" lon="11.647175585334622"><ele>477.0</ele><time>2026-04-27T16:03:26.001Z</time></trkpt><trkpt lat="48.258470217288455" lon="11.647223255721384"><ele>477.0</ele><time>2026-04-27T16:03:27.001Z</time></trkpt><trkpt lat="48.25881193128883" lon="11.647264248426927"><ele>477.0</ele><time>2026-04-27T16:03:28.001Z</time></trkpt><trkpt lat="48.25915197256209" lon="11.64729314057474"><ele>477.5</ele><time>2026-04-27T16:03:29.001Z</time></trkpt><trkpt lat="48.2594882842245" lon="11.647309189340593"><ele>478.0</ele><time>2026-04-27T16:03:30.001Z</time></trkpt><trkpt lat="48.25980588244661" lon="11.647315260638742"><ele>478.0</ele><time>2026-04-27T16:03:31.001Z</time></trkpt><trkpt lat="48.26013288298879" lon="11.647314562530555"><ele>478.0</ele><time>2026-04-27T16:03:32.001Z</time></trkpt><trkpt lat="48.26046542413914" lon="11.647301748538586"><ele>476.5</ele><time>2026-04-27T16:03:33.001Z</time></trkpt><trkpt lat="48.26079009587187" lon="11.647279230401384"><ele>475.0</ele><time>2026-04-27T16:03:34.001Z</time></trkpt><trkpt lat="48.26110929328755" lon="11.647245783395807"><ele>475.0</ele><time>2026-04-27T16:03:35.001Z</time></trkpt><trkpt lat="48.261426941524654" lon="11.647202011588826"><ele>475.0</ele><time>2026-04-27T16:03:36.001Z</time></trkpt><trkpt lat="48.26175186191032" lon="11.647154930989444"><ele>475.0</ele><time>2026-04-27T16:03:37.001Z</time></trkpt><trkpt lat="48.26207607115937" lon="11.647105710932532"><ele>475.0</ele><time>2026-04-27T16:03:38.001Z</time></trkpt><trkpt lat="48.262405471244854" lon="11.647043628140215"><ele>475.0</ele><time>2026-04-27T16:03:39.001Z</time></trkpt><trkpt lat="48.26273703415877" lon="11.646969645738325"><ele>475.0</ele><time>2026-04-27T16:03:40.001Z</time></trkpt><trkpt lat="48.26306691714637" lon="11.646883578000832"><ele>477.0</ele><time>2026-04-27T16:03:41.001Z</time></trkpt><trkpt lat="48.2633916533285" lon="11.646787226688904"><ele>479.0</ele><time>2026-04-27T16:03:42.001Z</time></trkpt><trkpt lat="48.26370824714133" lon="11.646688650603739"><ele>479.5</ele><time>2026-04-27T16:03:43.001Z</time></trkpt><trkpt lat="48.26402958914993" lon="11.646583507401418"><ele>480.0</ele><time>2026-04-27T16:03:44.001Z</time></trkpt><trkpt lat="48.26436000874745" lon="11.6464642992909"><ele>480.0</ele><time>2026-04-27T16:03:45.001Z</time></trkpt><trkpt lat="48.26468361375044" lon="11.646351190021562"><ele>480.0</ele><time>2026-04-27T16:03:46.001Z</time></trkpt><trkpt lat="48.26500555069902" lon="11.646246083500586"><ele>478.5</ele><time>2026-04-27T16:03:47.001Z</time></trkpt><trkpt lat="48.26533731448447" lon="11.646137063102056"><ele>477.0</ele><time>2026-04-27T16:03:48.001Z</time></trkpt><trkpt lat="48.265655210423326" lon="11.64603060023882"><ele>477.0</ele><time>2026-04-27T16:03:49.001Z</time></trkpt><trkpt lat="48.265969238753534" lon="11.645924282117644"><ele>477.0</ele><time>2026-04-27T16:03:50.001Z</time></trkpt><trkpt lat="48.26628141057351" lon="11.645819370214257"><ele>476.5</ele><time>2026-04-27T16:03:51.001Z</time></trkpt><trkpt lat="48.26658131827321" lon="11.64571616254306"><ele>476.0</ele><time>2026-04-27T16:03:52.001Z</time></trkpt><trkpt lat="48.266887448072055" lon="11.645610659506524"><ele>476.0</ele><time>2026-04-27T16:03:53.001Z</time></trkpt><trkpt lat="48.26720490231367" lon="11.645504485694069"><ele>476.0</ele><time>2026-04-27T16:03:54.001Z</time></trkpt><trkpt lat="48.26751886869612" lon="11.645400774327552"><ele>475.0</ele><time>2026-04-27T16:03:55.001Z</time></trkpt><trkpt lat="48.267825638902785" lon="11.645299745520047"><ele>474.0</ele><time>2026-04-27T16:03:56.001Z</time></trkpt><trkpt lat="48.26812204890105" lon="11.645201133862535"><ele>474.0</ele><time>2026-04-27T16:03:57.001Z</time></trkpt><trkpt lat="48.26841860430841" lon="11.64510008617205"><ele>474.0</ele><time>2026-04-27T16:03:58.001Z</time></trkpt><trkpt lat="48.26871822983822" lon="11.644996996057591"><ele>475.0</ele><time>2026-04-27T16:03:59.001Z</time></trkpt><trkpt lat="48.26901486353395" lon="11.644895833128617"><ele>476.0</ele><time>2026-04-27T16:04:00.001Z</time></trkpt><trkpt lat="48.26930467903626" lon="11.644797512744496"><ele>476.0</ele><time>2026-04-27T16:04:01.001Z</time></trkpt><trkpt lat="48.26959141720103" lon="11.6447032367002"><ele>476.0</ele><time>2026-04-27T16:04:02.001Z</time></trkpt><trkpt lat="48.26987463027705" lon="11.644610483738258"><ele>475.5</ele><time>2026-04-27T16:04:03.001Z</time></trkpt><trkpt lat="48.2701558770002" lon="11.644518689440977"><ele>475.0</ele><time>2026-04-27T16:04:04.001Z</time></trkpt><trkpt lat="48.2704373673278" lon="11.644423471259964"><ele>474.5</ele><time>2026-04-27T16:04:05.001Z</time></trkpt><trkpt lat="48.27071633178871" lon="11.644326756532012"><ele>474.0</ele><time>2026-04-27T16:04:06.001Z</time></trkpt><trkpt lat="48.271001072736965" lon="11.644229216947721"><ele>474.0</ele><time>2026-04-27T16:04:07.001Z</time></trkpt><trkpt lat="48.271287056219144" lon="11.644134440723787"><ele>474.0</ele><time>2026-04-27T16:04:08.001Z</time></trkpt><trkpt lat="48.271579321185904" lon="11.64403660877108"><ele>473.5</ele><time>2026-04-27T16:04:09.001Z</time></trkpt><trkpt lat="48.271884591635256" lon="11.643934782444246"><ele>473.0</ele><time>2026-04-27T16:04:10.001Z</time></trkpt><trkpt lat="48.27219799857828" lon="11.643828477892145"><ele>472.5</ele><time>2026-04-27T16:04:11.001Z</time></trkpt><trkpt lat="48.272501879176545" lon="11.643724090655432"><ele>472.0</ele><time>2026-04-27T16:04:12.001Z</time></trkpt><trkpt lat="48.2727985809569" lon="11.643622650467375"><ele>472.0</ele><time>2026-04-27T16:04:13.001Z</time></trkpt><trkpt lat="48.27310204449184" lon="11.643518595950459"><ele>472.0</ele><time>2026-04-27T16:04:14.001Z</time></trkpt><trkpt lat="48.27339957024238" lon="11.64341825720704"><ele>471.5</ele><time>2026-04-27T16:04:15.001Z</time></trkpt><trkpt lat="48.27369612451794" lon="11.643317271294013"><ele>471.0</ele><time>2026-04-27T16:04:16.001Z</time></trkpt><trkpt lat="48.27397942055508" lon="11.643222132819433"><ele>472.0</ele><time>2026-04-27T16:04:17.001Z</time></trkpt><trkpt lat="48.27427682736825" lon="11.64311927818496"><ele>473.0</ele><time>2026-04-27T16:04:18.001Z</time></trkpt><trkpt lat="48.274576852647904" lon="11.643013073253178"><ele>473.0</ele><time>2026-04-27T16:04:19.001Z</time></trkpt><trkpt lat="48.27487800070931" lon="11.642909565339375"><ele>473.0</ele><time>2026-04-27T16:04:20.001Z</time></trkpt><trkpt lat="48.27518159824177" lon="11.642805956175874"><ele>473.5</ele><time>2026-04-27T16:04:21.001Z</time></trkpt><trkpt lat="48.27549335856085" lon="11.642699039605736"><ele>474.0</ele><time>2026-04-27T16:04:22.001Z</time></trkpt><trkpt lat="48.27581117589804" lon="11.642593779491369"><ele>474.0</ele><time>2026-04-27T16:04:23.001Z</time></trkpt><trkpt lat="48.276131385689425" lon="11.642487988759738"><ele>474.0</ele><time>2026-04-27T16:04:24.001Z</time></trkpt><trkpt lat="48.276449135205446" lon="11.642383736164888"><ele>474.0</ele><time>2026-04-27T16:04:25.001Z</time></trkpt><trkpt lat="48.27676540644356" lon="11.642278901281449"><ele>474.0</ele><time>2026-04-27T16:04:26.001Z</time></trkpt><trkpt lat="48.27708353916726" lon="11.642170393763402"><ele>474.0</ele><time>2026-04-27T16:04:27.001Z</time></trkpt><trkpt lat="48.277400559519954" lon="11.64205988046223"><ele>474.0</ele><time>2026-04-27T16:04:28.001Z</time></trkpt><trkpt lat="48.27771869320602" lon="11.641953980050687"><ele>474.0</ele><time>2026-04-27T16:04:29.001Z</time></trkpt><trkpt lat="48.27803340483685" lon="11.641849878551694"><ele>474.0</ele><time>2026-04-27T16:04:30.001Z</time></trkpt><trkpt lat="48.278350933760365" lon="11.641743756490499"><ele>474.0</ele><time>2026-04-27T16:04:31.001Z</time></trkpt><trkpt lat="48.27867483071186" lon="11.641631342446239"><ele>474.0</ele><time>2026-04-27T16:04:32.001Z</time></trkpt><trkpt lat="48.27900550442764" lon="11.641523739528301"><ele>473.5</ele><time>2026-04-27T16:04:33.001Z</time></trkpt><trkpt lat="48.27935378664667" lon="11.641420060846182"><ele>473.0</ele><time>2026-04-27T16:04:34.001Z</time></trkpt><trkpt lat="48.27968853371735" lon="11.641316888190834"><ele>472.5</ele><time>2026-04-27T16:04:35.001Z</time></trkpt><trkpt lat="48.28002136625765" lon="11.641205476038442"><ele>472.0</ele><time>2026-04-27T16:04:36.001Z</time></trkpt><trkpt lat="48.280354221639705" lon="11.641093033279166"><ele>471.5</ele><time>2026-04-27T16:04:37.001Z</time></trkpt><trkpt lat="48.28068312631706" lon="11.640983265635569"><ele>471.0</ele><time>2026-04-27T16:04:38.001Z</time></trkpt><trkpt lat="48.28100671975028" lon="11.640870105230922"><ele>471.0</ele><time>2026-04-27T16:04:39.001Z</time></trkpt><trkpt lat="48.28132260122345" lon="11.6407525392223"><ele>471.0</ele><time>2026-04-27T16:04:40.001Z</time></trkpt><trkpt lat="48.28165308238068" lon="11.64061564775828"><ele>471.0</ele><time>2026-04-27T16:04:41.001Z</time></trkpt><trkpt lat="48.282006696724785" lon="11.640452373353986"><ele>471.0</ele><time>2026-04-27T16:04:42.001Z</time></trkpt><trkpt lat="48.282381758646224" lon="11.640277697746624"><ele>470.5</ele><time>2026-04-27T16:04:43.001Z</time></trkpt><trkpt lat="48.282775388577136" lon="11.640100473933142"><ele>470.0</ele><time>2026-04-27T16:04:44.001Z</time></trkpt><trkpt lat="48.283167867888814" lon="11.63992414634441"><ele>469.5</ele><time>2026-04-27T16:04:45.001Z</time></trkpt><trkpt lat="48.28352726457652" lon="11.639764851725776"><ele>469.0</ele><time>2026-04-27T16:04:46.001Z</time></trkpt><trkpt lat="48.2838675136711" lon="11.639609300776236"><ele>470.0</ele><time>2026-04-27T16:04:47.001Z</time></trkpt><trkpt lat="48.28419908053043" lon="11.639450748790543"><ele>471.0</ele><time>2026-04-27T16:04:48.001Z</time></trkpt><trkpt lat="48.28453638370862" lon="11.639284672155378"><ele>469.5</ele><time>2026-04-27T16:04:49.001Z</time></trkpt><trkpt lat="48.284877103157235" lon="11.639113000526054"><ele>468.0</ele><time>2026-04-27T16:04:50.001Z</time></trkpt><trkpt lat="48.28522151568253" lon="11.638933423991874"><ele>468.0</ele><time>2026-04-27T16:04:51.001Z</time></trkpt><trkpt lat="48.285578903442286" lon="11.638747531027446"><ele>468.0</ele><time>2026-04-27T16:04:52.001Z</time></trkpt><trkpt lat="48.285936174794315" lon="11.638564231750394"><ele>468.5</ele><time>2026-04-27T16:04:53.001Z</time></trkpt><trkpt lat="48.286294316676496" lon="11.63837977355428"><ele>469.0</ele><time>2026-04-27T16:04:54.001Z</time></trkpt><trkpt lat="48.28667574020749" lon="11.63817914992471"><ele>469.0</ele><time>2026-04-27T16:04:55.001Z</time></trkpt><trkpt lat="48.28706983340308" lon="11.637964159352995"><ele>469.0</ele><time>2026-04-27T16:04:56.001Z</time></trkpt><trkpt lat="48.287466023730744" lon="11.637730837431338"><ele>469.0</ele><time>2026-04-27T16:04:57.001Z</time></trkpt><trkpt lat="48.28783610240223" lon="11.637507276699742"><ele>469.0</ele><time>2026-04-27T16:04:58.001Z</time></trkpt><trkpt lat="48.288231710415516" lon="11.63733331754939"><ele>469.0</ele><time>2026-04-27T16:04:59.001Z</time></trkpt><trkpt lat="48.28860735242166" lon="11.637132627368654"><ele>469.0</ele><time>2026-04-27T16:05:00.001Z</time></trkpt><trkpt lat="48.28897748845255" lon="11.636936822956075"><ele>469.0</ele><time>2026-04-27T16:05:01.001Z</time></trkpt><trkpt lat="48.2893470118167" lon="11.636743166792275"><ele>469.0</ele><time>2026-04-27T16:05:02.001Z</time></trkpt><trkpt lat="48.289715600886346" lon="11.636553029210901"><ele>469.5</ele><time>2026-04-27T16:05:03.001Z</time></trkpt><trkpt lat="48.29008280739768" lon="11.636367946248757"><ele>470.0</ele><time>2026-04-27T16:05:04.001Z</time></trkpt><trkpt lat="48.29045030031769" lon="11.636186719256992"><ele>469.0</ele><time>2026-04-27T16:05:05.001Z</time></trkpt><trkpt lat="48.29081304255377" lon="11.63601348795145"><ele>468.0</ele><time>2026-04-27T16:05:06.001Z</time></trkpt><trkpt lat="48.29115830299957" lon="11.6358521565896"><ele>468.0</ele><time>2026-04-27T16:05:07.001Z</time></trkpt><trkpt lat="48.29150282399694" lon="11.635685239406337"><ele>468.0</ele><time>2026-04-27T16:05:08.001Z</time></trkpt><trkpt lat="48.29184208303158" lon="11.635515821433165"><ele>468.0</ele><time>2026-04-27T16:05:09.001Z</time></trkpt><trkpt lat="48.29216228971103" lon="11.635350760379328"><ele>468.0</ele><time>2026-04-27T16:05:10.001Z</time></trkpt><trkpt lat="48.292471857931424" lon="11.63518678129402"><ele>468.0</ele><time>2026-04-27T16:05:11.001Z</time></trkpt><trkpt lat="48.29278120742482" lon="11.635023127897968"><ele>468.0</ele><time>2026-04-27T16:05:12.001Z</time></trkpt><trkpt lat="48.293091039714206" lon="11.634862484574631"><ele>468.0</ele><time>2026-04-27T16:05:13.001Z</time></trkpt><trkpt lat="48.29340479420945" lon="11.634699754351645"><ele>468.0</ele><time>2026-04-27T16:05:14.001Z</time></trkpt><trkpt lat="48.29372672737494" lon="11.634529560290053"><ele>468.0</ele><time>2026-04-27T16:05:15.001Z</time></trkpt><trkpt lat="48.29405260953553" lon="11.63435330755252"><ele>468.0</ele><time>2026-04-27T16:05:16.001Z</time></trkpt><trkpt lat="48.29436506578121" lon="11.634182677789664"><ele>468.0</ele><time>2026-04-27T16:05:17.001Z</time></trkpt><trkpt lat="48.294676464669806" lon="11.634015467348352"><ele>468.0</ele><time>2026-04-27T16:05:18.001Z</time></trkpt><trkpt lat="48.2949914596675" lon="11.633852697297623"><ele>468.5</ele><time>2026-04-27T16:05:19.001Z</time></trkpt><trkpt lat="48.29530642321582" lon="11.63368634614208"><ele>469.0</ele><time>2026-04-27T16:05:20.001Z</time></trkpt><trkpt lat="48.29563228985148" lon="11.63350566692175"><ele>469.0</ele><time>2026-04-27T16:05:21.001Z</time></trkpt><trkpt lat="48.2959508579768" lon="11.63332736619588"><ele>469.0</ele><time>2026-04-27T16:05:22.001Z</time></trkpt><trkpt lat="48.29625698082166" lon="11.633153112057949"><ele>468.0</ele><time>2026-04-27T16:05:23.001Z</time></trkpt><trkpt lat="48.296557821357915" lon="11.632979594911095"><ele>467.0</ele><time>2026-04-27T16:05:24.001Z</time></trkpt><trkpt lat="48.29684042884596" lon="11.63281351305855"><ele>467.0</ele><time>2026-04-27T16:05:25.001Z</time></trkpt><trkpt lat="48.297120621078804" lon="11.632646978806633"><ele>467.0</ele><time>2026-04-27T16:05:26.001Z</time></trkpt><trkpt lat="48.29739871371732" lon="11.632483850677485"><ele>467.0</ele><time>2026-04-27T16:05:27.001Z</time></trkpt><trkpt lat="48.2976800386217" lon="11.632324200431345"><ele>467.0</ele><time>2026-04-27T16:05:28.001Z</time></trkpt><trkpt lat="48.29797542284649" lon="11.632171900079674"><ele>466.0</ele><time>2026-04-27T16:05:29.001Z</time></trkpt><trkpt lat="48.298279293813124" lon="11.632021459234613"><ele>465.0</ele><time>2026-04-27T16:05:30.001Z</time></trkpt><trkpt lat="48.298567795959976" lon="11.63186777389284"><ele>467.0</ele><time>2026-04-27T16:05:31.001Z</time></trkpt><trkpt lat="48.29884892246979" lon="11.631703739640727"><ele>469.0</ele><time>2026-04-27T16:05:32.001Z</time></trkpt><trkpt lat="48.29911257766518" lon="11.631547871545296"><ele>469.0</ele><time>2026-04-27T16:05:33.001Z</time></trkpt><trkpt lat="48.29937842887126" lon="11.631394175392948"><ele>469.0</ele><time>2026-04-27T16:05:34.001Z</time></trkpt><trkpt lat="48.29965070751738" lon="11.631235624843574"><ele>469.0</ele><time>2026-04-27T16:05:35.001Z</time></trkpt><trkpt lat="48.29991312769925" lon="11.631080158701888"><ele>469.0</ele><time>2026-04-27T16:05:36.001Z</time></trkpt><trkpt lat="48.300171997862165" lon="11.63092706837592"><ele>469.0</ele><time>2026-04-27T16:05:37.001Z</time></trkpt><trkpt lat="48.30043877877082" lon="11.630776867626661"><ele>469.0</ele><time>2026-04-27T16:05:38.001Z</time></trkpt><trkpt lat="48.30072965547854" lon="11.630618297472463"><ele>468.0</ele><time>2026-04-27T16:05:39.001Z</time></trkpt><trkpt lat="48.30103217948768" lon="11.630456712477486"><ele>467.0</ele><time>2026-04-27T16:05:40.001Z</time></trkpt><trkpt lat="48.301347188692326" lon="11.630286651042992"><ele>465.5</ele><time>2026-04-27T16:05:41.001Z</time></trkpt><trkpt lat="48.3016685869916" lon="11.630100099504926"><ele>464.0</ele><time>2026-04-27T16:05:42.001Z</time></trkpt><trkpt lat="48.301991669142026" lon="11.629906301704276"><ele>463.5</ele><time>2026-04-27T16:05:43.001Z</time></trkpt><trkpt lat="48.30232120222722" lon="11.62971331404778"><ele>463.0</ele><time>2026-04-27T16:05:44.001Z</time></trkpt><trkpt lat="48.302644844827775" lon="11.629524290417095"><ele>463.5</ele><time>2026-04-27T16:05:45.001Z</time></trkpt><trkpt lat="48.30298349698414" lon="11.629326717169139"><ele>464.0</ele><time>2026-04-27T16:05:46.001Z</time></trkpt><trkpt lat="48.303321945447834" lon="11.62913012002242"><ele>464.0</ele><time>2026-04-27T16:05:47.001Z</time></trkpt><trkpt lat="48.30365920713996" lon="11.628930956383677"><ele>464.0</ele><time>2026-04-27T16:05:48.001Z</time></trkpt><trkpt lat="48.30397812516796" lon="11.628742385808074"><ele>466.5</ele><time>2026-04-27T16:05:49.001Z</time></trkpt><trkpt lat="48.304286864344405" lon="11.628559045766563"><ele>469.0</ele><time>2026-04-27T16:05:50.001Z</time></trkpt><trkpt lat="48.304594564066996" lon="11.628378000781948"><ele>468.0</ele><time>2026-04-27T16:05:51.001Z</time></trkpt><trkpt lat="48.304894642903534" lon="11.628204126842867"><ele>467.0</ele><time>2026-04-27T16:05:52.001Z</time></trkpt><trkpt lat="48.305185575808935" lon="11.62803460406243"><ele>467.0</ele><time>2026-04-27T16:05:53.001Z</time></trkpt><trkpt lat="48.30547611656974" lon="11.62786238892124"><ele>467.0</ele><time>2026-04-27T16:05:54.001Z</time></trkpt><trkpt lat="48.30577472874416" lon="11.627686878719642"><ele>466.0</ele><time>2026-04-27T16:05:55.001Z</time></trkpt><trkpt lat="48.306085141537565" lon="11.627506811828942"><ele>465.0</ele><time>2026-04-27T16:05:56.001Z</time></trkpt><trkpt lat="48.306390432200885" lon="11.627326760877473"><ele>465.0</ele><time>2026-04-27T16:05:57.001Z</time></trkpt><trkpt lat="48.30668441235128" lon="11.627148705953152"><ele>465.0</ele><time>2026-04-27T16:05:58.001Z</time></trkpt><trkpt lat="48.3069780937737" lon="11.626972214342823"><ele>467.0</ele><time>2026-04-27T16:05:59.001Z</time></trkpt><trkpt lat="48.3072722009156" lon="11.626799334526467"><ele>469.0</ele><time>2026-04-27T16:06:00.001Z</time></trkpt><trkpt lat="48.30755433374234" lon="11.626637205348938"><ele>469.0</ele><time>2026-04-27T16:06:01.001Z</time></trkpt><trkpt lat="48.30782199181154" lon="11.626484391663848"><ele>469.0</ele><time>2026-04-27T16:06:02.001Z</time></trkpt><trkpt lat="48.30809341299053" lon="11.62632627786825"><ele>469.0</ele><time>2026-04-27T16:06:03.001Z</time></trkpt><trkpt lat="48.30838058551332" lon="11.626153905674283"><ele>469.0</ele><time>2026-04-27T16:06:04.001Z</time></trkpt><trkpt lat="48.3086575598396" lon="11.625979982164669"><ele>468.0</ele><time>2026-04-27T16:06:05.001Z</time></trkpt><trkpt lat="48.30892991776106" lon="11.625802540736988"><ele>467.0</ele><time>2026-04-27T16:06:06.001Z</time></trkpt><trkpt lat="48.309189038265835" lon="11.625630076971701"><ele>467.0</ele><time>2026-04-27T16:06:07.001Z</time></trkpt><trkpt lat="48.30944997336346" lon="11.625452073978328"><ele>467.0</ele><time>2026-04-27T16:06:08.001Z</time></trkpt><trkpt lat="48.309707972162144" lon="11.625267279478"><ele>466.5</ele><time>2026-04-27T16:06:09.001Z</time></trkpt><trkpt lat="48.30996452167999" lon="11.625090986271575"><ele>466.0</ele><time>2026-04-27T16:06:10.001Z</time></trkpt><trkpt lat="48.31021791393505" lon="11.624931179761075"><ele>466.0</ele><time>2026-04-27T16:06:11.001Z</time></trkpt><trkpt lat="48.310470496635205" lon="11.624778280790222"><ele>466.0</ele><time>2026-04-27T16:06:12.001Z</time></trkpt><trkpt lat="48.31071681143722" lon="11.624636830249623"><ele>465.5</ele><time>2026-04-27T16:06:13.001Z</time></trkpt><trkpt lat="48.31096837296933" lon="11.624502322828544"><ele>465.0</ele><time>2026-04-27T16:06:14.001Z</time></trkpt><trkpt lat="48.31122614087295" lon="11.624374526068626"><ele>466.0</ele><time>2026-04-27T16:06:15.001Z</time></trkpt><trkpt lat="48.31146887632752" lon="11.62422796221445"><ele>467.0</ele><time>2026-04-27T16:06:16.001Z</time></trkpt><trkpt lat="48.31169705773697" lon="11.624056319722927"><ele>467.0</ele><time>2026-04-27T16:06:17.001Z</time></trkpt><trkpt lat="48.311921985930766" lon="11.623876356506411"><ele>467.0</ele><time>2026-04-27T16:06:18.001Z</time></trkpt><trkpt lat="48.31220924836548" lon="11.623771551747861"><ele>465.5</ele><time>2026-04-27T16:06:19.001Z</time></trkpt><trkpt lat="48.312463212675375" lon="11.623630945744477"><ele>464.0</ele><time>2026-04-27T16:06:20.001Z</time></trkpt><trkpt lat="48.312720861835196" lon="11.623480664221216"><ele>464.0</ele><time>2026-04-27T16:06:21.001Z</time></trkpt><trkpt lat="48.31296344967618" lon="11.623349545161426"><ele>464.0</ele><time>2026-04-27T16:06:22.001Z</time></trkpt><trkpt lat="48.31319618787558" lon="11.623235520516305"><ele>462.5</ele><time>2026-04-27T16:06:23.001Z</time></trkpt><trkpt lat="48.31342957195358" lon="11.62313517712423"><ele>461.0</ele><time>2026-04-27T16:06:24.001Z</time></trkpt><trkpt lat="48.31366386989647" lon="11.623053502877458"><ele>461.0</ele><time>2026-04-27T16:06:25.001Z</time></trkpt><trkpt lat="48.31390369063985" lon="11.622991698806095"><ele>461.0</ele><time>2026-04-27T16:06:26.001Z</time></trkpt><trkpt lat="48.31415565515497" lon="11.622954404294367"><ele>460.5</ele><time>2026-04-27T16:06:27.001Z</time></trkpt><trkpt lat="48.31441947685151" lon="11.622944455550366"><ele>460.0</ele><time>2026-04-27T16:06:28.001Z</time></trkpt><trkpt lat="48.31466325037259" lon="11.622950333496638"><ele>461.0</ele><time>2026-04-27T16:06:29.001Z</time></trkpt><trkpt lat="48.31489301070527" lon="11.622979992750103"><ele>462.0</ele><time>2026-04-27T16:06:30.001Z</time></trkpt><trkpt lat="48.31510517304254" lon="11.623029650436807"><ele>463.0</ele><time>2026-04-27T16:06:31.001Z</time></trkpt><trkpt lat="48.31530179125318" lon="11.623093754160909"><ele>463.0</ele><time>2026-04-27T16:06:32.001Z</time></trkpt><trkpt lat="48.31551778540463" lon="11.623174120156843"><ele>463.0</ele><time>2026-04-27T16:06:33.001Z</time></trkpt><trkpt lat="48.31574341173" lon="11.62327234480779"><ele>463.0</ele><time>2026-04-27T16:06:34.001Z</time></trkpt><trkpt lat="48.31596280149344" lon="11.623378033262128"><ele>463.0</ele><time>2026-04-27T16:06:35.001Z</time></trkpt><trkpt lat="48.31617745738671" lon="11.623491958255553"><ele>463.0</ele><time>2026-04-27T16:06:36.001Z</time></trkpt><trkpt lat="48.31638606084163" lon="11.623613485075058"><ele>463.0</ele><time>2026-04-27T16:06:37.001Z</time></trkpt><trkpt lat="48.31659073725896" lon="11.623749676268108"><ele>463.0</ele><time>2026-04-27T16:06:38.001Z</time></trkpt><trkpt lat="48.31679031305527" lon="11.623897673781435"><ele>462.0</ele><time>2026-04-27T16:06:39.001Z</time></trkpt><trkpt lat="48.31699013703725" lon="11.62405053707796"><ele>461.0</ele><time>2026-04-27T16:06:40.001Z</time></trkpt><trkpt lat="48.317205204037485" lon="11.624205695530417"><ele>460.0</ele><time>2026-04-27T16:06:41.001Z</time></trkpt><trkpt lat="48.31740828191132" lon="11.624366529866363"><ele>459.0</ele><time>2026-04-27T16:06:42.001Z</time></trkpt><trkpt lat="48.31761590769502" lon="11.62456764535159"><ele>459.0</ele><time>2026-04-27T16:06:43.001Z</time></trkpt><trkpt lat="48.31782121746869" lon="11.624805209263323"><ele>459.0</ele><time>2026-04-27T16:06:44.001Z</time></trkpt><trkpt lat="48.31801961903121" lon="11.625062924960746"><ele>459.5</ele><time>2026-04-27T16:06:45.001Z</time></trkpt><trkpt lat="48.31820686519904" lon="11.625328860730656"><ele>460.0</ele><time>2026-04-27T16:06:46.001Z</time></trkpt><trkpt lat="48.31838783527976" lon="11.625605171006326"><ele>460.0</ele><time>2026-04-27T16:06:47.001Z</time></trkpt><trkpt lat="48.31855657324725" lon="11.625899073734905"><ele>460.0</ele><time>2026-04-27T16:06:48.001Z</time></trkpt><trkpt lat="48.31871852304126" lon="11.626206281733625"><ele>460.0</ele><time>2026-04-27T16:06:49.001Z</time></trkpt><trkpt lat="48.31887833111235" lon="11.626529764840718"><ele>460.0</ele><time>2026-04-27T16:06:50.001Z</time></trkpt><trkpt lat="48.31903600939579" lon="11.62685449621564"><ele>460.0</ele><time>2026-04-27T16:06:51.001Z</time></trkpt><trkpt lat="48.31919742114919" lon="11.627186361347489"><ele>460.0</ele><time>2026-04-27T16:06:52.001Z</time></trkpt><trkpt lat="48.31935874218577" lon="11.627519565652088"><ele>460.5</ele><time>2026-04-27T16:06:53.001Z</time></trkpt><trkpt lat="48.31952131824903" lon="11.627859889294632"><ele>461.0</ele><time>2026-04-27T16:06:54.001Z</time></trkpt><trkpt lat="48.31968726204675" lon="11.628202942110972"><ele>460.0</ele><time>2026-04-27T16:06:55.001Z</time></trkpt><trkpt lat="48.31985191581664" lon="11.628548072170954"><ele>459.0</ele><time>2026-04-27T16:06:56.001Z</time></trkpt><trkpt lat="48.32001534663402" lon="11.628910790838312"><ele>459.0</ele><time>2026-04-27T16:06:57.001Z</time></trkpt><trkpt lat="48.32017395693246" lon="11.629272650232556"><ele>459.0</ele><time>2026-04-27T16:06:58.001Z</time></trkpt><trkpt lat="48.32033407455098" lon="11.62962057312529"><ele>459.0</ele><time>2026-04-27T16:06:59.001Z</time></trkpt><trkpt lat="48.32049747727013" lon="11.62995839892157"><ele>459.0</ele><time>2026-04-27T16:07:00.001Z</time></trkpt><trkpt lat="48.32066048799311" lon="11.630293893820934"><ele>459.5</ele><time>2026-04-27T16:07:01.001Z</time></trkpt><trkpt lat="48.32082133491635" lon="11.630627562296784"><ele>460.0</ele><time>2026-04-27T16:07:02.001Z</time></trkpt><trkpt lat="48.32098134835082" lon="11.63095714535787"><ele>459.5</ele><time>2026-04-27T16:07:03.001Z</time></trkpt><trkpt lat="48.321140878354115" lon="11.631287620603365"><ele>459.0</ele><time>2026-04-27T16:07:04.001Z</time></trkpt><trkpt lat="48.32129982130456" lon="11.631621165115387"><ele>458.0</ele><time>2026-04-27T16:07:05.001Z</time></trkpt><trkpt lat="48.32145870470865" lon="11.63195548020371"><ele>457.0</ele><time>2026-04-27T16:07:06.001Z</time></trkpt><trkpt lat="48.321617895371126" lon="11.632288724907841"><ele>457.0</ele><time>2026-04-27T16:07:07.001Z</time></trkpt><trkpt lat="48.3217800007212" lon="11.632626128933886"><ele>457.0</ele><time>2026-04-27T16:07:08.001Z</time></trkpt><trkpt lat="48.32194253379306" lon="11.632961417332636"><ele>457.0</ele><time>2026-04-27T16:07:09.001Z</time></trkpt><trkpt lat="48.32210707095395" lon="11.6332965582062"><ele>457.0</ele><time>2026-04-27T16:07:10.001Z</time></trkpt><trkpt lat="48.3222781029552" lon="11.633633819931601"><ele>458.0</ele><time>2026-04-27T16:07:11.001Z</time></trkpt><trkpt lat="48.32245267553576" lon="11.633972146242881"><ele>459.0</ele><time>2026-04-27T16:07:12.001Z</time></trkpt><trkpt lat="48.32262397335921" lon="11.634316037847244"><ele>459.5</ele><time>2026-04-27T16:07:13.001Z</time></trkpt><trkpt lat="48.322782267316626" lon="11.63464619357014"><ele>460.0</ele><time>2026-04-27T16:07:14.001Z</time></trkpt><trkpt lat="48.32293817458966" lon="11.634974795183991"><ele>460.5</ele><time>2026-04-27T16:07:15.001Z</time></trkpt><trkpt lat="48.323090051359614" lon="11.635302256005598"><ele>461.0</ele><time>2026-04-27T16:07:16.001Z</time></trkpt><trkpt lat="48.32323427924241" lon="11.63563074418811"><ele>459.5</ele><time>2026-04-27T16:07:17.001Z</time></trkpt><trkpt lat="48.32338133681749" lon="11.63595998107917"><ele>458.0</ele><time>2026-04-27T16:07:18.001Z</time></trkpt><trkpt lat="48.323528972478194" lon="11.636282098784008"><ele>457.5</ele><time>2026-04-27T16:07:19.001Z</time></trkpt><trkpt lat="48.32366711095015" lon="11.636594813881613"><ele>457.0</ele><time>2026-04-27T16:07:20.001Z</time></trkpt><trkpt lat="48.32381473073616" lon="11.63691708603871"><ele>457.0</ele><time>2026-04-27T16:07:21.001Z</time></trkpt><trkpt lat="48.32398290767925" lon="11.63725060042591"><ele>457.0</ele><time>2026-04-27T16:07:22.001Z</time></trkpt><trkpt lat="48.324148099114254" lon="11.637583735558147"><ele>457.5</ele><time>2026-04-27T16:07:23.001Z</time></trkpt><trkpt lat="48.3243014982422" lon="11.637912198906108"><ele>458.0</ele><time>2026-04-27T16:07:24.001Z</time></trkpt><trkpt lat="48.32444469792816" lon="11.638248582932695"><ele>458.0</ele><time>2026-04-27T16:07:25.001Z</time></trkpt><trkpt lat="48.32458350513509" lon="11.638580443066605"><ele>458.0</ele><time>2026-04-27T16:07:26.001Z</time></trkpt><trkpt lat="48.32472007515833" lon="11.63891159996295"><ele>457.5</ele><time>2026-04-27T16:07:27.001Z</time></trkpt><trkpt lat="48.32485413409321" lon="11.639258065390113"><ele>457.0</ele><time>2026-04-27T16:07:28.001Z</time></trkpt><trkpt lat="48.324999566252046" lon="11.639654190490933"><ele>456.5</ele><time>2026-04-27T16:07:29.001Z</time></trkpt><trkpt lat="48.32516485585425" lon="11.640077645446691"><ele>456.0</ele><time>2026-04-27T16:07:30.001Z</time></trkpt><trkpt lat="48.32534435471803" lon="11.640530924057993"><ele>457.0</ele><time>2026-04-27T16:07:31.001Z</time></trkpt><trkpt lat="48.325524333913734" lon="11.64098871555149"><ele>458.0</ele><time>2026-04-27T16:07:32.001Z</time></trkpt><trkpt lat="48.32569407766118" lon="11.641433296551899"><ele>458.0</ele><time>2026-04-27T16:07:33.001Z</time></trkpt><trkpt lat="48.325850156406375" lon="11.641850961346424"><ele>458.0</ele><time>2026-04-27T16:07:34.001Z</time></trkpt><trkpt lat="48.32599947487366" lon="11.642243276098847"><ele>457.5</ele><time>2026-04-27T16:07:35.001Z</time></trkpt><trkpt lat="48.32615439882782" lon="11.642631938160571"><ele>457.0</ele><time>2026-04-27T16:07:36.001Z</time></trkpt><trkpt lat="48.32629893326693" lon="11.643003838618144"><ele>457.0</ele><time>2026-04-27T16:07:37.001Z</time></trkpt><trkpt lat="48.32642841814854" lon="11.643361680956257"><ele>457.0</ele><time>2026-04-27T16:07:38.001Z</time></trkpt><trkpt lat="48.32655053682366" lon="11.643706955526657"><ele>457.5</ele><time>2026-04-27T16:07:39.001Z</time></trkpt><trkpt lat="48.32666906374501" lon="11.644045981740218"><ele>458.0</ele><time>2026-04-27T16:07:40.001Z</time></trkpt><trkpt lat="48.32678100895903" lon="11.644366344822497"><ele>457.5</ele><time>2026-04-27T16:07:41.001Z</time></trkpt><trkpt lat="48.32689809123253" lon="11.64469243829421"><ele>457.0</ele><time>2026-04-27T16:07:42.001Z</time></trkpt><trkpt lat="48.32702468336825" lon="11.64502217507572"><ele>457.5</ele><time>2026-04-27T16:07:43.001Z</time></trkpt><trkpt lat="48.32714484344841" lon="11.645354959841688"><ele>458.0</ele><time>2026-04-27T16:07:44.001Z</time></trkpt><trkpt lat="48.32726181900263" lon="11.645700738984301"><ele>458.0</ele><time>2026-04-27T16:07:45.001Z</time></trkpt><trkpt lat="48.32739219302193" lon="11.646063919884266"><ele>458.0</ele><time>2026-04-27T16:07:46.001Z</time></trkpt><trkpt lat="48.327524366398414" lon="11.64643877903361"><ele>458.0</ele><time>2026-04-27T16:07:47.001Z</time></trkpt><trkpt lat="48.32765017737288" lon="11.646819077416035"><ele>458.0</ele><time>2026-04-27T16:07:48.001Z</time></trkpt><trkpt lat="48.327770980004416" lon="11.64720476166779"><ele>458.0</ele><time>2026-04-27T16:07:49.001Z</time></trkpt><trkpt lat="48.327883038638134" lon="11.647570899537941"><ele>458.0</ele><time>2026-04-27T16:07:50.001Z</time></trkpt><trkpt lat="48.3279941383255" lon="11.647937634385363"><ele>457.5</ele><time>2026-04-27T16:07:51.001Z</time></trkpt><trkpt lat="48.32810732989301" lon="11.648313357109046"><ele>457.0</ele><time>2026-04-27T16:07:52.001Z</time></trkpt><trkpt lat="48.32822030400286" lon="11.648693705840575"><ele>457.0</ele><time>2026-04-27T16:07:53.001Z</time></trkpt><trkpt lat="48.32833393303953" lon="11.649083519953939"><ele>457.0</ele><time>2026-04-27T16:07:54.001Z</time></trkpt><trkpt lat="48.328450010691725" lon="11.649484361665728"><ele>457.0</ele><time>2026-04-27T16:07:55.001Z</time></trkpt><trkpt lat="48.32856644157699" lon="11.64989366922717"><ele>457.0</ele><time>2026-04-27T16:07:56.001Z</time></trkpt><trkpt lat="48.32868275025826" lon="11.650314604938112"><ele>457.0</ele><time>2026-04-27T16:07:57.001Z</time></trkpt><trkpt lat="48.32879773462887" lon="11.65074334665595"><ele>457.0</ele><time>2026-04-27T16:07:58.001Z</time></trkpt><trkpt lat="48.328911345373136" lon="11.651175171987266"><ele>457.0</ele><time>2026-04-27T16:07:59.001Z</time></trkpt><trkpt lat="48.329022250246005" lon="11.651605411117403"><ele>457.0</ele><time>2026-04-27T16:08:00.001Z</time></trkpt><trkpt lat="48.32913269547029" lon="11.6520316534194"><ele>457.5</ele><time>2026-04-27T16:08:01.001Z</time></trkpt><trkpt lat="48.3292415964089" lon="11.652454855743018"><ele>458.0</ele><time>2026-04-27T16:08:02.001Z</time></trkpt><trkpt lat="48.32934971823205" lon="11.65288058345308"><ele>458.5</ele><time>2026-04-27T16:08:03.001Z</time></trkpt><trkpt lat="48.329456583500374" lon="11.653306874183215"><ele>459.0</ele><time>2026-04-27T16:08:04.001Z</time></trkpt><trkpt lat="48.329561954208856" lon="11.653737845618847"><ele>459.5</ele><time>2026-04-27T16:08:05.001Z</time></trkpt><trkpt lat="48.329668949342626" lon="11.65417769619845"><ele>460.0</ele><time>2026-04-27T16:08:06.001Z</time></trkpt><trkpt lat="48.32977482744511" lon="11.654620856398893"><ele>460.0</ele><time>2026-04-27T16:08:07.001Z</time></trkpt><trkpt lat="48.329878273032655" lon="11.655069087430673"><ele>460.0</ele><time>2026-04-27T16:08:08.001Z</time></trkpt><trkpt lat="48.32997548469246" lon="11.65552532063955"><ele>459.5</ele><time>2026-04-27T16:08:09.001Z</time></trkpt><trkpt lat="48.33006375636135" lon="11.655988130829304"><ele>459.0</ele><time>2026-04-27T16:08:10.001Z</time></trkpt><trkpt lat="48.33014410424152" lon="11.656454442209805"><ele>458.5</ele><time>2026-04-27T16:08:11.001Z</time></trkpt><trkpt lat="48.33022785039733" lon="11.65692146914753"><ele>458.0</ele><time>2026-04-27T16:08:12.001Z</time></trkpt><trkpt lat="48.33031544252809" lon="11.657381745410149"><ele>458.0</ele><time>2026-04-27T16:08:13.001Z</time></trkpt><trkpt lat="48.33040756303794" lon="11.657833481521612"><ele>458.0</ele><time>2026-04-27T16:08:14.001Z</time></trkpt><trkpt lat="48.330497746030375" lon="11.658285599957944"><ele>458.5</ele><time>2026-04-27T16:08:15.001Z</time></trkpt><trkpt lat="48.33058530142042" lon="11.658736797844455"><ele>459.0</ele><time>2026-04-27T16:08:16.001Z</time></trkpt><trkpt lat="48.33067021158729" lon="11.659187640596231"><ele>459.0</ele><time>2026-04-27T16:08:17.001Z</time></trkpt><trkpt lat="48.33075312357803" lon="11.659638512325218"><ele>459.0</ele><time>2026-04-27T16:08:18.001Z</time></trkpt><trkpt lat="48.330834159862924" lon="11.660086422276914"><ele>458.5</ele><time>2026-04-27T16:08:19.001Z</time></trkpt><trkpt lat="48.33091298362254" lon="11.660530998624639"><ele>458.0</ele><time>2026-04-27T16:08:20.001Z</time></trkpt><trkpt lat="48.33098960890642" lon="11.660971401685847"><ele>458.5</ele><time>2026-04-27T16:08:21.001Z</time></trkpt><trkpt lat="48.33106437241576" lon="11.661409091452283"><ele>459.0</ele><time>2026-04-27T16:08:22.001Z</time></trkpt><trkpt lat="48.33113885592315" lon="11.661846023736459"><ele>459.0</ele><time>2026-04-27T16:08:23.001Z</time></trkpt><trkpt lat="48.331213731166265" lon="11.662293257201052"><ele>459.0</ele><time>2026-04-27T16:08:24.001Z</time></trkpt><trkpt lat="48.33129268913378" lon="11.662777328445497"><ele>458.0</ele><time>2026-04-27T16:08:25.001Z</time></trkpt><trkpt lat="48.33137140813239" lon="11.66329640986937"><ele>457.0</ele><time>2026-04-27T16:08:26.001Z</time></trkpt><trkpt lat="48.331456153077646" lon="11.663827722486298"><ele>456.5</ele><time>2026-04-27T16:08:27.001Z</time></trkpt><trkpt lat="48.33154765826787" lon="11.664380860063382"><ele>456.0</ele><time>2026-04-27T16:08:28.001Z</time></trkpt><trkpt lat="48.33163658224558" lon="11.664944553912907"><ele>456.0</ele><time>2026-04-27T16:08:29.001Z</time></trkpt><trkpt lat="48.33171751458929" lon="11.665513394918868"><ele>456.0</ele><time>2026-04-27T16:08:30.001Z</time></trkpt><trkpt lat="48.33179376278879" lon="11.666090134109222"><ele>456.0</ele><time>2026-04-27T16:08:31.001Z</time></trkpt><trkpt lat="48.33187868683207" lon="11.666682604589475"><ele>456.0</ele><time>2026-04-27T16:08:32.001Z</time></trkpt><trkpt lat="48.33196732605103" lon="11.667270291123549"><ele>456.5</ele><time>2026-04-27T16:08:33.001Z</time></trkpt><trkpt lat="48.3320332748442" lon="11.667889987283349"><ele>457.0</ele><time>2026-04-27T16:08:34.001Z</time></trkpt><trkpt lat="48.33210039839453" lon="11.668492349738719"><ele>457.0</ele><time>2026-04-27T16:08:35.001Z</time></trkpt><trkpt lat="48.33216247822461" lon="11.669084099902802"><ele>457.0</ele><time>2026-04-27T16:08:36.001Z</time></trkpt><trkpt lat="48.33221813313611" lon="11.669671432985737"><ele>457.0</ele><time>2026-04-27T16:08:37.001Z</time></trkpt><trkpt lat="48.33227237760524" lon="11.67026047324906"><ele>457.0</ele><time>2026-04-27T16:08:38.001Z</time></trkpt><trkpt lat="48.33232717853784" lon="11.670855319838555"><ele>457.0</ele><time>2026-04-27T16:08:39.001Z</time></trkpt><trkpt lat="48.33237640143967" lon="11.671444132784234"><ele>457.0</ele><time>2026-04-27T16:08:40.001Z</time></trkpt><trkpt lat="48.33242004162733" lon="11.672042261225753"><ele>457.5</ele><time>2026-04-27T16:08:41.001Z</time></trkpt><trkpt lat="48.33246655348066" lon="11.672629807349544"><ele>458.0</ele><time>2026-04-27T16:08:42.001Z</time></trkpt><trkpt lat="48.332504557846285" lon="11.67321670640543"><ele>458.0</ele><time>2026-04-27T16:08:43.001Z</time></trkpt><trkpt lat="48.33254297594067" lon="11.67380273287644"><ele>458.0</ele><time>2026-04-27T16:08:44.001Z</time></trkpt><trkpt lat="48.33257970998415" lon="11.67437770138906"><ele>458.5</ele><time>2026-04-27T16:08:45.001Z</time></trkpt><trkpt lat="48.332614567557776" lon="11.674990638118981"><ele>459.0</ele><time>2026-04-27T16:08:46.001Z</time></trkpt><trkpt lat="48.33264290747678" lon="11.675594543389456"><ele>459.5</ele><time>2026-04-27T16:08:47.001Z</time></trkpt><trkpt lat="48.33266891003296" lon="11.676184375177492"><ele>460.0</ele><time>2026-04-27T16:08:48.001Z</time></trkpt><trkpt lat="48.33268895863015" lon="11.676774967102237"><ele>460.0</ele><time>2026-04-27T16:08:49.001Z</time></trkpt><trkpt lat="48.33270876170667" lon="11.677374745951171"><ele>460.0</ele><time>2026-04-27T16:08:50.001Z</time></trkpt><trkpt lat="48.33272473769242" lon="11.67798057289521"><ele>459.5</ele><time>2026-04-27T16:08:51.001Z</time></trkpt><trkpt lat="48.33273762281494" lon="11.678591469399125"><ele>459.0</ele><time>2026-04-27T16:08:52.001Z</time></trkpt><trkpt lat="48.332753636511235" lon="11.679191368424497"><ele>459.0</ele><time>2026-04-27T16:08:53.001Z</time></trkpt><trkpt lat="48.33276205240089" lon="11.679792911239907"><ele>459.0</ele><time>2026-04-27T16:08:54.001Z</time></trkpt><trkpt lat="48.332769164419744" lon="11.680380258875774"><ele>458.0</ele><time>2026-04-27T16:08:55Z</time></trkpt><trkpt lat="48.332775724105296" lon="11.680963689361944"><ele>457.0</ele><time>2026-04-27T16:08:56Z</time></trkpt><trkpt lat="48.332778252584234" lon="11.681552714813472"><ele>457.0</ele><time>2026-04-27T16:08:57Z</time></trkpt><trkpt lat="48.33277890168319" lon="11.682142081418892"><ele>457.0</ele><time>2026-04-27T16:08:58Z</time></trkpt><trkpt lat="48.332780050843915" lon="11.682738969557018"><ele>457.0</ele><time>2026-04-27T16:08:59Z</time></trkpt><trkpt lat="48.33278307926944" lon="11.683340232142326"><ele>457.0</ele><time>2026-04-27T16:09:00Z</time></trkpt><trkpt lat="48.332787003511974" lon="11.68394056807325"><ele>456.5</ele><time>2026-04-27T16:09:01Z</time></trkpt><trkpt lat="48.33279305415108" lon="11.684540046594575"><ele>456.0</ele><time>2026-04-27T16:09:02Z</time></trkpt><trkpt lat="48.33280777809557" lon="11.685136956439923"><ele>456.0</ele><time>2026-04-27T16:09:03Z</time></trkpt><trkpt lat="48.33280797804689" lon="11.685728077232083"><ele>456.0</ele><time>2026-04-27T16:09:04Z</time></trkpt><trkpt lat="48.332813888399706" lon="11.686320340371882"><ele>456.5</ele><time>2026-04-27T16:09:05Z</time></trkpt><trkpt lat="48.33282310119789" lon="11.68691359793926"><ele>457.0</ele><time>2026-04-27T16:09:06Z</time></trkpt><trkpt lat="48.33283133200568" lon="11.687501790461127"><ele>456.5</ele><time>2026-04-27T16:09:07Z</time></trkpt><trkpt lat="48.332839573523785" lon="11.688062245178585"><ele>456.0</ele><time>2026-04-27T16:09:08.001Z</time></trkpt><trkpt lat="48.33285626306359" lon="11.688597959031846"><ele>455.5</ele><time>2026-04-27T16:09:09.001Z</time></trkpt><trkpt lat="48.33287124736969" lon="11.689127870680158"><ele>455.0</ele><time>2026-04-27T16:09:10.001Z</time></trkpt><trkpt lat="48.33288862730907" lon="11.689634467963144"><ele>455.0</ele><time>2026-04-27T16:09:11.001Z</time></trkpt><trkpt lat="48.3329086313315" lon="11.690137700811787"><ele>455.0</ele><time>2026-04-27T16:09:12.001Z</time></trkpt><trkpt lat="48.332933209323606" lon="11.690640209442279"><ele>456.0</ele><time>2026-04-27T16:09:13.001Z</time></trkpt><trkpt lat="48.33296173619448" lon="11.691136190454808"><ele>457.0</ele><time>2026-04-27T16:09:14.001Z</time></trkpt><trkpt lat="48.33299264423736" lon="11.691632899225016"><ele>456.5</ele><time>2026-04-27T16:09:15.001Z</time></trkpt><trkpt lat="48.333024996633824" lon="11.692127617626449"><ele>456.0</ele><time>2026-04-27T16:09:16.001Z</time></trkpt><trkpt lat="48.33305859658209" lon="11.692607723071141"><ele>456.5</ele><time>2026-04-27T16:09:17.001Z</time></trkpt><trkpt lat="48.333099130114235" lon="11.693074956688632"><ele>457.0</ele><time>2026-04-27T16:09:18.001Z</time></trkpt><trkpt lat="48.333143054467065" lon="11.693541793402337"><ele>457.0</ele><time>2026-04-27T16:09:19.001Z</time></trkpt><trkpt lat="48.33318986435845" lon="11.694012914909685"><ele>457.0</ele><time>2026-04-27T16:09:20.001Z</time></trkpt><trkpt lat="48.33324079777163" lon="11.694485996756113"><ele>457.0</ele><time>2026-04-27T16:09:21.001Z</time></trkpt><trkpt lat="48.33329405990827" lon="11.69496146375677"><ele>457.0</ele><time>2026-04-27T16:09:22.001Z</time></trkpt><trkpt lat="48.333356244477734" lon="11.695445306973575"><ele>457.0</ele><time>2026-04-27T16:09:23.001Z</time></trkpt><trkpt lat="48.33342454184644" lon="11.695939728615013"><ele>457.0</ele><time>2026-04-27T16:09:24.001Z</time></trkpt><trkpt lat="48.33349867413514" lon="11.696439507364012"><ele>456.0</ele><time>2026-04-27T16:09:25.001Z</time></trkpt><trkpt lat="48.33357817151583" lon="11.696940430721448"><ele>455.0</ele><time>2026-04-27T16:09:26.001Z</time></trkpt><trkpt lat="48.333661771408416" lon="11.697431427178465"><ele>457.0</ele><time>2026-04-27T16:09:27.001Z</time></trkpt><trkpt lat="48.333751333405374" lon="11.697918225219205"><ele>459.0</ele><time>2026-04-27T16:09:28.001Z</time></trkpt><trkpt lat="48.333848277152114" lon="11.698400178097456"><ele>458.0</ele><time>2026-04-27T16:09:29.001Z</time></trkpt><trkpt lat="48.33395180311218" lon="11.69888380465706"><ele>457.0</ele><time>2026-04-27T16:09:30.001Z</time></trkpt><trkpt lat="48.33405918027377" lon="11.699359025926691"><ele>457.5</ele><time>2026-04-27T16:09:31.001Z</time></trkpt><trkpt lat="48.334169760634666" lon="11.699826498756009"><ele>458.0</ele><time>2026-04-27T16:09:32.001Z</time></trkpt><trkpt lat="48.334293584348" lon="11.700289210238891"><ele>458.0</ele><time>2026-04-27T16:09:33.001Z</time></trkpt><trkpt lat="48.334411179854385" lon="11.700758829267679"><ele>458.0</ele><time>2026-04-27T16:09:34.001Z</time></trkpt><trkpt lat="48.33454480792611" lon="11.70123005137618"><ele>458.0</ele><time>2026-04-27T16:09:35.001Z</time></trkpt><trkpt lat="48.33468411635569" lon="11.701696326912668"><ele>458.0</ele><time>2026-04-27T16:09:36.001Z</time></trkpt><trkpt lat="48.33483019179043" lon="11.702164912447504"><ele>456.5</ele><time>2026-04-27T16:09:37.001Z</time></trkpt><trkpt lat="48.334983287350546" lon="11.702629569058388"><ele>455.0</ele><time>2026-04-27T16:09:38.001Z</time></trkpt><trkpt lat="48.33514202662205" lon="11.703092973966198"><ele>454.5</ele><time>2026-04-27T16:09:39.001Z</time></trkpt><trkpt lat="48.33531016739851" lon="11.703553133839726"><ele>454.0</ele><time>2026-04-27T16:09:40.001Z</time></trkpt><trkpt lat="48.335481172130436" lon="11.704010800111284"><ele>455.0</ele><time>2026-04-27T16:09:41.001Z</time></trkpt><trkpt lat="48.335662058994025" lon="11.704468633880188"><ele>456.0</ele><time>2026-04-27T16:09:42.001Z</time></trkpt><trkpt lat="48.335853707411054" lon="11.704925625551123"><ele>456.0</ele><time>2026-04-27T16:09:43.001Z</time></trkpt><trkpt lat="48.33605194477057" lon="11.7053819833472"><ele>456.0</ele><time>2026-04-27T16:09:44.001Z</time></trkpt><trkpt lat="48.33625274106354" lon="11.705835612559802"><ele>457.5</ele><time>2026-04-27T16:09:45.001Z</time></trkpt><trkpt lat="48.336460822714955" lon="11.706280316451599"><ele>459.0</ele><time>2026-04-27T16:09:46.001Z</time></trkpt><trkpt lat="48.336679538220935" lon="11.706719784340697"><ele>458.5</ele><time>2026-04-27T16:09:47.001Z</time></trkpt><trkpt lat="48.33690218180507" lon="11.707152049001074"><ele>458.0</ele><time>2026-04-27T16:09:48.001Z</time></trkpt><trkpt lat="48.33713108421378" lon="11.707581516973368"><ele>458.5</ele><time>2026-04-27T16:09:49.001Z</time></trkpt><trkpt lat="48.337362729664065" lon="11.707997355371655"><ele>459.0</ele><time>2026-04-27T16:09:50.001Z</time></trkpt><trkpt lat="48.33759706844672" lon="11.708401107704734"><ele>459.0</ele><time>2026-04-27T16:09:51.001Z</time></trkpt><trkpt lat="48.337827316837874" lon="11.708789856279004"><ele>459.0</ele><time>2026-04-27T16:09:52.001Z</time></trkpt><trkpt lat="48.33805932402353" lon="11.70916253786554"><ele>458.5</ele><time>2026-04-27T16:09:53.001Z</time></trkpt><trkpt lat="48.338298622303604" lon="11.709526935557589"><ele>458.0</ele><time>2026-04-27T16:09:54.001Z</time></trkpt><trkpt lat="48.33854324650123" lon="11.709891953158548"><ele>458.0</ele><time>2026-04-27T16:09:55.001Z</time></trkpt><trkpt lat="48.338795127721724" lon="11.71025012060243"><ele>458.0</ele><time>2026-04-27T16:09:56.001Z</time></trkpt><trkpt lat="48.3390475087688" lon="11.710599476092424"><ele>458.5</ele><time>2026-04-27T16:09:57.001Z</time></trkpt><trkpt lat="48.33930582417759" lon="11.710943180885268"><ele>459.0</ele><time>2026-04-27T16:09:58.001Z</time></trkpt><trkpt lat="48.33956536856047" lon="11.711268497901244"><ele>460.5</ele><time>2026-04-27T16:09:59.001Z</time></trkpt><trkpt lat="48.33982837268652" lon="11.711586540407847"><ele>462.0</ele><time>2026-04-27T16:10:00.001Z</time></trkpt><trkpt lat="48.34009432208903" lon="11.71190547579236"><ele>462.0</ele><time>2026-04-27T16:10:01.001Z</time></trkpt><trkpt lat="48.34036039936403" lon="11.712216930210504"><ele>462.0</ele><time>2026-04-27T16:10:02.001Z</time></trkpt><trkpt lat="48.340630563262046" lon="11.712520960497065"><ele>458.5</ele><time>2026-04-27T16:10:03.001Z</time></trkpt><trkpt lat="48.340899183456074" lon="11.71282066408192"><ele>455.0</ele><time>2026-04-27T16:10:04.001Z</time></trkpt><trkpt lat="48.34117183945222" lon="11.713119026385064"><ele>456.0</ele><time>2026-04-27T16:10:05.001Z</time></trkpt><trkpt lat="48.34144348394894" lon="11.71341305230732"><ele>457.0</ele><time>2026-04-27T16:10:06.001Z</time></trkpt><trkpt lat="48.34171684020915" lon="11.713705822605741"><ele>457.5</ele><time>2026-04-27T16:10:07.001Z</time></trkpt><trkpt lat="48.341990645024865" lon="11.713997880201486"><ele>458.0</ele><time>2026-04-27T16:10:08.001Z</time></trkpt><trkpt lat="48.34226348007105" lon="11.714286602138587"><ele>457.5</ele><time>2026-04-27T16:10:09.001Z</time></trkpt><trkpt lat="48.34253753725627" lon="11.714582098314773"><ele>457.0</ele><time>2026-04-27T16:10:10.001Z</time></trkpt><trkpt lat="48.342814734942074" lon="11.714884750084854"><ele>457.5</ele><time>2026-04-27T16:10:11.001Z</time></trkpt><trkpt lat="48.34309038373629" lon="11.71519259091646"><ele>458.0</ele><time>2026-04-27T16:10:12.001Z</time></trkpt><trkpt lat="48.3433644760449" lon="11.715504160043754"><ele>458.0</ele><time>2026-04-27T16:10:13.001Z</time></trkpt><trkpt lat="48.34363248224435" lon="11.715819525013085"><ele>458.0</ele><time>2026-04-27T16:10:14.001Z</time></trkpt><trkpt lat="48.34389501990845" lon="11.716142466549933"><ele>458.0</ele><time>2026-04-27T16:10:15.001Z</time></trkpt><trkpt lat="48.34414676852131" lon="11.716464773187194"><ele>458.0</ele><time>2026-04-27T16:10:16.001Z</time></trkpt><trkpt lat="48.34439326206989" lon="11.716785195135897"><ele>458.0</ele><time>2026-04-27T16:10:17.001Z</time></trkpt><trkpt lat="48.344634133197815" lon="11.717110287702354"><ele>458.0</ele><time>2026-04-27T16:10:18.001Z</time></trkpt><trkpt lat="48.344867430611686" lon="11.717436578934777"><ele>457.5</ele><time>2026-04-27T16:10:19.001Z</time></trkpt><trkpt lat="48.34509510939275" lon="11.717762249521899"><ele>457.0</ele><time>2026-04-27T16:10:20.001Z</time></trkpt><trkpt lat="48.345320584249286" lon="11.718098907418973"><ele>457.0</ele><time>2026-04-27T16:10:21.001Z</time></trkpt><trkpt lat="48.3455448211241" lon="11.718446170926988"><ele>457.0</ele><time>2026-04-27T16:10:22.001Z</time></trkpt><trkpt lat="48.345759794671864" lon="11.718798210811068"><ele>455.5</ele><time>2026-04-27T16:10:23.001Z</time></trkpt><trkpt lat="48.34597323036332" lon="11.719152889728255"><ele>454.0</ele><time>2026-04-27T16:10:24.001Z</time></trkpt><trkpt lat="48.34618021674065" lon="11.719516795608897"><ele>454.5</ele><time>2026-04-27T16:10:25.001Z</time></trkpt><trkpt lat="48.346384069586385" lon="11.719882685371035"><ele>455.0</ele><time>2026-04-27T16:10:26.001Z</time></trkpt><trkpt lat="48.34658613717618" lon="11.720255839232493"><ele>454.0</ele><time>2026-04-27T16:10:27.001Z</time></trkpt><trkpt lat="48.34678499258065" lon="11.720637560746948"><ele>453.0</ele><time>2026-04-27T16:10:28.001Z</time></trkpt><trkpt lat="48.34697843817095" lon="11.721023149591446"><ele>453.0</ele><time>2026-04-27T16:10:29.001Z</time></trkpt><trkpt lat="48.34716759087716" lon="11.721416232809288"><ele>453.0</ele><time>2026-04-27T16:10:30.001Z</time></trkpt><trkpt lat="48.3473509137289" lon="11.721810915604163"><ele>453.0</ele><time>2026-04-27T16:10:31.001Z</time></trkpt><trkpt lat="48.34753143681207" lon="11.72219888206687"><ele>453.0</ele><time>2026-04-27T16:10:32.001Z</time></trkpt><trkpt lat="48.34771051546787" lon="11.722585582918398"><ele>453.0</ele><time>2026-04-27T16:10:33.001Z</time></trkpt><trkpt lat="48.34788627835322" lon="11.722968079791912"><ele>453.0</ele><time>2026-04-27T16:10:34.001Z</time></trkpt><trkpt lat="48.34806561468622" lon="11.723346235762264"><ele>452.5</ele><time>2026-04-27T16:10:35.001Z</time></trkpt><trkpt lat="48.348243349267946" lon="11.72372089612679"><ele>452.0</ele><time>2026-04-27T16:10:36.001Z</time></trkpt><trkpt lat="48.3484233751875" lon="11.724096391575456"><ele>452.5</ele><time>2026-04-27T16:10:37.001Z</time></trkpt><trkpt lat="48.348606274735836" lon="11.724463313014489"><ele>453.0</ele><time>2026-04-27T16:10:38.001Z</time></trkpt><trkpt lat="48.348796348362264" lon="11.724813174242906"><ele>452.5</ele><time>2026-04-27T16:10:39.001Z</time></trkpt><trkpt lat="48.34899175550286" lon="11.725155977629978"><ele>452.0</ele><time>2026-04-27T16:10:40.001Z</time></trkpt><trkpt lat="48.3491952692709" lon="11.725493056962051"><ele>453.0</ele><time>2026-04-27T16:10:41.001Z</time></trkpt><trkpt lat="48.349402687022284" lon="11.725818505086936"><ele>454.0</ele><time>2026-04-27T16:10:42.001Z</time></trkpt><trkpt lat="48.349617414119976" lon="11.726139146439463"><ele>453.5</ele><time>2026-04-27T16:10:43.001Z</time></trkpt><trkpt lat="48.34983488151089" lon="11.726447769005192"><ele>453.0</ele><time>2026-04-27T16:10:44.001Z</time></trkpt><trkpt lat="48.35005802787063" lon="11.726750452476214"><ele>453.0</ele><time>2026-04-27T16:10:45.001Z</time></trkpt><trkpt lat="48.35028406089478" lon="11.727036507580353"><ele>453.0</ele><time>2026-04-27T16:10:46.001Z</time></trkpt><trkpt lat="48.350511211604754" lon="11.727333684326986"><ele>453.5</ele><time>2026-04-27T16:10:47.001Z</time></trkpt><trkpt lat="48.350752046137856" lon="11.727618315551268"><ele>454.0</ele><time>2026-04-27T16:10:48.001Z</time></trkpt><trkpt lat="48.35099341034686" lon="11.727889955472081"><ele>454.0</ele><time>2026-04-27T16:10:49.001Z</time></trkpt><trkpt lat="48.35124480360502" lon="11.728152820336037"><ele>454.0</ele><time>2026-04-27T16:10:50.001Z</time></trkpt><trkpt lat="48.35147163793938" lon="11.728397275039"><ele>454.0</ele><time>2026-04-27T16:10:51.001Z</time></trkpt><trkpt lat="48.351756743118706" lon="11.728658450085904"><ele>454.0</ele><time>2026-04-27T16:10:52.001Z</time></trkpt><trkpt lat="48.35201760398374" lon="11.728888912269449"><ele>452.5</ele><time>2026-04-27T16:10:53.001Z</time></trkpt><trkpt lat="48.352282290397966" lon="11.729112854797002"><ele>451.0</ele><time>2026-04-27T16:10:54.001Z</time></trkpt><trkpt lat="48.352548695557644" lon="11.729327813281309"><ele>450.5</ele><time>2026-04-27T16:10:55.001Z</time></trkpt><trkpt lat="48.3528200833511" lon="11.729535441535054"><ele>450.0</ele><time>2026-04-27T16:10:56.001Z</time></trkpt><trkpt lat="48.35309115189634" lon="11.729734061611415"><ele>450.0</ele><time>2026-04-27T16:10:57.001Z</time></trkpt><trkpt lat="48.353368196902125" lon="11.729921466120095"><ele>450.0</ele><time>2026-04-27T16:10:58.001Z</time></trkpt><trkpt lat="48.35364853276655" lon="11.73010596191717"><ele>450.5</ele><time>2026-04-27T16:10:59.001Z</time></trkpt><trkpt lat="48.353931510925996" lon="11.730285589222456"><ele>451.0</ele><time>2026-04-27T16:11:00.001Z</time></trkpt><trkpt lat="48.354227822069475" lon="11.730449159869735"><ele>451.0</ele><time>2026-04-27T16:11:01.001Z</time></trkpt><trkpt lat="48.354522739169894" lon="11.73060172736122"><ele>451.0</ele><time>2026-04-27T16:11:02.001Z</time></trkpt><trkpt lat="48.35482378994579" lon="11.73074871153497"><ele>452.0</ele><time>2026-04-27T16:11:03.001Z</time></trkpt><trkpt lat="48.35511151368476" lon="11.730915499675879"><ele>453.0</ele><time>2026-04-27T16:11:04.001Z</time></trkpt><trkpt lat="48.35541576277199" lon="11.731054518985404"><ele>452.5</ele><time>2026-04-27T16:11:05.001Z</time></trkpt><trkpt lat="48.3557106764543" lon="11.73121359619744"><ele>452.0</ele><time>2026-04-27T16:11:06Z</time></trkpt><trkpt lat="48.3559964774098" lon="11.731385476378021"><ele>452.0</ele><time>2026-04-27T16:11:07Z</time></trkpt><trkpt lat="48.35628026388869" lon="11.731559073395626"><ele>452.0</ele><time>2026-04-27T16:11:08Z</time></trkpt><trkpt lat="48.35656317883681" lon="11.731729062466878"><ele>453.0</ele><time>2026-04-27T16:11:09Z</time></trkpt><trkpt lat="48.35684944887595" lon="11.731896243528142"><ele>454.0</ele><time>2026-04-27T16:11:10Z</time></trkpt><trkpt lat="48.35712899971097" lon="11.732061660596845"><ele>453.0</ele><time>2026-04-27T16:11:11Z</time></trkpt><trkpt lat="48.35740740244248" lon="11.732232480178803"><ele>452.0</ele><time>2026-04-27T16:11:12Z</time></trkpt><trkpt lat="48.35768652424881" lon="11.732403080266371"><ele>452.0</ele><time>2026-04-27T16:11:13Z</time></trkpt><trkpt lat="48.357964672669766" lon="11.73258251819143"><ele>452.0</ele><time>2026-04-27T16:11:14Z</time></trkpt><trkpt lat="48.35824471457226" lon="11.732763565171222"><ele>452.5</ele><time>2026-04-27T16:11:15Z</time></trkpt><trkpt lat="48.358524715861094" lon="11.73295725950012"><ele>453.0</ele><time>2026-04-27T16:11:16Z</time></trkpt><trkpt lat="48.358803807585076" lon="11.733159039003299"><ele>453.0</ele><time>2026-04-27T16:11:17Z</time></trkpt><trkpt lat="48.35908001359739" lon="11.733355195257845"><ele>453.0</ele><time>2026-04-27T16:11:18Z</time></trkpt><trkpt lat="48.359354792583325" lon="11.733553686475814"><ele>453.5</ele><time>2026-04-27T16:11:19Z</time></trkpt><trkpt lat="48.35962826898266" lon="11.733741672463992"><ele>454.0</ele><time>2026-04-27T16:11:20Z</time></trkpt><trkpt lat="48.35990039011365" lon="11.733925358428866"><ele>454.0</ele><time>2026-04-27T16:11:21Z</time></trkpt><trkpt lat="48.36017266264825" lon="11.734116323392241"><ele>454.0</ele><time>2026-04-27T16:11:22Z</time></trkpt><trkpt lat="48.36044044409486" lon="11.734312123572705"><ele>454.5</ele><time>2026-04-27T16:11:23Z</time></trkpt><trkpt lat="48.36070662812452" lon="11.734505572536735"><ele>455.0</ele><time>2026-04-27T16:11:24Z</time></trkpt><trkpt lat="48.36097037163343" lon="11.73470389802078"><ele>455.0</ele><time>2026-04-27T16:11:25Z</time></trkpt><trkpt lat="48.3612335610778" lon="11.734901643695867"><ele>455.0</ele><time>2026-04-27T16:11:26Z</time></trkpt><trkpt lat="48.36149408478301" lon="11.735101658596118"><ele>454.5</ele><time>2026-04-27T16:11:27Z</time></trkpt><trkpt lat="48.36175821245026" lon="11.73530616018044"><ele>454.0</ele><time>2026-04-27T16:11:28Z</time></trkpt><trkpt lat="48.362025761584206" lon="11.735520738875438"><ele>452.5</ele><time>2026-04-27T16:11:29Z</time></trkpt><trkpt lat="48.36228927388588" lon="11.735730962905887"><ele>451.0</ele><time>2026-04-27T16:11:30.001Z</time></trkpt><trkpt lat="48.36255182649755" lon="11.735939338284094"><ele>450.5</ele><time>2026-04-27T16:11:31.001Z</time></trkpt><trkpt lat="48.36281106031798" lon="11.736146599702328"><ele>450.0</ele><time>2026-04-27T16:11:32.001Z</time></trkpt><trkpt lat="48.36306633811675" lon="11.736356311914472"><ele>450.0</ele><time>2026-04-27T16:11:33.001Z</time></trkpt><trkpt lat="48.36332374291892" lon="11.736574411498966"><ele>450.0</ele><time>2026-04-27T16:11:34.001Z</time></trkpt><trkpt lat="48.36358214271642" lon="11.736801428276241"><ele>450.0</ele><time>2026-04-27T16:11:35.001Z</time></trkpt><trkpt lat="48.36383960378637" lon="11.737022976865743"><ele>450.0</ele><time>2026-04-27T16:11:36.001Z</time></trkpt><trkpt lat="48.36409850607272" lon="11.737247859305503"><ele>450.0</ele><time>2026-04-27T16:11:37.001Z</time></trkpt><trkpt lat="48.36435326467855" lon="11.737468199497586"><ele>450.0</ele><time>2026-04-27T16:11:38.001Z</time></trkpt><trkpt lat="48.36461227102283" lon="11.737696118153723"><ele>451.5</ele><time>2026-04-27T16:11:39.001Z</time></trkpt><trkpt lat="48.364863772095106" lon="11.737926800014844"><ele>453.0</ele><time>2026-04-27T16:11:40.001Z</time></trkpt><trkpt lat="48.365117802124736" lon="11.738163619814701"><ele>453.0</ele><time>2026-04-27T16:11:41.001Z</time></trkpt><trkpt lat="48.36537139355948" lon="11.738397624101937"><ele>453.0</ele><time>2026-04-27T16:11:42.001Z</time></trkpt><trkpt lat="48.3656252976522" lon="11.738640496698954"><ele>453.0</ele><time>2026-04-27T16:11:43.001Z</time></trkpt><trkpt lat="48.365875837031595" lon="11.738883062308425"><ele>453.0</ele><time>2026-04-27T16:11:44.001Z</time></trkpt><trkpt lat="48.36612449818673" lon="11.739121814165484"><ele>452.0</ele><time>2026-04-27T16:11:45.001Z</time></trkpt><trkpt lat="48.36637562371253" lon="11.739360223220665"><ele>451.0</ele><time>2026-04-27T16:11:46.001Z</time></trkpt><trkpt lat="48.366623547695035" lon="11.739606171938433"><ele>451.0</ele><time>2026-04-27T16:11:47.001Z</time></trkpt><trkpt lat="48.366868470312745" lon="11.739851468870745"><ele>451.0</ele><time>2026-04-27T16:11:48.001Z</time></trkpt><trkpt lat="48.367113734134016" lon="11.740097953247297"><ele>451.0</ele><time>2026-04-27T16:11:49.001Z</time></trkpt><trkpt lat="48.367362522210094" lon="11.740351441262764"><ele>451.0</ele><time>2026-04-27T16:11:50.001Z</time></trkpt><trkpt lat="48.36761232976401" lon="11.740610860623876"><ele>451.0</ele><time>2026-04-27T16:11:51.001Z</time></trkpt><trkpt lat="48.367863325211424" lon="11.74086994201884"><ele>451.0</ele><time>2026-04-27T16:11:52.001Z</time></trkpt><trkpt lat="48.36811226424846" lon="11.741134830514632"><ele>451.0</ele><time>2026-04-27T16:11:53.001Z</time></trkpt><trkpt lat="48.36836023148293" lon="11.741400312964895"><ele>451.0</ele><time>2026-04-27T16:11:54.001Z</time></trkpt><trkpt lat="48.36860595157384" lon="11.741667183828424"><ele>450.0</ele><time>2026-04-27T16:11:55.001Z</time></trkpt><trkpt lat="48.36885258636092" lon="11.741937367995797"><ele>449.0</ele><time>2026-04-27T16:11:56.001Z</time></trkpt><trkpt lat="48.36909982959379" lon="11.74221284751568"><ele>447.5</ele><time>2026-04-27T16:11:57.001Z</time></trkpt><trkpt lat="48.369348096946496" lon="11.742489816016679"><ele>446.0</ele><time>2026-04-27T16:11:58.001Z</time></trkpt><trkpt lat="48.369587651554575" lon="11.742765577421453"><ele>444.5</ele><time>2026-04-27T16:11:59.001Z</time></trkpt><trkpt lat="48.36982619736573" lon="11.74304155881132"><ele>443.0</ele><time>2026-04-27T16:12:00.001Z</time></trkpt><trkpt lat="48.370061251714546" lon="11.743318312841291"><ele>444.0</ele><time>2026-04-27T16:12:01.001Z</time></trkpt><trkpt lat="48.37030096162227" lon="11.743598480989032"><ele>445.0</ele><time>2026-04-27T16:12:02.001Z</time></trkpt><trkpt lat="48.37053481429052" lon="11.743880356785093"><ele>446.0</ele><time>2026-04-27T16:12:03.001Z</time></trkpt><trkpt lat="48.37077028797975" lon="11.744161935489084"><ele>447.0</ele><time>2026-04-27T16:12:04.001Z</time></trkpt><trkpt lat="48.37100371565963" lon="11.744445639752266"><ele>447.0</ele><time>2026-04-27T16:12:05.001Z</time></trkpt><trkpt lat="48.371237005806414" lon="11.744734512382776"><ele>447.0</ele><time>2026-04-27T16:12:06.001Z</time></trkpt><trkpt lat="48.371473021006175" lon="11.74502597729122"><ele>447.0</ele><time>2026-04-27T16:12:07.001Z</time></trkpt><trkpt lat="48.371717319596975" lon="11.745315781379164"><ele>447.0</ele><time>2026-04-27T16:12:08.001Z</time></trkpt><trkpt lat="48.37194843272816" lon="11.74562572314771"><ele>447.0</ele><time>2026-04-27T16:12:09.001Z</time></trkpt><trkpt lat="48.37219373727099" lon="11.745936543926245"><ele>447.0</ele><time>2026-04-27T16:12:10.001Z</time></trkpt><trkpt lat="48.37244160367445" lon="11.74624517547775"><ele>446.0</ele><time>2026-04-27T16:12:11.001Z</time></trkpt><trkpt lat="48.37268974735436" lon="11.746552966872681"><ele>445.0</ele><time>2026-04-27T16:12:12.001Z</time></trkpt><trkpt lat="48.37293446052215" lon="11.746865485370911"><ele>445.0</ele><time>2026-04-27T16:12:13.001Z</time></trkpt><trkpt lat="48.37317890319002" lon="11.747185240016641"><ele>445.0</ele><time>2026-04-27T16:12:14.001Z</time></trkpt><trkpt lat="48.373419423584096" lon="11.747517259740828"><ele>445.0</ele><time>2026-04-27T16:12:15.001Z</time></trkpt><trkpt lat="48.37366193303538" lon="11.747858703233662"><ele>445.0</ele><time>2026-04-27T16:12:16.001Z</time></trkpt><trkpt lat="48.373901333751945" lon="11.748200479317035"><ele>444.5</ele><time>2026-04-27T16:12:17.001Z</time></trkpt><trkpt lat="48.37413212546253" lon="11.748533492749914"><ele>444.0</ele><time>2026-04-27T16:12:18.001Z</time></trkpt><trkpt lat="48.37436470678497" lon="11.748868192081998"><ele>444.0</ele><time>2026-04-27T16:12:19.001Z</time></trkpt><trkpt lat="48.374614820926645" lon="11.749227439298688"><ele>444.0</ele><time>2026-04-27T16:12:20.001Z</time></trkpt><trkpt lat="48.37487815584764" lon="11.749616578577353"><ele>445.0</ele><time>2026-04-27T16:12:21.001Z</time></trkpt><trkpt lat="48.375144717829535" lon="11.750010115647688"><ele>446.0</ele><time>2026-04-27T16:12:22.001Z</time></trkpt><trkpt lat="48.37540160963196" lon="11.750399922220378"><ele>446.0</ele><time>2026-04-27T16:12:23.001Z</time></trkpt><trkpt lat="48.37563670460752" lon="11.750768758794361"><ele>446.0</ele><time>2026-04-27T16:12:24.001Z</time></trkpt><trkpt lat="48.375866658410935" lon="11.7511387741102"><ele>446.0</ele><time>2026-04-27T16:12:25.001Z</time></trkpt><trkpt lat="48.37609738749728" lon="11.75150060996884"><ele>446.0</ele><time>2026-04-27T16:12:26.001Z</time></trkpt><trkpt lat="48.376310943943544" lon="11.751840862464642"><ele>445.0</ele><time>2026-04-27T16:12:27.001Z</time></trkpt><trkpt lat="48.37652003779834" lon="11.752173486340567"><ele>444.0</ele><time>2026-04-27T16:12:28.001Z</time></trkpt><trkpt lat="48.37672895492245" lon="11.752508124153554"><ele>444.0</ele><time>2026-04-27T16:12:29.001Z</time></trkpt><trkpt lat="48.37693866784315" lon="11.752850533703981"><ele>444.0</ele><time>2026-04-27T16:12:30.001Z</time></trkpt><trkpt lat="48.377148457182805" lon="11.753204082091315"><ele>444.0</ele><time>2026-04-27T16:12:31.001Z</time></trkpt><trkpt lat="48.37735832803306" lon="11.753573968596806"><ele>444.0</ele><time>2026-04-27T16:12:32.001Z</time></trkpt><trkpt lat="48.37756776064648" lon="11.753955831169378"><ele>444.0</ele><time>2026-04-27T16:12:33.001Z</time></trkpt><trkpt lat="48.37777188276898" lon="11.754335078325461"><ele>444.0</ele><time>2026-04-27T16:12:34.001Z</time></trkpt><trkpt lat="48.37797400432344" lon="11.754705283124126"><ele>443.5</ele><time>2026-04-27T16:12:35.001Z</time></trkpt><trkpt lat="48.37817870045321" lon="11.755068808544745"><ele>443.0</ele><time>2026-04-27T16:12:36.001Z</time></trkpt><trkpt lat="48.378381645744575" lon="11.755427396548093"><ele>443.0</ele><time>2026-04-27T16:12:37.001Z</time></trkpt><trkpt lat="48.37857901751275" lon="11.755783898569607"><ele>443.0</ele><time>2026-04-27T16:12:38.001Z</time></trkpt><trkpt lat="48.37877151806372" lon="11.756142268239087"><ele>444.0</ele><time>2026-04-27T16:12:39.001Z</time></trkpt><trkpt lat="48.37896434403083" lon="11.75649952666827"><ele>445.0</ele><time>2026-04-27T16:12:40.001Z</time></trkpt><trkpt lat="48.37915462594058" lon="11.756862388231186"><ele>443.5</ele><time>2026-04-27T16:12:41.001Z</time></trkpt><trkpt lat="48.37934430789035" lon="11.757221226590021"><ele>442.0</ele><time>2026-04-27T16:12:42.001Z</time></trkpt><trkpt lat="48.37952823240226" lon="11.757581365516414"><ele>442.5</ele><time>2026-04-27T16:12:43.001Z</time></trkpt><trkpt lat="48.37971658214662" lon="11.75794141387503"><ele>443.0</ele><time>2026-04-27T16:12:44.001Z</time></trkpt><trkpt lat="48.379906231558095" lon="11.758308798175584"><ele>442.0</ele><time>2026-04-27T16:12:45.001Z</time></trkpt><trkpt lat="48.38010120896791" lon="11.75867660004437"><ele>441.0</ele><time>2026-04-27T16:12:46.001Z</time></trkpt><trkpt lat="48.38030130375349" lon="11.759052037845157"><ele>441.0</ele><time>2026-04-27T16:12:47.001Z</time></trkpt><trkpt lat="48.38049416322219" lon="11.759431031989129"><ele>441.0</ele><time>2026-04-27T16:12:48.001Z</time></trkpt><trkpt lat="48.38068239178203" lon="11.759817185139045"><ele>441.5</ele><time>2026-04-27T16:12:49.001Z</time></trkpt><trkpt lat="48.380867131786985" lon="11.760205250219624"><ele>442.0</ele><time>2026-04-27T16:12:50.001Z</time></trkpt><trkpt lat="48.381049323372594" lon="11.760599577251133"><ele>442.0</ele><time>2026-04-27T16:12:51.001Z</time></trkpt><trkpt lat="48.38123471069119" lon="11.76099833817271"><ele>442.0</ele><time>2026-04-27T16:12:52.001Z</time></trkpt><trkpt lat="48.38141775570776" lon="11.761394157300334"><ele>441.0</ele><time>2026-04-27T16:12:53.001Z</time></trkpt><trkpt lat="48.38159011653728" lon="11.761780844538373"><ele>440.0</ele><time>2026-04-27T16:12:54.001Z</time></trkpt><trkpt lat="48.381758021579756" lon="11.762162117206415"><ele>440.0</ele><time>2026-04-27T16:12:55.001Z</time></trkpt><trkpt lat="48.38191341452862" lon="11.762519668672555"><ele>440.0</ele><time>2026-04-27T16:12:56.001Z</time></trkpt><trkpt lat="48.382066597143336" lon="11.762871983249893"><ele>440.5</ele><time>2026-04-27T16:12:57Z</time></trkpt><trkpt lat="48.38222787858378" lon="11.763238543443101"><ele>441.0</ele><time>2026-04-27T16:12:58Z</time></trkpt><trkpt lat="48.382393605734975" lon="11.763621316842817"><ele>440.0</ele><time>2026-04-27T16:12:59Z</time></trkpt><trkpt lat="48.38256381343795" lon="11.764024550507873"><ele>439.0</ele><time>2026-04-27T16:13:00Z</time></trkpt><trkpt lat="48.382729776237895" lon="11.764423674928159"><ele>439.0</ele><time>2026-04-27T16:13:01Z</time></trkpt><trkpt lat="48.38289164622806" lon="11.764819376924297"><ele>439.0</ele><time>2026-04-27T16:13:02Z</time></trkpt><trkpt lat="48.38305462525317" lon="11.76522294691071"><ele>440.0</ele><time>2026-04-27T16:13:03Z</time></trkpt><trkpt lat="48.38321751466193" lon="11.765624586656095"><ele>441.0</ele><time>2026-04-27T16:13:04Z</time></trkpt><trkpt lat="48.3833771170074" lon="11.76602925565012"><ele>441.0</ele><time>2026-04-27T16:13:05Z</time></trkpt><trkpt lat="48.38353438766091" lon="11.766427677350137"><ele>441.0</ele><time>2026-04-27T16:13:06Z</time></trkpt><trkpt lat="48.38368753632972" lon="11.766827208673243"><ele>441.5</ele><time>2026-04-27T16:13:07Z</time></trkpt><trkpt lat="48.383841474623026" lon="11.76723632615298"><ele>442.0</ele><time>2026-04-27T16:13:08Z</time></trkpt><trkpt lat="48.38399747117861" lon="11.767667883937353"><ele>442.5</ele><time>2026-04-27T16:13:09Z</time></trkpt><trkpt lat="48.384165195251825" lon="11.768100612925858"><ele>443.0</ele><time>2026-04-27T16:13:10Z</time></trkpt><trkpt lat="48.38432721950217" lon="11.76856176841129"><ele>442.0</ele><time>2026-04-27T16:13:11Z</time></trkpt><trkpt lat="48.384492429061154" lon="11.769037193967089"><ele>441.0</ele><time>2026-04-27T16:13:12Z</time></trkpt><trkpt lat="48.38465356992154" lon="11.769487146947613"><ele>440.5</ele><time>2026-04-27T16:13:13Z</time></trkpt><trkpt lat="48.38481224842598" lon="11.76994206400144"><ele>440.0</ele><time>2026-04-27T16:13:14Z</time></trkpt><trkpt lat="48.38496586028947" lon="11.77039947164593"><ele>440.0</ele><time>2026-04-27T16:13:15Z</time></trkpt><trkpt lat="48.3851150128022" lon="11.770851132827456"><ele>440.0</ele><time>2026-04-27T16:13:16Z</time></trkpt><trkpt lat="48.385260195723795" lon="11.771291204152227"><ele>440.5</ele><time>2026-04-27T16:13:17Z</time></trkpt><trkpt lat="48.38540643262896" lon="11.771738732890977"><ele>441.0</ele><time>2026-04-27T16:13:18Z</time></trkpt><trkpt lat="48.385548455648795" lon="11.772187887601467"><ele>439.5</ele><time>2026-04-27T16:13:19Z</time></trkpt><trkpt lat="48.3856883826277" lon="11.77263510867258"><ele>438.0</ele><time>2026-04-27T16:13:20Z</time></trkpt><trkpt lat="48.38582831207775" lon="11.773075618075858"><ele>438.5</ele><time>2026-04-27T16:13:21Z</time></trkpt><trkpt lat="48.385966307112355" lon="11.773522160144719"><ele>439.0</ele><time>2026-04-27T16:13:22Z</time></trkpt><trkpt lat="48.386100136372" lon="11.773961923236273"><ele>439.5</ele><time>2026-04-27T16:13:23Z</time></trkpt><trkpt lat="48.386230865214614" lon="11.774397957436534"><ele>440.0</ele><time>2026-04-27T16:13:24Z</time></trkpt><trkpt lat="48.38635721532527" lon="11.774833805392591"><ele>441.0</ele><time>2026-04-27T16:13:25Z</time></trkpt><trkpt lat="48.38648425448817" lon="11.775273810650477"><ele>442.0</ele><time>2026-04-27T16:13:26Z</time></trkpt><trkpt lat="48.38660760756881" lon="11.775718501257703"><ele>440.5</ele><time>2026-04-27T16:13:27Z</time></trkpt><trkpt lat="48.38673042884757" lon="11.776164313355881"><ele>439.0</ele><time>2026-04-27T16:13:28Z</time></trkpt><trkpt lat="48.3868491663258" lon="11.776620224792422"><ele>439.5</ele><time>2026-04-27T16:13:29Z</time></trkpt><trkpt lat="48.38696557077109" lon="11.777084678512363"><ele>440.0</ele><time>2026-04-27T16:13:30Z</time></trkpt><trkpt lat="48.38708063146453" lon="11.777547262088753"><ele>441.5</ele><time>2026-04-27T16:13:31Z</time></trkpt><trkpt lat="48.38719669503725" lon="11.778008430783629"><ele>443.0</ele><time>2026-04-27T16:13:32Z</time></trkpt><trkpt lat="48.38731038309121" lon="11.778466682969873"><ele>442.5</ele><time>2026-04-27T16:13:33Z</time></trkpt><trkpt lat="48.387423869175144" lon="11.778920842986611"><ele>442.0</ele><time>2026-04-27T16:13:34Z</time></trkpt><trkpt lat="48.38753518475271" lon="11.779378910698783"><ele>440.5</ele><time>2026-04-27T16:13:35Z</time></trkpt><trkpt lat="48.38764353344716" lon="11.779837407582743"><ele>439.0</ele><time>2026-04-27T16:13:36Z</time></trkpt><trkpt lat="48.38774909641227" lon="11.780289435087125"><ele>439.0</ele><time>2026-04-27T16:13:37Z</time></trkpt><trkpt lat="48.38785152177076" lon="11.780744141845402"><ele>439.0</ele><time>2026-04-27T16:13:38Z</time></trkpt><trkpt lat="48.38795491111895" lon="11.781198877309627"><ele>439.0</ele><time>2026-04-27T16:13:39Z</time></trkpt><trkpt lat="48.38805996554" lon="11.78165184128304"><ele>439.0</ele><time>2026-04-27T16:13:40Z</time></trkpt><trkpt lat="48.38817061859603" lon="11.782106305947018"><ele>439.0</ele><time>2026-04-27T16:13:41Z</time></trkpt><trkpt lat="48.3882770756532" lon="11.782561555927245"><ele>439.0</ele><time>2026-04-27T16:13:42Z</time></trkpt><trkpt lat="48.388377640367196" lon="11.783016647561519"><ele>439.0</ele><time>2026-04-27T16:13:43Z</time></trkpt><trkpt lat="48.388474458203945" lon="11.78346936196515"><ele>439.0</ele><time>2026-04-27T16:13:44Z</time></trkpt><trkpt lat="48.388566162499245" lon="11.783921843384238"><ele>438.5</ele><time>2026-04-27T16:13:45Z</time></trkpt><trkpt lat="48.38865542441506" lon="11.784372493750778"><ele>438.0</ele><time>2026-04-27T16:13:46Z</time></trkpt><trkpt lat="48.38874025125655" lon="11.784825529108739"><ele>438.0</ele><time>2026-04-27T16:13:47Z</time></trkpt><trkpt lat="48.38882233417224" lon="11.785278255794815"><ele>438.0</ele><time>2026-04-27T16:13:48Z</time></trkpt><trkpt lat="48.388902881054385" lon="11.785730278151467"><ele>438.0</ele><time>2026-04-27T16:13:49Z</time></trkpt><trkpt lat="48.388978606655336" lon="11.786184064786195"><ele>438.0</ele><time>2026-04-27T16:13:50Z</time></trkpt><trkpt lat="48.38904890800673" lon="11.786639911769818"><ele>438.5</ele><time>2026-04-27T16:13:51Z</time></trkpt><trkpt lat="48.389121005014914" lon="11.787098485961106"><ele>439.0</ele><time>2026-04-27T16:13:52Z</time></trkpt><trkpt lat="48.389195380035844" lon="11.787560111806068"><ele>439.0</ele><time>2026-04-27T16:13:53Z</time></trkpt><trkpt lat="48.38927029495369" lon="11.788022152716708"><ele>439.0</ele><time>2026-04-27T16:13:54Z</time></trkpt><trkpt lat="48.38934226481387" lon="11.788485773677996"><ele>439.0</ele><time>2026-04-27T16:13:55Z</time></trkpt><trkpt lat="48.38941172685083" lon="11.788950211189624"><ele>439.0</ele><time>2026-04-27T16:13:56Z</time></trkpt><trkpt lat="48.389480779437896" lon="11.789414334961576"><ele>439.0</ele><time>2026-04-27T16:13:57Z</time></trkpt><trkpt lat="48.38954877503582" lon="11.78987715912609"><ele>439.0</ele><time>2026-04-27T16:13:58Z</time></trkpt><trkpt lat="48.38961534984502" lon="11.79033951323546"><ele>439.0</ele><time>2026-04-27T16:13:59Z</time></trkpt><trkpt lat="48.38968065490759" lon="11.790799809429059"><ele>439.0</ele><time>2026-04-27T16:14:00Z</time></trkpt><trkpt lat="48.389743741207994" lon="11.791258735422298"><ele>438.0</ele><time>2026-04-27T16:14:01Z</time></trkpt><trkpt lat="48.38980414960429" lon="11.791719707768557"><ele>437.0</ele><time>2026-04-27T16:14:02Z</time></trkpt><trkpt lat="48.3898630030962" lon="11.792183788733931"><ele>437.0</ele><time>2026-04-27T16:14:03Z</time></trkpt><trkpt lat="48.38992208006015" lon="11.792657722192503"><ele>437.0</ele><time>2026-04-27T16:14:04Z</time></trkpt><trkpt lat="48.38998052364445" lon="11.79313527440071"><ele>436.5</ele><time>2026-04-27T16:14:05Z</time></trkpt><trkpt lat="48.39003754825162" lon="11.793641830112179"><ele>436.0</ele><time>2026-04-27T16:14:06Z</time></trkpt><trkpt lat="48.390099079271806" lon="11.794187518659786"><ele>436.0</ele><time>2026-04-27T16:14:07Z</time></trkpt><trkpt lat="48.39015930467383" lon="11.794752853422306"><ele>436.0</ele><time>2026-04-27T16:14:08Z</time></trkpt><trkpt lat="48.39022103752274" lon="11.795333594354805"><ele>436.0</ele><time>2026-04-27T16:14:09Z</time></trkpt><trkpt lat="48.39028806632186" lon="11.795924821296515"><ele>436.0</ele><time>2026-04-27T16:14:10Z</time></trkpt><trkpt lat="48.39035966569604" lon="11.79652176109001"><ele>436.0</ele><time>2026-04-27T16:14:11Z</time></trkpt><trkpt lat="48.39042213858501" lon="11.79712186029351"><ele>436.0</ele><time>2026-04-27T16:14:12Z</time></trkpt><trkpt lat="48.39047683643328" lon="11.797728757505427"><ele>436.5</ele><time>2026-04-27T16:14:13Z</time></trkpt><trkpt lat="48.3905219360914" lon="11.798304742699536"><ele>437.0</ele><time>2026-04-27T16:14:14Z</time></trkpt><trkpt lat="48.39056512195369" lon="11.79886402879994"><ele>435.0</ele><time>2026-04-27T16:14:15Z</time></trkpt><trkpt lat="48.39060979201359" lon="11.799391340304842"><ele>433.0</ele><time>2026-04-27T16:14:16Z</time></trkpt><trkpt lat="48.39065015304601" lon="11.79992124531315"><ele>433.5</ele><time>2026-04-27T16:14:17Z</time></trkpt><trkpt lat="48.390692803236455" lon="11.800447645876375"><ele>434.0</ele><time>2026-04-27T16:14:18Z</time></trkpt><trkpt lat="48.39072752880348" lon="11.800973764047816"><ele>434.5</ele><time>2026-04-27T16:14:19Z</time></trkpt><trkpt lat="48.390760783030764" lon="11.801495242377408"><ele>435.0</ele><time>2026-04-27T16:14:20Z</time></trkpt><trkpt lat="48.39079035734125" lon="11.802016756613094"><ele>434.5</ele><time>2026-04-27T16:14:21Z</time></trkpt><trkpt lat="48.390820267600894" lon="11.802538189778376"><ele>434.0</ele><time>2026-04-27T16:14:22Z</time></trkpt><trkpt lat="48.39085377989994" lon="11.803055316024759"><ele>434.5</ele><time>2026-04-27T16:14:23Z</time></trkpt><trkpt lat="48.39088566884816" lon="11.803572493401791"><ele>435.0</ele><time>2026-04-27T16:14:24Z</time></trkpt><trkpt lat="48.39091692896123" lon="11.804088530854255"><ele>434.5</ele><time>2026-04-27T16:14:25Z</time></trkpt><trkpt lat="48.3909473353102" lon="11.804596108461986"><ele>434.0</ele><time>2026-04-27T16:14:26Z</time></trkpt><trkpt lat="48.39097128462878" lon="11.805103754598166"><ele>434.0</ele><time>2026-04-27T16:14:27Z</time></trkpt><trkpt lat="48.390994360288246" lon="11.805605046325578"><ele>434.0</ele><time>2026-04-27T16:14:28Z</time></trkpt><trkpt lat="48.39101839925404" lon="11.806109964327058"><ele>433.5</ele><time>2026-04-27T16:14:29Z</time></trkpt><trkpt lat="48.391045770819964" lon="11.806616437825271"><ele>433.0</ele><time>2026-04-27T16:14:30Z</time></trkpt><trkpt lat="48.391073163469905" lon="11.80712186794449"><ele>433.0</ele><time>2026-04-27T16:14:31Z</time></trkpt><trkpt lat="48.39109965902558" lon="11.807633821071978"><ele>433.0</ele><time>2026-04-27T16:14:32Z</time></trkpt><trkpt lat="48.39112593094618" lon="11.808132238114734"><ele>432.5</ele><time>2026-04-27T16:14:33Z</time></trkpt><trkpt lat="48.39114958604943" lon="11.808627469276026"><ele>432.0</ele><time>2026-04-27T16:14:34Z</time></trkpt><trkpt lat="48.391170004945494" lon="11.809087716079928"><ele>432.0</ele><time>2026-04-27T16:14:35Z</time></trkpt><trkpt lat="48.39119674671017" lon="11.809544432421706"><ele>432.0</ele><time>2026-04-27T16:14:36Z</time></trkpt><trkpt lat="48.39121879648507" lon="11.810027642235912"><ele>432.0</ele><time>2026-04-27T16:14:37Z</time></trkpt><trkpt lat="48.39123964436634" lon="11.810513718978942"><ele>432.0</ele><time>2026-04-27T16:14:38Z</time></trkpt><trkpt lat="48.39126047161482" lon="11.810991090628802"><ele>432.0</ele><time>2026-04-27T16:14:39Z</time></trkpt><trkpt lat="48.39128367650445" lon="11.811461136327681"><ele>432.0</ele><time>2026-04-27T16:14:40Z</time></trkpt><trkpt lat="48.39130427390493" lon="11.811926619935857"><ele>432.5</ele><time>2026-04-27T16:14:41Z</time></trkpt><trkpt lat="48.39132358754364" lon="11.812390206776572"><ele>433.0</ele><time>2026-04-27T16:14:42Z</time></trkpt><trkpt lat="48.391346172845225" lon="11.81285648644257"><ele>433.0</ele><time>2026-04-27T16:14:43Z</time></trkpt><trkpt lat="48.39136739790173" lon="11.813327658150072"><ele>433.0</ele><time>2026-04-27T16:14:44Z</time></trkpt><trkpt lat="48.39138909623417" lon="11.813803900368887"><ele>432.5</ele><time>2026-04-27T16:14:45Z</time></trkpt><trkpt lat="48.391413050991055" lon="11.814281365084852"><ele>432.0</ele><time>2026-04-27T16:14:46Z</time></trkpt><trkpt lat="48.39143544746687" lon="11.814763602239033"><ele>432.5</ele><time>2026-04-27T16:14:47Z</time></trkpt><trkpt lat="48.39145855762633" lon="11.815248828873587"><ele>433.0</ele><time>2026-04-27T16:14:48Z</time></trkpt><trkpt lat="48.391480870337304" lon="11.815737110081127"><ele>433.0</ele><time>2026-04-27T16:14:49.001Z</time></trkpt><trkpt lat="48.39150393968107" lon="11.816229140312707"><ele>433.0</ele><time>2026-04-27T16:14:50.001Z</time></trkpt><trkpt lat="48.391526599210195" lon="11.816722255330442"><ele>433.0</ele><time>2026-04-27T16:14:51.001Z</time></trkpt><trkpt lat="48.3915455597234" lon="11.817218466356064"><ele>433.0</ele><time>2026-04-27T16:14:52.001Z</time></trkpt><trkpt lat="48.39155987978737" lon="11.817714654257568"><ele>433.5</ele><time>2026-04-27T16:14:53.001Z</time></trkpt><trkpt lat="48.39157945556547" lon="11.818207873000727"><ele>434.0</ele><time>2026-04-27T16:14:54.001Z</time></trkpt><trkpt lat="48.39160332793952" lon="11.818709957341"><ele>434.0</ele><time>2026-04-27T16:14:55Z</time></trkpt><trkpt lat="48.391634050461235" lon="11.819209308678149"><ele>434.0</ele><time>2026-04-27T16:14:56Z</time></trkpt><trkpt lat="48.39166609809761" lon="11.819710846541774"><ele>431.5</ele><time>2026-04-27T16:14:57Z</time></trkpt><trkpt lat="48.391694571790026" lon="11.820211667810737"><ele>429.0</ele><time>2026-04-27T16:14:58Z</time></trkpt><trkpt lat="48.39172322025739" lon="11.820709460738984"><ele>429.5</ele><time>2026-04-27T16:14:59Z</time></trkpt><trkpt lat="48.39175299378596" lon="11.821206022754987"><ele>430.0</ele><time>2026-04-27T16:15:00Z</time></trkpt><trkpt lat="48.3917846454388" lon="11.821700360029302"><ele>430.5</ele><time>2026-04-27T16:15:01Z</time></trkpt><trkpt lat="48.391819402344595" lon="11.82219716478771"><ele>431.0</ele><time>2026-04-27T16:15:02Z</time></trkpt><trkpt lat="48.39185607314738" lon="11.822694256276622"><ele>431.5</ele><time>2026-04-27T16:15:03Z</time></trkpt><trkpt lat="48.39189332303448" lon="11.82319138214403"><ele>432.0</ele><time>2026-04-27T16:15:04Z</time></trkpt><trkpt lat="48.391929617075924" lon="11.823688313340337"><ele>431.0</ele><time>2026-04-27T16:15:05Z</time></trkpt><trkpt lat="48.39196724668625" lon="11.824185479903557"><ele>430.0</ele><time>2026-04-27T16:15:06Z</time></trkpt><trkpt lat="48.392003880834544" lon="11.824681387471742"><ele>429.5</ele><time>2026-04-27T16:15:07Z</time></trkpt><trkpt lat="48.392040341802684" lon="11.8251787504332"><ele>429.0</ele><time>2026-04-27T16:15:08Z</time></trkpt><trkpt lat="48.39207827129119" lon="11.825676207926705"><ele>429.0</ele><time>2026-04-27T16:15:09Z</time></trkpt><trkpt lat="48.3921197190297" lon="11.826173337343782"><ele>429.0</ele><time>2026-04-27T16:15:10Z</time></trkpt><trkpt lat="48.392164747265376" lon="11.826670799073659"><ele>429.0</ele><time>2026-04-27T16:15:11Z</time></trkpt><trkpt lat="48.39220973838868" lon="11.827165940209069"><ele>429.0</ele><time>2026-04-27T16:15:12Z</time></trkpt><trkpt lat="48.39225457876405" lon="11.827660984585204"><ele>429.0</ele><time>2026-04-27T16:15:13Z</time></trkpt><trkpt lat="48.39230059578366" lon="11.828155263421714"><ele>429.0</ele><time>2026-04-27T16:15:14Z</time></trkpt><trkpt lat="48.392346268851206" lon="11.828650994139133"><ele>429.0</ele><time>2026-04-27T16:15:15Z</time></trkpt><trkpt lat="48.39239288379735" lon="11.829144781089854"><ele>429.0</ele><time>2026-04-27T16:15:16Z</time></trkpt><trkpt lat="48.3924414209238" lon="11.829639983466722"><ele>429.0</ele><time>2026-04-27T16:15:17Z</time></trkpt><trkpt lat="48.39249134126546" lon="11.830133752960052"><ele>429.0</ele><time>2026-04-27T16:15:18Z</time></trkpt><trkpt lat="48.392542480192105" lon="11.830625648851804"><ele>430.5</ele><time>2026-04-27T16:15:19Z</time></trkpt><trkpt lat="48.3925929313489" lon="11.831119803711543"><ele>432.0</ele><time>2026-04-27T16:15:20Z</time></trkpt><trkpt lat="48.39264533477461" lon="11.831613053750814"><ele>431.0</ele><time>2026-04-27T16:15:21Z</time></trkpt><trkpt lat="48.392700251069776" lon="11.832111420871785"><ele>430.0</ele><time>2026-04-27T16:15:22Z</time></trkpt><trkpt lat="48.39275635990919" lon="11.832611183807682"><ele>429.5</ele><time>2026-04-27T16:15:23Z</time></trkpt><trkpt lat="48.392812520262154" lon="11.833123641632314"><ele>429.0</ele><time>2026-04-27T16:15:24Z</time></trkpt><trkpt lat="48.39287118869921" lon="11.83362807797942"><ele>429.0</ele><time>2026-04-27T16:15:25Z</time></trkpt><trkpt lat="48.392932671994075" lon="11.834136378447932"><ele>429.0</ele><time>2026-04-27T16:15:26Z</time></trkpt><trkpt lat="48.39300351867889" lon="11.834647045743399"><ele>430.5</ele><time>2026-04-27T16:15:27Z</time></trkpt><trkpt lat="48.39307435240356" lon="11.835156414437025"><ele>432.0</ele><time>2026-04-27T16:15:28Z</time></trkpt><trkpt lat="48.39313778127528" lon="11.835656312229277"><ele>431.0</ele><time>2026-04-27T16:15:29Z</time></trkpt><trkpt lat="48.39319741151381" lon="11.836147569504227"><ele>430.0</ele><time>2026-04-27T16:15:30Z</time></trkpt><trkpt lat="48.39326413641237" lon="11.836667496006577"><ele>430.0</ele><time>2026-04-27T16:15:31Z</time></trkpt><trkpt lat="48.393338147852084" lon="11.837222894043666"><ele>430.0</ele><time>2026-04-27T16:15:32Z</time></trkpt><trkpt lat="48.393415186004425" lon="11.837793021331427"><ele>430.0</ele><time>2026-04-27T16:15:33Z</time></trkpt><trkpt lat="48.39349417860774" lon="11.838371033655934"><ele>430.0</ele><time>2026-04-27T16:15:34Z</time></trkpt><trkpt lat="48.39357047330698" lon="11.838951656394316"><ele>430.0</ele><time>2026-04-27T16:15:35Z</time></trkpt><trkpt lat="48.393647530693315" lon="11.83953085033256"><ele>430.0</ele><time>2026-04-27T16:15:36Z</time></trkpt><trkpt lat="48.393726861406904" lon="11.840106133411501"><ele>430.0</ele><time>2026-04-27T16:15:37Z</time></trkpt><trkpt lat="48.393809012638584" lon="11.840676712168525"><ele>430.0</ele><time>2026-04-27T16:15:38Z</time></trkpt><trkpt lat="48.39389231711171" lon="11.841243095973825"><ele>430.0</ele><time>2026-04-27T16:15:39Z</time></trkpt><trkpt lat="48.39397763434413" lon="11.841802796452562"><ele>430.0</ele><time>2026-04-27T16:15:40Z</time></trkpt><trkpt lat="48.39406081778335" lon="11.84235233240237"><ele>431.0</ele><time>2026-04-27T16:15:41Z</time></trkpt><trkpt lat="48.394143031057325" lon="11.842893967775987"><ele>432.0</ele><time>2026-04-27T16:15:42Z</time></trkpt><trkpt lat="48.394223009549364" lon="11.843432302763095"><ele>432.0</ele><time>2026-04-27T16:15:43Z</time></trkpt><trkpt lat="48.3943017036492" lon="11.843967040601676"><ele>432.0</ele><time>2026-04-27T16:15:44Z</time></trkpt><trkpt lat="48.394379661557444" lon="11.844501046924163"><ele>431.0</ele><time>2026-04-27T16:15:45Z</time></trkpt><trkpt lat="48.394455872699275" lon="11.84503106931935"><ele>430.0</ele><time>2026-04-27T16:15:46Z</time></trkpt><trkpt lat="48.39453426039424" lon="11.845552469024385"><ele>430.0</ele><time>2026-04-27T16:15:47Z</time></trkpt><trkpt lat="48.39461889577945" lon="11.846065820412482"><ele>430.0</ele><time>2026-04-27T16:15:48Z</time></trkpt><trkpt lat="48.39470678056727" lon="11.84657429093806"><ele>430.5</ele><time>2026-04-27T16:15:49Z</time></trkpt><trkpt lat="48.394796024602314" lon="11.8470811935012"><ele>431.0</ele><time>2026-04-27T16:15:50Z</time></trkpt><trkpt lat="48.39488280067393" lon="11.847588801097974"><ele>430.5</ele><time>2026-04-27T16:15:51Z</time></trkpt><trkpt lat="48.39496820484688" lon="11.848097424806628"><ele>430.0</ele><time>2026-04-27T16:15:52Z</time></trkpt><trkpt lat="48.39505586385206" lon="11.848604312357303"><ele>430.0</ele><time>2026-04-27T16:15:53Z</time></trkpt><trkpt lat="48.39514448595669" lon="11.849107715232183"><ele>430.0</ele><time>2026-04-27T16:15:54Z</time></trkpt><trkpt lat="48.395235329277114" lon="11.849607956689573"><ele>430.0</ele><time>2026-04-27T16:15:55Z</time></trkpt><trkpt lat="48.39532837207654" lon="11.85010636097862"><ele>430.0</ele><time>2026-04-27T16:15:56Z</time></trkpt><trkpt lat="48.39542135778206" lon="11.850601390528247"><ele>429.5</ele><time>2026-04-27T16:15:57Z</time></trkpt><trkpt lat="48.39551262528001" lon="11.851090365703932"><ele>429.0</ele><time>2026-04-27T16:15:58Z</time></trkpt><trkpt lat="48.395603414438234" lon="11.851573659267071"><ele>429.0</ele><time>2026-04-27T16:15:59Z</time></trkpt><trkpt lat="48.39569525113282" lon="11.852049947132524"><ele>429.0</ele><time>2026-04-27T16:16:00Z</time></trkpt><trkpt lat="48.39578660668326" lon="11.852522145932321"><ele>429.5</ele><time>2026-04-27T16:16:01Z</time></trkpt><trkpt lat="48.39587848482086" lon="11.852989358705328"><ele>430.0</ele><time>2026-04-27T16:16:02Z</time></trkpt><trkpt lat="48.39597014809008" lon="11.853453470520174"><ele>429.5</ele><time>2026-04-27T16:16:03Z</time></trkpt><trkpt lat="48.39606171223726" lon="11.853912538823305"><ele>429.0</ele><time>2026-04-27T16:16:04Z</time></trkpt><trkpt lat="48.396151358094905" lon="11.854363242426512"><ele>429.0</ele><time>2026-04-27T16:16:05Z</time></trkpt><trkpt lat="48.39623638613326" lon="11.854787502301814"><ele>429.0</ele><time>2026-04-27T16:16:06Z</time></trkpt><trkpt lat="48.396319040523124" lon="11.855209137128199"><ele>429.0</ele><time>2026-04-27T16:16:07Z</time></trkpt><trkpt lat="48.396392061855316" lon="11.85562448480386"><ele>429.0</ele><time>2026-04-27T16:16:08Z</time></trkpt><trkpt lat="48.396462990971" lon="11.856021360405585"><ele>429.0</ele><time>2026-04-27T16:16:09Z</time></trkpt><trkpt lat="48.3965420616753" lon="11.856385730115889"><ele>429.0</ele><time>2026-04-27T16:16:10Z</time></trkpt><trkpt lat="48.396616516734476" lon="11.856718398382272"><ele>429.0</ele><time>2026-04-27T16:16:11Z</time></trkpt><trkpt lat="48.39667968051155" lon="11.857018254299462"><ele>429.0</ele><time>2026-04-27T16:16:12Z</time></trkpt><trkpt lat="48.396735819522334" lon="11.857282158479984"><ele>429.0</ele><time>2026-04-27T16:16:13Z</time></trkpt><trkpt lat="48.39678767966549" lon="11.857529788768835"><ele>428.75</ele><time>2026-04-27T16:16:14Z</time></trkpt><trkpt lat="48.396834420430345" lon="11.857766365909752"><ele>428.5</ele><time>2026-04-27T16:16:15Z</time></trkpt><trkpt lat="48.39688161824126" lon="11.857962512690893"><ele>428.25</ele><time>2026-04-27T16:16:16Z</time></trkpt><trkpt lat="48.39691754612584" lon="11.858129818920046"><ele>428.0</ele><time>2026-04-27T16:16:17Z</time></trkpt><trkpt lat="48.39694498811874" lon="11.85828377657457"><ele>428.0</ele><time>2026-04-27T16:16:18Z</time></trkpt><trkpt lat="48.39695710810493" lon="11.858432239795167"><ele>427.99999999999994</ele><time>2026-04-27T16:16:19Z</time></trkpt><trkpt lat="48.396949424050824" lon="11.858588748266165"><ele>427.99999999999994</ele><time>2026-04-27T16:16:20Z</time></trkpt><trkpt lat="48.39691942975016" lon="11.858754182832804"><ele>428.0</ele><time>2026-04-27T16:16:21Z</time></trkpt><trkpt lat="48.396860569944785" lon="11.858912933800699"><ele>428.0</ele><time>2026-04-27T16:16:22Z</time></trkpt><trkpt lat="48.396778112416" lon="11.859050697326616"><ele>428.0</ele><time>2026-04-27T16:16:23Z</time></trkpt><trkpt lat="48.39667746099188" lon="11.859147277655772"><ele>428.0</ele><time>2026-04-27T16:16:24Z</time></trkpt><trkpt lat="48.396565946857194" lon="11.859197522051325"><ele>428.0</ele><time>2026-04-27T16:16:25Z</time></trkpt><trkpt lat="48.39644988238494" lon="11.859201827489798"><ele>428.0</ele><time>2026-04-27T16:16:26Z</time></trkpt><trkpt lat="48.39633715117838" lon="11.859167923806396"><ele>428.0</ele><time>2026-04-27T16:16:27Z</time></trkpt><trkpt lat="48.396230669727345" lon="11.85910945870503"><ele>428.0</ele><time>2026-04-27T16:16:28Z</time></trkpt><trkpt lat="48.39613622932998" lon="11.859016477648499"><ele>428.0</ele><time>2026-04-27T16:16:29Z</time></trkpt><trkpt lat="48.396056299151134" lon="11.858881638559016"><ele>428.0</ele><time>2026-04-27T16:16:30Z</time></trkpt><trkpt lat="48.39599924969663" lon="11.858713669942123"><ele>428.0</ele><time>2026-04-27T16:16:31Z</time></trkpt><trkpt lat="48.395965717196624" lon="11.858519604291644"><ele>428.0</ele><time>2026-04-27T16:16:32Z</time></trkpt><trkpt lat="48.39594258406332" lon="11.858324045143982"><ele>428.0</ele><time>2026-04-27T16:16:33Z</time></trkpt><trkpt lat="48.39592325289732" lon="11.858153543145848"><ele>428.0</ele><time>2026-04-27T16:16:34Z</time></trkpt><trkpt lat="48.395904384338415" lon="11.858005910039703"><ele>428.3333333333333</ele><time>2026-04-27T16:16:35Z</time></trkpt><trkpt lat="48.395887913440255" lon="11.857863476542631"><ele>428.66666666666663</ele><time>2026-04-27T16:16:36Z</time></trkpt><trkpt lat="48.395878283750086" lon="11.857738481956158"><ele>429.0</ele><time>2026-04-27T16:16:37Z</time></trkpt><trkpt lat="48.39588218871429" lon="11.857612089446263"><ele>429.33333333333337</ele><time>2026-04-27T16:16:39Z</time></trkpt><trkpt lat="48.395918311117455" lon="11.857517271308373"><ele>429.6666666666667</ele><time>2026-04-27T16:16:41Z</time></trkpt><trkpt lat="48.396022773803004" lon="11.857457110512712"><ele>430.0</ele><time>2026-04-27T16:16:43Z</time></trkpt><trkpt lat="48.396111604231024" lon="11.857436316769608"><ele>430.25</ele><time>2026-04-27T16:16:44Z</time></trkpt><trkpt lat="48.396221589181835" lon="11.857410092757801"><ele>430.5</ele><time>2026-04-27T16:16:45Z</time></trkpt><trkpt lat="48.39635777412044" lon="11.857376499564339"><ele>430.75</ele><time>2026-04-27T16:16:46Z</time></trkpt><trkpt lat="48.39648883880653" lon="11.857341738938837"><ele>431.0</ele><time>2026-04-27T16:16:47Z</time></trkpt><trkpt lat="48.39664140601215" lon="11.857303214797994"><ele>431.0</ele><time>2026-04-27T16:16:48Z</time></trkpt><trkpt lat="48.396810403494" lon="11.857264221634075"><ele>431.0</ele><time>2026-04-27T16:16:49Z</time></trkpt><trkpt lat="48.39698917723638" lon="11.85723257976974"><ele>431.0</ele><time>2026-04-27T16:16:50Z</time></trkpt><trkpt lat="48.39718165315043" lon="11.857207917291724"><ele>431.0</ele><time>2026-04-27T16:16:51Z</time></trkpt><trkpt lat="48.397384912836614" lon="11.85719335675382"><ele>431.0</ele><time>2026-04-27T16:16:52Z</time></trkpt><trkpt lat="48.397593638971216" lon="11.857183015336174"><ele>431.0</ele><time>2026-04-27T16:16:53Z</time></trkpt><trkpt lat="48.397809305964984" lon="11.857173797505405"><ele>430.3333333333333</ele><time>2026-04-27T16:16:54Z</time></trkpt><trkpt lat="48.398029762183846" lon="11.857169628096212"><ele>429.66666666666663</ele><time>2026-04-27T16:16:55Z</time></trkpt><trkpt lat="48.39824895673143" lon="11.857182828231023"><ele>429.0</ele><time>2026-04-27T16:16:56Z</time></trkpt><trkpt lat="48.39846546862007" lon="11.857204736920844"><ele>429.0</ele><time>2026-04-27T16:16:57Z</time></trkpt><trkpt lat="48.3986803015607" lon="11.857235759229937"><ele>429.0</ele><time>2026-04-27T16:16:58Z</time></trkpt><trkpt lat="48.39889373908322" lon="11.857286435499253"><ele>429.0</ele><time>2026-04-27T16:16:59Z</time></trkpt><trkpt lat="48.399109335757906" lon="11.85736519030212"><ele>428.33333333333337</ele><time>2026-04-27T16:17:00Z</time></trkpt><trkpt lat="48.39932212441933" lon="11.857456400388331"><ele>427.6666666666667</ele><time>2026-04-27T16:17:01Z</time></trkpt><trkpt lat="48.39953219915827" lon="11.857554384456009"><ele>427.0</ele><time>2026-04-27T16:17:02Z</time></trkpt><trkpt lat="48.39973802004547" lon="11.85767659459182"><ele>427.0</ele><time>2026-04-27T16:17:03Z</time></trkpt><trkpt lat="48.39993036688411" lon="11.857846661141352"><ele>427.0</ele><time>2026-04-27T16:17:04Z</time></trkpt><trkpt lat="48.400123132020155" lon="11.858021055328438"><ele>427.0</ele><time>2026-04-27T16:17:05Z</time></trkpt><trkpt lat="48.400309005807266" lon="11.858216554620121"><ele>427.0</ele><time>2026-04-27T16:17:06Z</time></trkpt><trkpt lat="48.40048519960588" lon="11.858431733051273"><ele>427.0</ele><time>2026-04-27T16:17:07Z</time></trkpt><trkpt lat="48.400648375444476" lon="11.858667145664244"><ele>427.5</ele><time>2026-04-27T16:17:08Z</time></trkpt><trkpt lat="48.400801237862204" lon="11.858918842041136"><ele>428.0</ele><time>2026-04-27T16:17:09Z</time></trkpt><trkpt lat="48.40093885756691" lon="11.859185123358955"><ele>428.0</ele><time>2026-04-27T16:17:10Z</time></trkpt><trkpt lat="48.40106083117456" lon="11.85947300903736"><ele>428.0</ele><time>2026-04-27T16:17:11Z</time></trkpt><trkpt lat="48.40117546374745" lon="11.859773792657801"><ele>428.0</ele><time>2026-04-27T16:17:12Z</time></trkpt><trkpt lat="48.401272843246495" lon="11.860082770629571"><ele>428.0</ele><time>2026-04-27T16:17:13Z</time></trkpt><trkpt lat="48.40135456006337" lon="11.860413800693665"><ele>428.5</ele><time>2026-04-27T16:17:14Z</time></trkpt><trkpt lat="48.401416943343676" lon="11.860755782495957"><ele>429.0</ele><time>2026-04-27T16:17:15Z</time></trkpt><trkpt lat="48.401476012366594" lon="11.861101874901813"><ele>429.0</ele><time>2026-04-27T16:17:16Z</time></trkpt><trkpt lat="48.40150182535009" lon="11.861455664931986"><ele>429.0</ele><time>2026-04-27T16:17:17Z</time></trkpt><trkpt lat="48.401518906545704" lon="11.861814524968903"><ele>428.0</ele><time>2026-04-27T16:17:18Z</time></trkpt><trkpt lat="48.40153088881668" lon="11.862168535595842"><ele>427.0</ele><time>2026-04-27T16:17:19Z</time></trkpt><trkpt lat="48.4015438656984" lon="11.862517516078423"><ele>427.0</ele><time>2026-04-27T16:17:20Z</time></trkpt><trkpt lat="48.40155863714461" lon="11.86286064550442"><ele>427.0</ele><time>2026-04-27T16:17:21Z</time></trkpt><trkpt lat="48.40157511840463" lon="11.86318546037668"><ele>427.0</ele><time>2026-04-27T16:17:22Z</time></trkpt><trkpt lat="48.40160195261414" lon="11.86350600611208"><ele>427.0</ele><time>2026-04-27T16:17:23Z</time></trkpt><trkpt lat="48.401650465909206" lon="11.863827816895675"><ele>427.0</ele><time>2026-04-27T16:17:24Z</time></trkpt><trkpt lat="48.401715730986076" lon="11.864148314638845"><ele>427.0</ele><time>2026-04-27T16:17:25Z</time></trkpt><trkpt lat="48.40179957327932" lon="11.864464230090448"><ele>427.5</ele><time>2026-04-27T16:17:26Z</time></trkpt><trkpt lat="48.40190599984428" lon="11.864763186086785"><ele>428.0</ele><time>2026-04-27T16:17:27Z</time></trkpt><trkpt lat="48.40202770354583" lon="11.865051961665403"><ele>427.66666666666663</ele><time>2026-04-27T16:17:28Z</time></trkpt><trkpt lat="48.40216382021051" lon="11.865321530836834"><ele>427.33333333333337</ele><time>2026-04-27T16:17:29Z</time></trkpt><trkpt lat="48.40231362770065" lon="11.86557196719599"><ele>427.0</ele><time>2026-04-27T16:17:30Z</time></trkpt><trkpt lat="48.40247870741382" lon="11.865800009368664"><ele>427.33333333333337</ele><time>2026-04-27T16:17:31Z</time></trkpt><trkpt lat="48.402652083376196" lon="11.866014555927569"><ele>427.66666666666663</ele><time>2026-04-27T16:17:32Z</time></trkpt><trkpt lat="48.402836744002634" lon="11.86620537749638"><ele>428.0</ele><time>2026-04-27T16:17:33Z</time></trkpt><trkpt lat="48.40303549364893" lon="11.866368773532052"><ele>427.0</ele><time>2026-04-27T16:17:34Z</time></trkpt><trkpt lat="48.40324748187253" lon="11.866502022498123"><ele>426.0</ele><time>2026-04-27T16:17:35Z</time></trkpt><trkpt lat="48.4034679993394" lon="11.86661962895858"><ele>426.0</ele><time>2026-04-27T16:17:36Z</time></trkpt><trkpt lat="48.403684343687324" lon="11.866719108771806"><ele>426.0</ele><time>2026-04-27T16:17:37Z</time></trkpt><trkpt lat="48.403902740735916" lon="11.866821912115963"><ele>426.0</ele><time>2026-04-27T16:17:38Z</time></trkpt><trkpt lat="48.40411113778733" lon="11.866923717042871"><ele>426.0</ele><time>2026-04-27T16:17:39Z</time></trkpt><trkpt lat="48.40430886068188" lon="11.867020805784678"><ele>426.0</ele><time>2026-04-27T16:17:40Z</time></trkpt><trkpt lat="48.40449774083026" lon="11.867110087151014"><ele>426.0</ele><time>2026-04-27T16:17:41Z</time></trkpt><trkpt lat="48.40469242704022" lon="11.867186937598348"><ele>426.0</ele><time>2026-04-27T16:17:42Z</time></trkpt><trkpt lat="48.40489472378797" lon="11.86724761817729"><ele>426.0</ele><time>2026-04-27T16:17:43Z</time></trkpt><trkpt lat="48.405101611945845" lon="11.867283579927191"><ele>426.0</ele><time>2026-04-27T16:17:44Z</time></trkpt><trkpt lat="48.405309706215974" lon="11.867309312299465"><ele>426.0</ele><time>2026-04-27T16:17:45Z</time></trkpt><trkpt lat="48.40550594041945" lon="11.867337090421753"><ele>426.0</ele><time>2026-04-27T16:17:46Z</time></trkpt><trkpt lat="48.405697642712816" lon="11.867361303904513"><ele>426.0</ele><time>2026-04-27T16:17:47Z</time></trkpt><trkpt lat="48.40587750367457" lon="11.867388441083856"><ele>426.0</ele><time>2026-04-27T16:17:48Z</time></trkpt><trkpt lat="48.40604379631271" lon="11.867414634424179"><ele>426.0</ele><time>2026-04-27T16:17:49Z</time></trkpt><trkpt lat="48.406186800182816" lon="11.867468479043742"><ele>426.0</ele><time>2026-04-27T16:17:50Z</time></trkpt><trkpt lat="48.406315152228956" lon="11.867503730181292"><ele>426.0</ele><time>2026-04-27T16:17:51Z</time></trkpt><trkpt lat="48.406438357156944" lon="11.867516222167213"><ele>426.0</ele><time>2026-04-27T16:17:52Z</time></trkpt><trkpt lat="48.40655118453118" lon="11.867560870706832"><ele>426.0</ele><time>2026-04-27T16:17:53Z</time></trkpt><trkpt lat="48.40666103368868" lon="11.867637050923367"><ele>426.20000000000005</ele><time>2026-04-27T16:17:54Z</time></trkpt><trkpt lat="48.40675490350166" lon="11.867711530896797"><ele>426.40000000000003</ele><time>2026-04-27T16:17:55Z</time></trkpt><trkpt lat="48.40684968418594" lon="11.867777960781956"><ele>426.6</ele><time>2026-04-27T16:17:56Z</time></trkpt><trkpt lat="48.40692826133085" lon="11.867875730961773"><ele>426.8</ele><time>2026-04-27T16:17:57Z</time></trkpt><trkpt lat="48.40700246957297" lon="11.867973457118142"><ele>427.0</ele><time>2026-04-27T16:17:58Z</time></trkpt><trkpt lat="48.40707376314818" lon="11.868067381320875"><ele>427.0</ele><time>2026-04-27T16:17:59Z</time></trkpt><trkpt lat="48.40714964958526" lon="11.868169340995678"><ele>427.00000000000006</ele><time>2026-04-27T16:18:00Z</time></trkpt><trkpt lat="48.40722530241099" lon="11.868278223124507"><ele>427.00000000000006</ele><time>2026-04-27T16:18:01Z</time></trkpt><trkpt lat="48.40729442614315" lon="11.868398611690003"><ele>427.0</ele><time>2026-04-27T16:18:02Z</time></trkpt><trkpt lat="48.40735807983053" lon="11.868525911565134"><ele>427.0</ele><time>2026-04-27T16:18:03Z</time></trkpt><trkpt lat="48.407419573877505" lon="11.868654424913542"><ele>427.20000000000005</ele><time>2026-04-27T16:18:04Z</time></trkpt><trkpt lat="48.4074777287359" lon="11.868791717697649"><ele>427.40000000000003</ele><time>2026-04-27T16:18:05Z</time></trkpt><trkpt lat="48.40754290944634" lon="11.868912397578745"><ele>427.59999999999997</ele><time>2026-04-27T16:18:06Z</time></trkpt><trkpt lat="48.40760661713076" lon="11.86903483456162"><ele>427.79999999999995</ele><time>2026-04-27T16:18:07Z</time></trkpt><trkpt lat="48.407669945922365" lon="11.869156146301636"><ele>428.0</ele><time>2026-04-27T16:18:08Z</time></trkpt><trkpt lat="48.40773265138929" lon="11.869280065716156"><ele>428.0</ele><time>2026-04-27T16:18:09Z</time></trkpt><trkpt lat="48.40779409851946" lon="11.869402301582648"><ele>427.99999999999994</ele><time>2026-04-27T16:18:10Z</time></trkpt><trkpt lat="48.407849639382704" lon="11.869528575978602"><ele>427.99999999999994</ele><time>2026-04-27T16:18:11Z</time></trkpt><trkpt lat="48.407907068321016" lon="11.86964883843573"><ele>428.0</ele><time>2026-04-27T16:18:12Z</time></trkpt><trkpt lat="48.40796711720158" lon="11.869760676740315"><ele>428.0</ele><time>2026-04-27T16:18:13Z</time></trkpt><trkpt lat="48.40803744256121" lon="11.869867581591157"><ele>428.2</ele><time>2026-04-27T16:18:14Z</time></trkpt><trkpt lat="48.408109932168955" lon="11.86997691507464"><ele>428.4</ele><time>2026-04-27T16:18:15Z</time></trkpt><trkpt lat="48.408182595470656" lon="11.870092402018996"><ele>428.59999999999997</ele><time>2026-04-27T16:18:16Z</time></trkpt><trkpt lat="48.408257291950484" lon="11.870207042240347"><ele>428.79999999999995</ele><time>2026-04-27T16:18:17Z</time></trkpt><trkpt lat="48.4083312130452" lon="11.870320970135584"><ele>429.0</ele><time>2026-04-27T16:18:18Z</time></trkpt><trkpt lat="48.40840033665322" lon="11.870438677316145"><ele>429.0</ele><time>2026-04-27T16:18:19Z</time></trkpt><trkpt lat="48.4084679082985" lon="11.870562722431616"><ele>429.0</ele><time>2026-04-27T16:18:20Z</time></trkpt><trkpt lat="48.40852606667559" lon="11.870688233345629"><ele>429.0</ele><time>2026-04-27T16:18:21Z</time></trkpt><trkpt lat="48.40858719236997" lon="11.870813203488225"><ele>429.0</ele><time>2026-04-27T16:18:22Z</time></trkpt><trkpt lat="48.40864867898803" lon="11.870944947200648"><ele>429.0</ele><time>2026-04-27T16:18:23Z</time></trkpt><trkpt lat="48.4087129642196" lon="11.87107938534224"><ele>429.0</ele><time>2026-04-27T16:18:24Z</time></trkpt><trkpt lat="48.408773715209385" lon="11.871215182401409"><ele>429.0</ele><time>2026-04-27T16:18:25Z</time></trkpt><trkpt lat="48.408833183337435" lon="11.871348702948845"><ele>429.0</ele><time>2026-04-27T16:18:26Z</time></trkpt><trkpt lat="48.40889012437588" lon="11.871481711941744"><ele>429.0</ele><time>2026-04-27T16:18:27Z</time></trkpt><trkpt lat="48.40894844370117" lon="11.871611825897123"><ele>429.0</ele><time>2026-04-27T16:18:28Z</time></trkpt><trkpt lat="48.409006763320626" lon="11.87173623014795"><ele>428.79999999999995</ele><time>2026-04-27T16:18:29Z</time></trkpt><trkpt lat="48.409063688791136" lon="11.87186522872135"><ele>428.59999999999997</ele><time>2026-04-27T16:18:30Z</time></trkpt><trkpt lat="48.409121787133856" lon="11.871994966133627"><ele>428.4</ele><time>2026-04-27T16:18:31Z</time></trkpt><trkpt lat="48.409179811281575" lon="11.872122951667201"><ele>428.2</ele><time>2026-04-27T16:18:32Z</time></trkpt><trkpt lat="48.40923868110194" lon="11.872254184173784"><ele>428.0</ele><time>2026-04-27T16:18:33Z</time></trkpt><trkpt lat="48.40930048400422" lon="11.872374675832669"><ele>428.0</ele><time>2026-04-27T16:18:34Z</time></trkpt><trkpt lat="48.40936318787752" lon="11.872497190341239"><ele>427.99999999999994</ele><time>2026-04-27T16:18:35Z</time></trkpt><trkpt lat="48.40941909825175" lon="11.872625816546083"><ele>427.99999999999994</ele><time>2026-04-27T16:18:36Z</time></trkpt><trkpt lat="48.40947019212274" lon="11.872757583641997"><ele>428.0</ele><time>2026-04-27T16:18:37Z</time></trkpt><trkpt lat="48.40951922280497" lon="11.872890500103319"><ele>428.0</ele><time>2026-04-27T16:18:38Z</time></trkpt><trkpt lat="48.40956693908817" lon="11.873033014261894"><ele>428.0</ele><time>2026-04-27T16:18:39Z</time></trkpt><trkpt lat="48.40961239741224" lon="11.873184916699817"><ele>427.99999999999994</ele><time>2026-04-27T16:18:40Z</time></trkpt><trkpt lat="48.40966778494652" lon="11.873340752243767"><ele>427.99999999999994</ele><time>2026-04-27T16:18:41Z</time></trkpt><trkpt lat="48.409725433889434" lon="11.87348257603092"><ele>428.0</ele><time>2026-04-27T16:18:42Z</time></trkpt><trkpt lat="48.40978542097757" lon="11.873617710180314"><ele>428.0</ele><time>2026-04-27T16:18:43Z</time></trkpt><trkpt lat="48.409847690358674" lon="11.873754800518329"><ele>428.0</ele><time>2026-04-27T16:18:44Z</time></trkpt><trkpt lat="48.409908310917466" lon="11.873890195268796"><ele>427.99999999999994</ele><time>2026-04-27T16:18:45Z</time></trkpt><trkpt lat="48.409969126925475" lon="11.874029171836053"><ele>427.99999999999994</ele><time>2026-04-27T16:18:46Z</time></trkpt><trkpt lat="48.410035629962174" lon="11.874160135770708"><ele>428.0</ele><time>2026-04-27T16:18:47Z</time></trkpt><trkpt lat="48.410105770436175" lon="11.874290779129042"><ele>428.0</ele><time>2026-04-27T16:18:48Z</time></trkpt><trkpt lat="48.410172411045004" lon="11.874437100239845"><ele>427.25</ele><time>2026-04-27T16:18:49Z</time></trkpt><trkpt lat="48.41023318734221" lon="11.874584170315948"><ele>426.5</ele><time>2026-04-27T16:18:50Z</time></trkpt><trkpt lat="48.41030492603806" lon="11.87471804218727"><ele>425.75</ele><time>2026-04-27T16:18:51Z</time></trkpt><trkpt lat="48.410368598817534" lon="11.8748546786141"><ele>425.0</ele><time>2026-04-27T16:18:52Z</time></trkpt><trkpt lat="48.410436318053655" lon="11.874999324775644"><ele>425.75</ele><time>2026-04-27T16:18:53Z</time></trkpt><trkpt lat="48.41050878739985" lon="11.87514267873866"><ele>426.5</ele><time>2026-04-27T16:18:54Z</time></trkpt><trkpt lat="48.41058226777795" lon="11.87528626281977"><ele>427.25</ele><time>2026-04-27T16:18:55Z</time></trkpt><trkpt lat="48.41064638517283" lon="11.875436304802795"><ele>428.0</ele><time>2026-04-27T16:18:56Z</time></trkpt><trkpt lat="48.410716671011905" lon="11.87557427874117"><ele>428.0</ele><time>2026-04-27T16:18:57Z</time></trkpt><trkpt lat="48.410782678754245" lon="11.87571130321461"><ele>427.99999999999994</ele><time>2026-04-27T16:18:58Z</time></trkpt><trkpt lat="48.41084643643663" lon="11.875852285869483"><ele>427.99999999999994</ele><time>2026-04-27T16:18:59Z</time></trkpt><trkpt lat="48.41090896587704" lon="11.875991747481518"><ele>428.0</ele><time>2026-04-27T16:19:00Z</time></trkpt><trkpt lat="48.41097205851115" lon="11.876129592139394"><ele>428.0</ele><time>2026-04-27T16:19:01Z</time></trkpt><trkpt lat="48.41103347217667" lon="11.876265414982646"><ele>428.0</ele><time>2026-04-27T16:19:02Z</time></trkpt><trkpt lat="48.411089425257934" lon="11.876403242269083"><ele>427.99999999999994</ele><time>2026-04-27T16:19:03Z</time></trkpt><trkpt lat="48.41114642268458" lon="11.876542118967437"><ele>427.99999999999994</ele><time>2026-04-27T16:19:04Z</time></trkpt><trkpt lat="48.41121109488401" lon="11.87667618461115"><ele>428.0</ele><time>2026-04-27T16:19:05Z</time></trkpt><trkpt lat="48.411279059079554" lon="11.876806478349952"><ele>428.0</ele><time>2026-04-27T16:19:06Z</time></trkpt><trkpt lat="48.41134427648858" lon="11.876940299152132"><ele>427.59999999999997</ele><time>2026-04-27T16:19:07Z</time></trkpt><trkpt lat="48.41140851502952" lon="11.8770729118377"><ele>427.19999999999993</ele><time>2026-04-27T16:19:08Z</time></trkpt><trkpt lat="48.411468879765145" lon="11.877204957258842"><ele>426.8</ele><time>2026-04-27T16:19:09Z</time></trkpt><trkpt lat="48.41152735534739" lon="11.877336895045614"><ele>426.4</ele><time>2026-04-27T16:19:10Z</time></trkpt><trkpt lat="48.411584498340495" lon="11.877466184895894"><ele>426.0</ele><time>2026-04-27T16:19:11Z</time></trkpt><trkpt lat="48.41164440299278" lon="11.877594657544911"><ele>426.0</ele><time>2026-04-27T16:19:12Z</time></trkpt><trkpt lat="48.41170812414978" lon="11.877724405488632"><ele>426.0</ele><time>2026-04-27T16:19:13Z</time></trkpt><trkpt lat="48.41177063568896" lon="11.877854428096919"><ele>426.0</ele><time>2026-04-27T16:19:14Z</time></trkpt><trkpt lat="48.41183417218145" lon="11.877991582582816"><ele>426.0</ele><time>2026-04-27T16:19:15Z</time></trkpt><trkpt lat="48.411899118132915" lon="11.878140209157738"><ele>426.0</ele><time>2026-04-27T16:19:16Z</time></trkpt><trkpt lat="48.41196849803036" lon="11.878292240536021"><ele>426.0</ele><time>2026-04-27T16:19:17Z</time></trkpt><trkpt lat="48.41203725526069" lon="11.878440949610235"><ele>426.0</ele><time>2026-04-27T16:19:18Z</time></trkpt><trkpt lat="48.412102413537" lon="11.878589362204169"><ele>426.0</ele><time>2026-04-27T16:19:19Z</time></trkpt><trkpt lat="48.41216625393332" lon="11.878734328751015"><ele>426.0</ele><time>2026-04-27T16:19:20Z</time></trkpt><trkpt lat="48.412236991795545" lon="11.878866920641789"><ele>426.0</ele><time>2026-04-27T16:19:21Z</time></trkpt><trkpt lat="48.41229936990875" lon="11.879003354970811"><ele>426.0</ele><time>2026-04-27T16:19:22Z</time></trkpt><trkpt lat="48.412358353125164" lon="11.879138706067584"><ele>426.0</ele><time>2026-04-27T16:19:23Z</time></trkpt><trkpt lat="48.4124222134138" lon="11.87927257796207"><ele>426.0</ele><time>2026-04-27T16:19:24Z</time></trkpt><trkpt lat="48.41248477909705" lon="11.879408539926812"><ele>426.0</ele><time>2026-04-27T16:19:25Z</time></trkpt><trkpt lat="48.412539246960705" lon="11.879549607365226"><ele>426.0</ele><time>2026-04-27T16:19:26Z</time></trkpt><trkpt lat="48.412605101255004" lon="11.879675333676685"><ele>426.0</ele><time>2026-04-27T16:19:27Z</time></trkpt><trkpt lat="48.41266959400007" lon="11.879802734242995"><ele>426.0</ele><time>2026-04-27T16:19:28Z</time></trkpt><trkpt lat="48.41272666366558" lon="11.879933858974884"><ele>426.0</ele><time>2026-04-27T16:19:29Z</time></trkpt><trkpt lat="48.41278890490101" lon="11.880062275376"><ele>426.0</ele><time>2026-04-27T16:19:30Z</time></trkpt><trkpt lat="48.41285163573257" lon="11.88019736207398"><ele>426.20000000000005</ele><time>2026-04-27T16:19:31Z</time></trkpt><trkpt lat="48.41291245987911" lon="11.880333076493262"><ele>426.40000000000003</ele><time>2026-04-27T16:19:32Z</time></trkpt><trkpt lat="48.41296420695968" lon="11.880475039470486"><ele>426.6</ele><time>2026-04-27T16:19:33Z</time></trkpt><trkpt lat="48.413021557420954" lon="11.880610678735593"><ele>426.8</ele><time>2026-04-27T16:19:34Z</time></trkpt><trkpt lat="48.41306945900946" lon="11.88074793128644"><ele>427.0</ele><time>2026-04-27T16:19:35Z</time></trkpt><trkpt lat="48.41311109209459" lon="11.880889094015771"><ele>427.25</ele><time>2026-04-27T16:19:36Z</time></trkpt><trkpt lat="48.41315265112198" lon="11.881031282523862"><ele>427.5</ele><time>2026-04-27T16:19:37Z</time></trkpt><trkpt lat="48.41320158329177" lon="11.881184060854084"><ele>427.75</ele><time>2026-04-27T16:19:38Z</time></trkpt><trkpt lat="48.41324874355957" lon="11.88134489296848"><ele>428.0</ele><time>2026-04-27T16:19:39Z</time></trkpt><trkpt lat="48.413297290000045" lon="11.881506429939153"><ele>428.0</ele><time>2026-04-27T16:19:40Z</time></trkpt><trkpt lat="48.413346153863486" lon="11.881666964928455"><ele>428.0</ele><time>2026-04-27T16:19:41Z</time></trkpt><trkpt lat="48.4133936157178" lon="11.881826045185516"><ele>428.0</ele><time>2026-04-27T16:19:42Z</time></trkpt><trkpt lat="48.41360348501687" lon="11.882586539278584"><ele>427.4</ele><time>2026-04-27T16:19:47Z</time></trkpt><trkpt lat="48.413639051952046" lon="11.882736809758493"><ele>426.79999999999995</ele><time>2026-04-27T16:19:48Z</time></trkpt><trkpt lat="48.41367305689387" lon="11.882886358106987"><ele>426.2</ele><time>2026-04-27T16:19:49Z</time></trkpt><trkpt lat="48.41370324870395" lon="11.883033114942215"><ele>425.6</ele><time>2026-04-27T16:19:50Z</time></trkpt><trkpt lat="48.41373146734635" lon="11.88317710896967"><ele>425.0</ele><time>2026-04-27T16:19:51Z</time></trkpt><trkpt lat="48.41375375764022" lon="11.883327830086058"><ele>425.25</ele><time>2026-04-27T16:19:52Z</time></trkpt><trkpt lat="48.413780042203975" lon="11.883479390461403"><ele>425.5</ele><time>2026-04-27T16:19:53Z</time></trkpt><trkpt lat="48.41380699666935" lon="11.883634940933634"><ele>425.75</ele><time>2026-04-27T16:19:54Z</time></trkpt><trkpt lat="48.41383257212773" lon="11.883813976173125"><ele>426.0</ele><time>2026-04-27T16:19:55Z</time></trkpt><trkpt lat="48.41385654733587" lon="11.883988455658315"><ele>426.20000000000005</ele><time>2026-04-27T16:19:56Z</time></trkpt><trkpt lat="48.41388134826028" lon="11.884148551362879"><ele>426.40000000000003</ele><time>2026-04-27T16:19:57Z</time></trkpt><trkpt lat="48.413899637608004" lon="11.884307420903998"><ele>426.6</ele><time>2026-04-27T16:19:58Z</time></trkpt><trkpt lat="48.41392672678862" lon="11.884460261591366"><ele>426.8</ele><time>2026-04-27T16:19:59Z</time></trkpt><trkpt lat="48.41395539906775" lon="11.88462021096394"><ele>427.0</ele><time>2026-04-27T16:20:00Z</time></trkpt><trkpt lat="48.413981671370244" lon="11.88478323947847"><ele>427.0</ele><time>2026-04-27T16:20:01Z</time></trkpt><trkpt lat="48.41400832693204" lon="11.884948146441122"><ele>427.00000000000006</ele><time>2026-04-27T16:20:02Z</time></trkpt><trkpt lat="48.41403122424445" lon="11.885112474168912"><ele>427.00000000000006</ele><time>2026-04-27T16:20:03Z</time></trkpt><trkpt lat="48.41406020468154" lon="11.885269232617395"><ele>427.0</ele><time>2026-04-27T16:20:04Z</time></trkpt><trkpt lat="48.41408974594132" lon="11.88542882143692"><ele>427.0</ele><time>2026-04-27T16:20:05Z</time></trkpt><trkpt lat="48.41411590569779" lon="11.885599697605983"><ele>426.8</ele><time>2026-04-27T16:20:06Z</time></trkpt><trkpt lat="48.414144140204314" lon="11.885771349318532"><ele>426.6</ele><time>2026-04-27T16:20:07Z</time></trkpt><trkpt lat="48.41417082475381" lon="11.885936600656295"><ele>426.40000000000003</ele><time>2026-04-27T16:20:08Z</time></trkpt><trkpt lat="48.4141910975088" lon="11.886098145697874"><ele>426.20000000000005</ele><time>2026-04-27T16:20:09Z</time></trkpt><trkpt lat="48.414224973158156" lon="11.88625460386155"><ele>426.0</ele><time>2026-04-27T16:20:10Z</time></trkpt><trkpt lat="48.41425406303726" lon="11.886433544651977"><ele>426.0</ele><time>2026-04-27T16:20:11Z</time></trkpt><trkpt lat="48.41428742958976" lon="11.886607796509397"><ele>426.0</ele><time>2026-04-27T16:20:12Z</time></trkpt><trkpt lat="48.41432205225636" lon="11.886755590312875"><ele>426.0</ele><time>2026-04-27T16:20:13Z</time></trkpt><trkpt lat="48.41436403802697" lon="11.886882742941616"><ele>426.0</ele><time>2026-04-27T16:20:14Z</time></trkpt><trkpt lat="48.414428320770234" lon="11.886977196595023"><ele>426.0</ele><time>2026-04-27T16:20:15Z</time></trkpt><trkpt lat="48.41451724927875" lon="11.887025889515288"><ele>427.0</ele><time>2026-04-27T16:20:16Z</time></trkpt><trkpt lat="48.41463318346813" lon="11.88702125675309"><ele>428.0</ele><time>2026-04-27T16:20:17Z</time></trkpt><trkpt lat="48.41476688702402" lon="11.886976774577986"><ele>429.0</ele><time>2026-04-27T16:20:18Z</time></trkpt><trkpt lat="48.41491018986005" lon="11.886911077705326"><ele>430.0</ele><time>2026-04-27T16:20:19Z</time></trkpt><trkpt lat="48.41505812980771" lon="11.886833839967895"><ele>430.0</ele><time>2026-04-27T16:20:20Z</time></trkpt><trkpt lat="48.415209436517266" lon="11.88674583740553"><ele>430.0</ele><time>2026-04-27T16:20:21Z</time></trkpt><trkpt lat="48.41536691064752" lon="11.886653255678235"><ele>430.0</ele><time>2026-04-27T16:20:22Z</time></trkpt><trkpt lat="48.41553618973394" lon="11.886554426902656"><ele>430.0</ele><time>2026-04-27T16:20:23Z</time></trkpt><trkpt lat="48.41569632726701" lon="11.88646596076331"><ele>430.0</ele><time>2026-04-27T16:20:24Z</time></trkpt><trkpt lat="48.41585873741511" lon="11.88637368269352"><ele>430.0</ele><time>2026-04-27T16:20:25Z</time></trkpt><trkpt lat="48.416012238389015" lon="11.886300229912141"><ele>430.0</ele><time>2026-04-27T16:20:26Z</time></trkpt><trkpt lat="48.41615937126827" lon="11.886249041291096"><ele>430.0</ele><time>2026-04-27T16:20:27Z</time></trkpt><trkpt lat="48.41629956208207" lon="11.886234629040539"><ele>430.0</ele><time>2026-04-27T16:20:28Z</time></trkpt><trkpt lat="48.41644314168575" lon="11.886260123118818"><ele>430.0</ele><time>2026-04-27T16:20:29Z</time></trkpt><trkpt lat="48.41658874849919" lon="11.886363665515836"><ele>430.6666666666667</ele><time>2026-04-27T16:20:30Z</time></trkpt><trkpt lat="48.41675477805954" lon="11.886463195308746"><ele>431.33333333333337</ele><time>2026-04-27T16:20:31Z</time></trkpt><trkpt lat="48.416913860984124" lon="11.886610547668878"><ele>432.0</ele><time>2026-04-27T16:20:32Z</time></trkpt><trkpt lat="48.41705698754011" lon="11.886748081645221"><ele>432.66666666666663</ele><time>2026-04-27T16:20:33Z</time></trkpt><trkpt lat="48.417195182160654" lon="11.886861371866887"><ele>433.3333333333333</ele><time>2026-04-27T16:20:34Z</time></trkpt><trkpt lat="48.41733305008053" lon="11.886948674811265"><ele>434.0</ele><time>2026-04-27T16:20:35Z</time></trkpt><trkpt lat="48.417476784660856" lon="11.886994318782593"><ele>434.0</ele><time>2026-04-27T16:20:36Z</time></trkpt><trkpt lat="48.417633392374206" lon="11.886992627745483"><ele>434.0</ele><time>2026-04-27T16:20:37Z</time></trkpt><trkpt lat="48.41779330409103" lon="11.886955075904998"><ele>434.0</ele><time>2026-04-27T16:20:38Z</time></trkpt><trkpt lat="48.41793751150508" lon="11.886908094153224"><ele>433.3333333333333</ele><time>2026-04-27T16:20:39Z</time></trkpt><trkpt lat="48.41807267022767" lon="11.886836277793455"><ele>432.66666666666663</ele><time>2026-04-27T16:20:40Z</time></trkpt><trkpt lat="48.41820469693639" lon="11.886699431942525"><ele>432.0</ele><time>2026-04-27T16:20:41Z</time></trkpt><trkpt lat="48.418341102074386" lon="11.886511863450185"><ele>432.0</ele><time>2026-04-27T16:20:42Z</time></trkpt><trkpt lat="48.4184845776553" lon="11.886302645298981"><ele>432.0</ele><time>2026-04-27T16:20:43Z</time></trkpt><trkpt lat="48.41863974339163" lon="11.886084916866373"><ele>432.0</ele><time>2026-04-27T16:20:44Z</time></trkpt><trkpt lat="48.418803470267996" lon="11.88586300018037"><ele>432.5</ele><time>2026-04-27T16:20:45Z</time></trkpt><trkpt lat="48.41896977045501" lon="11.885636788988872"><ele>433.0</ele><time>2026-04-27T16:20:46Z</time></trkpt><trkpt lat="48.419136542198274" lon="11.885400780518502"><ele>433.0</ele><time>2026-04-27T16:20:47Z</time></trkpt><trkpt lat="48.419298497315594" lon="11.885161609155807"><ele>433.0</ele><time>2026-04-27T16:20:48Z</time></trkpt><trkpt lat="48.41945352807879" lon="11.884921510179817"><ele>433.0</ele><time>2026-04-27T16:20:49Z</time></trkpt><trkpt lat="48.419602340004" lon="11.884683778286034"><ele>433.33333333333337</ele><time>2026-04-27T16:20:50Z</time></trkpt><trkpt lat="48.419748135492306" lon="11.88444063563718"><ele>433.66666666666663</ele><time>2026-04-27T16:20:51Z</time></trkpt><trkpt lat="48.41988683158185" lon="11.884193566705347"><ele>434.0</ele><time>2026-04-27T16:20:52Z</time></trkpt><trkpt lat="48.42001926667064" lon="11.883943583591355"><ele>434.0</ele><time>2026-04-27T16:20:53Z</time></trkpt><trkpt lat="48.42014677295328" lon="11.883691223264263"><ele>434.0</ele><time>2026-04-27T16:20:54Z</time></trkpt><trkpt lat="48.42027369106986" lon="11.883438048786536"><ele>434.0</ele><time>2026-04-27T16:20:55Z</time></trkpt><trkpt lat="48.420397284555776" lon="11.883184631035977"><ele>434.0</ele><time>2026-04-27T16:20:56Z</time></trkpt><trkpt lat="48.42051971375778" lon="11.882931262361328"><ele>434.0</ele><time>2026-04-27T16:20:57Z</time></trkpt><trkpt lat="48.42064122005517" lon="11.882679432857369"><ele>434.0</ele><time>2026-04-27T16:20:58Z</time></trkpt><trkpt lat="48.420763220453686" lon="11.882428940577507"><ele>433.3333333333333</ele><time>2026-04-27T16:20:59Z</time></trkpt><trkpt lat="48.42088495260996" lon="11.882180154043812"><ele>432.66666666666663</ele><time>2026-04-27T16:21:00Z</time></trkpt><trkpt lat="48.42100662622437" lon="11.881929946402618"><ele>432.0</ele><time>2026-04-27T16:21:01Z</time></trkpt><trkpt lat="48.42112746857888" lon="11.881679911161031"><ele>432.0</ele><time>2026-04-27T16:21:02Z</time></trkpt><trkpt lat="48.421247678305996" lon="11.881429299195245"><ele>432.0</ele><time>2026-04-27T16:21:03Z</time></trkpt><trkpt lat="48.42136895259861" lon="11.881177743369813"><ele>432.0</ele><time>2026-04-27T16:21:04Z</time></trkpt><trkpt lat="48.42149361460717" lon="11.880923374066114"><ele>432.0</ele><time>2026-04-27T16:21:05Z</time></trkpt><trkpt lat="48.42161904796223" lon="11.880666527781115"><ele>432.0</ele><time>2026-04-27T16:21:06Z</time></trkpt><trkpt lat="48.42174619215347" lon="11.88040689036572"><ele>432.0</ele><time>2026-04-27T16:21:07Z</time></trkpt><trkpt lat="48.4218684685753" lon="11.8801535181934"><ele>432.0</ele><time>2026-04-27T16:21:08Z</time></trkpt><trkpt lat="48.421989698038985" lon="11.879899937939992"><ele>432.0</ele><time>2026-04-27T16:21:09Z</time></trkpt><trkpt lat="48.42211194675168" lon="11.879647770398057"><ele>432.0</ele><time>2026-04-27T16:21:10Z</time></trkpt><trkpt lat="48.422236259817545" lon="11.879395014978279"><ele>432.33333333333337</ele><time>2026-04-27T16:21:11Z</time></trkpt><trkpt lat="48.422361627306174" lon="11.879141205394715"><ele>432.6666666666667</ele><time>2026-04-27T16:21:12Z</time></trkpt><trkpt lat="48.42248588561725" lon="11.878885429982597"><ele>433.0</ele><time>2026-04-27T16:21:13Z</time></trkpt><trkpt lat="48.42260888948308" lon="11.87863008566035"><ele>434.0</ele><time>2026-04-27T16:21:14Z</time></trkpt><trkpt lat="48.422732038631935" lon="11.878374045473034"><ele>435.0</ele><time>2026-04-27T16:21:15Z</time></trkpt><trkpt lat="48.4228556911736" lon="11.878118696970757"><ele>436.0</ele><time>2026-04-27T16:21:16Z</time></trkpt><trkpt lat="48.42297919955076" lon="11.877863857662014"><ele>435.6666666666667</ele><time>2026-04-27T16:21:17Z</time></trkpt><trkpt lat="48.42310284409968" lon="11.877611524284907"><ele>435.33333333333337</ele><time>2026-04-27T16:21:18Z</time></trkpt><trkpt lat="48.42322467129949" lon="11.87735885359615"><ele>435.0</ele><time>2026-04-27T16:21:19Z</time></trkpt><trkpt lat="48.42334523173587" lon="11.877108651245432"><ele>434.66666666666663</ele><time>2026-04-27T16:21:20Z</time></trkpt><trkpt lat="48.4234644580751" lon="11.876860130967815"><ele>434.3333333333333</ele><time>2026-04-27T16:21:21Z</time></trkpt><trkpt lat="48.42358558848804" lon="11.876611987349266"><ele>434.0</ele><time>2026-04-27T16:21:22Z</time></trkpt><trkpt lat="48.42370633040858" lon="11.876366436451075"><ele>434.0</ele><time>2026-04-27T16:21:23Z</time></trkpt><trkpt lat="48.423816794819594" lon="11.87613299662818"><ele>434.0</ele><time>2026-04-27T16:21:24Z</time></trkpt><trkpt lat="48.42392100307241" lon="11.87591669800441"><ele>434.0</ele><time>2026-04-27T16:21:25Z</time></trkpt><trkpt lat="48.42402029199659" lon="11.875713201015166"><ele>433.5</ele><time>2026-04-27T16:21:26Z</time></trkpt><trkpt lat="48.4241130009793" lon="11.875523370005133"><ele>433.0</ele><time>2026-04-27T16:21:27Z</time></trkpt><trkpt lat="48.424192106749466" lon="11.875340564533102"><ele>432.5</ele><time>2026-04-27T16:21:28Z</time></trkpt><trkpt lat="48.42425874818992" lon="11.87516886481892"><ele>432.0</ele><time>2026-04-27T16:21:29Z</time></trkpt><trkpt lat="48.42431374957573" lon="11.875004770090657"><ele>432.0</ele><time>2026-04-27T16:21:30Z</time></trkpt><trkpt lat="48.42436281453859" lon="11.874842059147788"><ele>432.00000000000006</ele><time>2026-04-27T16:21:31Z</time></trkpt><trkpt lat="48.42440321732077" lon="11.874684201077246"><ele>432.00000000000006</ele><time>2026-04-27T16:21:32Z</time></trkpt><trkpt lat="48.42443552406265" lon="11.874532787257442"><ele>432.0</ele><time>2026-04-27T16:21:33Z</time></trkpt><trkpt lat="48.42445635086113" lon="11.874389334442585"><ele>432.0</ele><time>2026-04-27T16:21:34Z</time></trkpt><trkpt lat="48.42448225050981" lon="11.874251911883258"><ele>431.5</ele><time>2026-04-27T16:21:35Z</time></trkpt><trkpt lat="48.424520622977475" lon="11.87411420692942"><ele>431.0</ele><time>2026-04-27T16:21:36Z</time></trkpt><trkpt lat="48.424574228528925" lon="11.873968562837758"><ele>430.5</ele><time>2026-04-27T16:21:37Z</time></trkpt><trkpt lat="48.42463657780087" lon="11.873806682335616"><ele>430.0</ele><time>2026-04-27T16:21:38Z</time></trkpt><trkpt lat="48.42470229603911" lon="11.873643104836212"><ele>429.5</ele><time>2026-04-27T16:21:39Z</time></trkpt><trkpt lat="48.4247637547141" lon="11.873490609387058"><ele>429.0</ele><time>2026-04-27T16:21:40Z</time></trkpt><trkpt lat="48.42482460351764" lon="11.873343090675027"><ele>428.5</ele><time>2026-04-27T16:21:41Z</time></trkpt><trkpt lat="48.42488247291084" lon="11.873192807830979"><ele>428.0</ele><time>2026-04-27T16:21:42Z</time></trkpt><trkpt lat="48.424944982252235" lon="11.873049717604252"><ele>427.79999999999995</ele><time>2026-04-27T16:21:43Z</time></trkpt><trkpt lat="48.425008487446924" lon="11.872910706269435"><ele>427.59999999999997</ele><time>2026-04-27T16:21:44Z</time></trkpt><trkpt lat="48.42507431457782" lon="11.872774654339972"><ele>427.40000000000003</ele><time>2026-04-27T16:21:45Z</time></trkpt><trkpt lat="48.425148091354004" lon="11.87265109860232"><ele>427.20000000000005</ele><time>2026-04-27T16:21:46Z</time></trkpt><trkpt lat="48.425221181395315" lon="11.872543517300834"><ele>427.0</ele><time>2026-04-27T16:21:47Z</time></trkpt><trkpt lat="48.42529206167422" lon="11.872447461930356"><ele>427.0</ele><time>2026-04-27T16:21:48Z</time></trkpt><trkpt lat="48.42536939712637" lon="11.872358265676672"><ele>427.00000000000006</ele><time>2026-04-27T16:21:49Z</time></trkpt><trkpt lat="48.42545323551294" lon="11.872292393180961"><ele>427.00000000000006</ele><time>2026-04-27T16:21:50Z</time></trkpt><trkpt lat="48.42554176143462" lon="11.872255547034321"><ele>427.0</ele><time>2026-04-27T16:21:51Z</time></trkpt><trkpt lat="48.42563387680571" lon="11.872253033132637"><ele>427.0</ele><time>2026-04-27T16:21:52Z</time></trkpt><trkpt lat="48.42573336392919" lon="11.87227875288228"><ele>426.5</ele><time>2026-04-27T16:21:53Z</time></trkpt><trkpt lat="48.42583879009473" lon="11.872330816777978"><ele>426.0</ele><time>2026-04-27T16:21:54Z</time></trkpt><trkpt lat="48.42594949325943" lon="11.872396106564851"><ele>425.5</ele><time>2026-04-27T16:21:55Z</time></trkpt><trkpt lat="48.4260637824871" lon="11.872476370330043"><ele>425.0</ele><time>2026-04-27T16:21:56Z</time></trkpt><trkpt lat="48.426179499311516" lon="11.87256370007872"><ele>425.0</ele><time>2026-04-27T16:21:57Z</time></trkpt><trkpt lat="48.42629796263362" lon="11.872647616189512"><ele>425.0</ele><time>2026-04-27T16:21:58Z</time></trkpt><trkpt lat="48.42641819926697" lon="11.872718282517814"><ele>425.0</ele><time>2026-04-27T16:21:59Z</time></trkpt><trkpt lat="48.42654721464225" lon="11.872767316129078"><ele>425.0</ele><time>2026-04-27T16:22:00Z</time></trkpt><trkpt lat="48.42667924458788" lon="11.87279949983654"><ele>425.25</ele><time>2026-04-27T16:22:01Z</time></trkpt><trkpt lat="48.426812170875685" lon="11.872813465267146"><ele>425.5</ele><time>2026-04-27T16:22:02Z</time></trkpt><trkpt lat="48.426940619745785" lon="11.87281066329083"><ele>425.75</ele><time>2026-04-27T16:22:03Z</time></trkpt><trkpt lat="48.427055868961105" lon="11.87281506742947"><ele>426.0</ele><time>2026-04-27T16:22:04Z</time></trkpt><trkpt lat="48.42717424933002" lon="11.872804225004085"><ele>427.75</ele><time>2026-04-27T16:22:05Z</time></trkpt><trkpt lat="48.427287666707706" lon="11.872779262284416"><ele>429.5</ele><time>2026-04-27T16:22:06Z</time></trkpt><trkpt lat="48.42739918347696" lon="11.872734924847798"><ele>431.25</ele><time>2026-04-27T16:22:07Z</time></trkpt><trkpt lat="48.42751071713074" lon="11.87266119623089"><ele>433.0</ele><time>2026-04-27T16:22:08Z</time></trkpt><trkpt lat="48.42762244158424" lon="11.872570098410604"><ele>433.0</ele><time>2026-04-27T16:22:09Z</time></trkpt><trkpt lat="48.427737304366964" lon="11.872483077504217"><ele>433.0</ele><time>2026-04-27T16:22:10Z</time></trkpt><trkpt lat="48.42785406613464" lon="11.872402155238131"><ele>433.0</ele><time>2026-04-27T16:22:11Z</time></trkpt><trkpt lat="48.42797361987088" lon="11.872322836927662"><ele>433.0</ele><time>2026-04-27T16:22:12Z</time></trkpt><trkpt lat="48.42809779621041" lon="11.872241823104192"><ele>433.5</ele><time>2026-04-27T16:22:13Z</time></trkpt><trkpt lat="48.42822499259596" lon="11.872157006479355"><ele>434.0</ele><time>2026-04-27T16:22:14Z</time></trkpt><trkpt lat="48.42835739952897" lon="11.872065420391221"><ele>434.5</ele><time>2026-04-27T16:22:15Z</time></trkpt><trkpt lat="48.42849761855289" lon="11.871961990406202"><ele>435.0</ele><time>2026-04-27T16:22:16Z</time></trkpt><trkpt lat="48.428637604884614" lon="11.87185691179476"><ele>435.33333333333337</ele><time>2026-04-27T16:22:17Z</time></trkpt><trkpt lat="48.42878109690741" lon="11.871746461245449"><ele>435.6666666666667</ele><time>2026-04-27T16:22:18Z</time></trkpt><trkpt lat="48.42893908418615" lon="11.871633409152786"><ele>436.0</ele><time>2026-04-27T16:22:19Z</time></trkpt><trkpt lat="48.4291082350552" lon="11.871532738331354"><ele>436.33333333333337</ele><time>2026-04-27T16:22:20Z</time></trkpt><trkpt lat="48.429287397022804" lon="11.871435679935164"><ele>436.66666666666663</ele><time>2026-04-27T16:22:21Z</time></trkpt><trkpt lat="48.4294760499464" lon="11.871339765970466"><ele>437.0</ele><time>2026-04-27T16:22:22Z</time></trkpt><trkpt lat="48.42967370402924" lon="11.871246739261075"><ele>437.3333333333333</ele><time>2026-04-27T16:22:23Z</time></trkpt><trkpt lat="48.4298773006645" lon="11.87114937051749"><ele>437.66666666666663</ele><time>2026-04-27T16:22:24Z</time></trkpt><trkpt lat="48.43008821409482" lon="11.87105256268669"><ele>438.0</ele><time>2026-04-27T16:22:25Z</time></trkpt><trkpt lat="48.43030318476072" lon="11.870950230875971"><ele>438.5</ele><time>2026-04-27T16:22:26Z</time></trkpt><trkpt lat="48.43052383690675" lon="11.87084749804816"><ele>439.0</ele><time>2026-04-27T16:22:27Z</time></trkpt><trkpt lat="48.43074179427484" lon="11.870745895444276"><ele>439.0</ele><time>2026-04-27T16:22:28Z</time></trkpt><trkpt lat="48.43096155501295" lon="11.870641941351444"><ele>439.0</ele><time>2026-04-27T16:22:29Z</time></trkpt><trkpt lat="48.43118433535595" lon="11.870537823378312"><ele>438.5</ele><time>2026-04-27T16:22:30Z</time></trkpt><trkpt lat="48.43140832282402" lon="11.870432170411684"><ele>438.0</ele><time>2026-04-27T16:22:31Z</time></trkpt><trkpt lat="48.431633484578064" lon="11.870322623947743"><ele>438.0</ele><time>2026-04-27T16:22:32Z</time></trkpt><trkpt lat="48.43185652649007" lon="11.87021819992499"><ele>438.0</ele><time>2026-04-27T16:22:33Z</time></trkpt><trkpt lat="48.432081498938864" lon="11.870113502585001"><ele>438.0</ele><time>2026-04-27T16:22:34Z</time></trkpt><trkpt lat="48.432304551771004" lon="11.870011412486829"><ele>438.0</ele><time>2026-04-27T16:22:35Z</time></trkpt><trkpt lat="48.43252656556161" lon="11.86990693784112"><ele>438.0</ele><time>2026-04-27T16:22:36Z</time></trkpt><trkpt lat="48.43356084477886" lon="11.869415220189124"><ele>438.0</ele><time>2026-04-27T16:22:41Z</time></trkpt><trkpt lat="48.43375053304691" lon="11.869324189597895"><ele>438.0</ele><time>2026-04-27T16:22:42Z</time></trkpt><trkpt lat="48.433939781709554" lon="11.869235552080857"><ele>438.0</ele><time>2026-04-27T16:22:43Z</time></trkpt><trkpt lat="48.434128308450326" lon="11.869148880426021"><ele>438.66666666666663</ele><time>2026-04-27T16:22:44Z</time></trkpt><trkpt lat="48.43431544525837" lon="11.869064440067536"><ele>439.3333333333333</ele><time>2026-04-27T16:22:45Z</time></trkpt><trkpt lat="48.43450095353349" lon="11.86898185633356"><ele>440.0</ele><time>2026-04-27T16:22:46Z</time></trkpt><trkpt lat="48.4346890563224" lon="11.868902166410308"><ele>440.66666666666663</ele><time>2026-04-27T16:22:47Z</time></trkpt><trkpt lat="48.43488152289784" lon="11.868830357902416"><ele>441.33333333333337</ele><time>2026-04-27T16:22:48Z</time></trkpt><trkpt lat="48.43507838018972" lon="11.868756169940301"><ele>442.0</ele><time>2026-04-27T16:22:49Z</time></trkpt><trkpt lat="48.43526275781187" lon="11.868676021409918"><ele>442.0</ele><time>2026-04-27T16:22:50Z</time></trkpt><trkpt lat="48.43543847299734" lon="11.868599369083654"><ele>442.0</ele><time>2026-04-27T16:22:51Z</time></trkpt><trkpt lat="48.43561303438669" lon="11.868523882239936"><ele>442.0</ele><time>2026-04-27T16:22:52Z</time></trkpt><trkpt lat="48.43578385382132" lon="11.868450207510545"><ele>442.6666666666667</ele><time>2026-04-27T16:22:53Z</time></trkpt><trkpt lat="48.4359523532687" lon="11.868375526766174"><ele>443.33333333333337</ele><time>2026-04-27T16:22:54Z</time></trkpt><trkpt lat="48.436116634278704" lon="11.868311200981713"><ele>444.0</ele><time>2026-04-27T16:22:55Z</time></trkpt><trkpt lat="48.43628524741769" lon="11.868234139077105"><ele>444.66666666666663</ele><time>2026-04-27T16:22:56Z</time></trkpt><trkpt lat="48.43645238660597" lon="11.86814457110161"><ele>445.3333333333333</ele><time>2026-04-27T16:22:57Z</time></trkpt><trkpt lat="48.43661750885454" lon="11.86804925709936"><ele>446.0</ele><time>2026-04-27T16:22:58Z</time></trkpt><trkpt lat="48.43678373490066" lon="11.867956512816805"><ele>446.0</ele><time>2026-04-27T16:22:59Z</time></trkpt><trkpt lat="48.43694556730265" lon="11.867871041445989"><ele>446.0</ele><time>2026-04-27T16:23:00Z</time></trkpt><trkpt lat="48.437102992462485" lon="11.867788720787065"><ele>446.0</ele><time>2026-04-27T16:23:01Z</time></trkpt><trkpt lat="48.43725362708302" lon="11.867706256414541"><ele>446.5</ele><time>2026-04-27T16:23:02Z</time></trkpt><trkpt lat="48.43738319866396" lon="11.86762056042682"><ele>447.0</ele><time>2026-04-27T16:23:03Z</time></trkpt><trkpt lat="48.43750330542624" lon="11.867530738876237"><ele>447.5</ele><time>2026-04-27T16:23:04Z</time></trkpt><trkpt lat="48.437622913803885" lon="11.867427331613424"><ele>448.0</ele><time>2026-04-27T16:23:05Z</time></trkpt><trkpt lat="48.437740578541465" lon="11.867308053478046"><ele>449.25</ele><time>2026-04-27T16:23:06Z</time></trkpt><trkpt lat="48.43785354172041" lon="11.867176977492267"><ele>450.5</ele><time>2026-04-27T16:23:07Z</time></trkpt><trkpt lat="48.43796329938298" lon="11.867039231483492"><ele>451.75</ele><time>2026-04-27T16:23:08Z</time></trkpt><trkpt lat="48.438069255183855" lon="11.866902598991802"><ele>453.0</ele><time>2026-04-27T16:23:09Z</time></trkpt><trkpt lat="48.43817294480127" lon="11.866767039808009"><ele>454.0</ele><time>2026-04-27T16:23:10Z</time></trkpt><trkpt lat="48.4382791235223" lon="11.866633164889542"><ele>455.0</ele><time>2026-04-27T16:23:11Z</time></trkpt><trkpt lat="48.43838524822617" lon="11.866499517876898"><ele>456.0</ele><time>2026-04-27T16:23:12Z</time></trkpt><trkpt lat="48.43849013918408" lon="11.866361829931279"><ele>457.0</ele><time>2026-04-27T16:23:13Z</time></trkpt><trkpt lat="48.4385962367344" lon="11.86622316232596"><ele>457.0</ele><time>2026-04-27T16:23:14Z</time></trkpt><trkpt lat="48.4387024576738" lon="11.866084238055036"><ele>457.0</ele><time>2026-04-27T16:23:15Z</time></trkpt><trkpt lat="48.438819130827255" lon="11.865935580751946"><ele>457.0</ele><time>2026-04-27T16:23:16Z</time></trkpt><trkpt lat="48.43895408504045" lon="11.865763536252704"><ele>457.5</ele><time>2026-04-27T16:23:17Z</time></trkpt><trkpt lat="48.439069278476076" lon="11.865610312590013"><ele>458.0</ele><time>2026-04-27T16:23:18Z</time></trkpt><trkpt lat="48.439171574549384" lon="11.865459698248914"><ele>458.5</ele><time>2026-04-27T16:23:19Z</time></trkpt><trkpt lat="48.4392654428624" lon="11.86529955856152"><ele>459.0</ele><time>2026-04-27T16:23:20Z</time></trkpt><trkpt lat="48.439346240385504" lon="11.865127338602138"><ele>459.0</ele><time>2026-04-27T16:23:21Z</time></trkpt><trkpt lat="48.439413783992435" lon="11.864939061357317"><ele>459.0</ele><time>2026-04-27T16:23:22Z</time></trkpt><trkpt lat="48.43945998909699" lon="11.86473902917835"><ele>459.0</ele><time>2026-04-27T16:23:23Z</time></trkpt><trkpt lat="48.439498072608366" lon="11.864529161843658"><ele>459.0</ele><time>2026-04-27T16:23:24Z</time></trkpt><trkpt lat="48.43952678769431" lon="11.864309326264975"><ele>458.33333333333337</ele><time>2026-04-27T16:23:25Z</time></trkpt><trkpt lat="48.43955590747341" lon="11.864086924301747"><ele>457.6666666666667</ele><time>2026-04-27T16:23:26Z</time></trkpt><trkpt lat="48.43958384497472" lon="11.863856762363147"><ele>457.0</ele><time>2026-04-27T16:23:27Z</time></trkpt><trkpt lat="48.439615935352144" lon="11.86361944040712"><ele>456.6666666666667</ele><time>2026-04-27T16:23:28Z</time></trkpt><trkpt lat="48.439650960751095" lon="11.8633803748888"><ele>456.33333333333337</ele><time>2026-04-27T16:23:29Z</time></trkpt><trkpt lat="48.43968529627563" lon="11.863138497025748"><ele>456.0</ele><time>2026-04-27T16:23:30Z</time></trkpt><trkpt lat="48.439716307629574" lon="11.862904548684899"><ele>456.0</ele><time>2026-04-27T16:23:31Z</time></trkpt><trkpt lat="48.439746225192664" lon="11.862672333012965"><ele>456.0</ele><time>2026-04-27T16:23:32Z</time></trkpt><trkpt lat="48.43978033578944" lon="11.862443475403055"><ele>456.0</ele><time>2026-04-27T16:23:33Z</time></trkpt><trkpt lat="48.439815458415524" lon="11.862221309381532"><ele>455.0</ele><time>2026-04-27T16:23:34Z</time></trkpt><trkpt lat="48.43984839634427" lon="11.862005317466801"><ele>454.0</ele><time>2026-04-27T16:23:35Z</time></trkpt><trkpt lat="48.43987969665609" lon="11.861787724728035"><ele>453.0</ele><time>2026-04-27T16:23:36Z</time></trkpt><trkpt lat="48.439911624145864" lon="11.861573963243654"><ele>452.0</ele><time>2026-04-27T16:23:37Z</time></trkpt><trkpt lat="48.43994358234411" lon="11.86137123884109"><ele>451.25</ele><time>2026-04-27T16:23:38Z</time></trkpt><trkpt lat="48.43997296606459" lon="11.861175565171791"><ele>450.5</ele><time>2026-04-27T16:23:39Z</time></trkpt><trkpt lat="48.44000165865807" lon="11.860987655907664"><ele>449.75</ele><time>2026-04-27T16:23:40Z</time></trkpt><trkpt lat="48.440028623392294" lon="11.860807377789968"><ele>449.0</ele><time>2026-04-27T16:23:41Z</time></trkpt><trkpt lat="48.44005787206907" lon="11.860638444816226"><ele>448.6</ele><time>2026-04-27T16:23:42Z</time></trkpt><trkpt lat="48.440089413331314" lon="11.860477111055012"><ele>448.2</ele><time>2026-04-27T16:23:43Z</time></trkpt><trkpt lat="48.44011752570763" lon="11.860313403567856"><ele>447.80000000000007</ele><time>2026-04-27T16:23:44Z</time></trkpt><trkpt lat="48.44014684954606" lon="11.860152031743594"><ele>447.40000000000003</ele><time>2026-04-27T16:23:45Z</time></trkpt><trkpt lat="48.44017875401488" lon="11.859992798275734"><ele>447.0</ele><time>2026-04-27T16:23:46Z</time></trkpt><trkpt lat="48.440213020641394" lon="11.859836532500838"><ele>446.8</ele><time>2026-04-27T16:23:47Z</time></trkpt><trkpt lat="48.44024683756714" lon="11.859680671658168"><ele>446.6</ele><time>2026-04-27T16:23:48Z</time></trkpt><trkpt lat="48.44027751191309" lon="11.85953289839133"><ele>446.40000000000003</ele><time>2026-04-27T16:23:49Z</time></trkpt><trkpt lat="48.440308417876956" lon="11.859392351649332"><ele>446.20000000000005</ele><time>2026-04-27T16:23:50Z</time></trkpt><trkpt lat="48.44033974977968" lon="11.859258639546958"><ele>446.0</ele><time>2026-04-27T16:23:51Z</time></trkpt><trkpt lat="48.44037625135296" lon="11.859122624255845"><ele>445.4</ele><time>2026-04-27T16:23:52Z</time></trkpt><trkpt lat="48.4404167584703" lon="11.858986250918491"><ele>444.8</ele><time>2026-04-27T16:23:53Z</time></trkpt><trkpt lat="48.440454642889044" lon="11.858856556983728"><ele>444.19999999999993</ele><time>2026-04-27T16:23:54Z</time></trkpt><trkpt lat="48.440493078165105" lon="11.858723797715033"><ele>443.59999999999997</ele><time>2026-04-27T16:23:55Z</time></trkpt><trkpt lat="48.44053248729547" lon="11.858596003852279"><ele>443.0</ele><time>2026-04-27T16:23:56Z</time></trkpt><trkpt lat="48.44057387280252" lon="11.858470648703557"><ele>441.8333333333333</ele><time>2026-04-27T16:23:57Z</time></trkpt><trkpt lat="48.440614510770466" lon="11.858351096001195"><ele>440.66666666666663</ele><time>2026-04-27T16:23:58Z</time></trkpt><trkpt lat="48.440647538467246" lon="11.858248379221527"><ele>439.5</ele><time>2026-04-27T16:23:59Z</time></trkpt><trkpt lat="48.440672660437706" lon="11.858151790550371"><ele>438.33333333333337</ele><time>2026-04-27T16:24:00Z</time></trkpt><trkpt lat="48.440682728321775" lon="11.857992755008015"><ele>437.1666666666667</ele><time>2026-04-27T16:24:02Z</time></trkpt><trkpt lat="48.44067224846791" lon="11.85789193697168"><ele>436.0</ele><time>2026-04-27T16:24:05Z</time></trkpt><trkpt lat="48.44065924456427" lon="11.85775618859644"><ele>435.20000000000005</ele><time>2026-04-27T16:24:14Z</time></trkpt><trkpt lat="48.44063905264044" lon="11.857582019858336"><ele>434.40000000000003</ele><time>2026-04-27T16:24:16Z</time></trkpt><trkpt lat="48.44062904030761" lon="11.85747304959227"><ele>433.6</ele><time>2026-04-27T16:24:17Z</time></trkpt><trkpt lat="48.440627132532875" lon="11.857346965474335"><ele>432.8</ele><time>2026-04-27T16:24:18Z</time></trkpt><trkpt lat="48.44063233345249" lon="11.857210258702812"><ele>432.0</ele><time>2026-04-27T16:24:19Z</time></trkpt><trkpt lat="48.44064188136704" lon="11.857067552523693"><ele>432.0</ele><time>2026-04-27T16:24:20Z</time></trkpt><trkpt lat="48.44065715155697" lon="11.856920817102596"><ele>432.00000000000006</ele><time>2026-04-27T16:24:21Z</time></trkpt><trkpt lat="48.44068191578699" lon="11.856775281894395"><ele>432.00000000000006</ele><time>2026-04-27T16:24:22Z</time></trkpt><trkpt lat="48.44071197913203" lon="11.85663123487182"><ele>432.0</ele><time>2026-04-27T16:24:23Z</time></trkpt><trkpt lat="48.440749592563336" lon="11.85648777173899"><ele>432.0</ele><time>2026-04-27T16:24:24Z</time></trkpt><trkpt lat="48.44079930230439" lon="11.85635322601429"><ele>431.6</ele><time>2026-04-27T16:24:25Z</time></trkpt><trkpt lat="48.4408589267788" lon="11.856229325048345"><ele>431.20000000000005</ele><time>2026-04-27T16:24:26Z</time></trkpt><trkpt lat="48.44092509897191" lon="11.856111535190148"><ele>430.8</ele><time>2026-04-27T16:24:27Z</time></trkpt><trkpt lat="48.4409904212605" lon="11.855997943815588"><ele>430.4</ele><time>2026-04-27T16:24:28Z</time></trkpt><trkpt lat="48.44106066344543" lon="11.85587934270088"><ele>430.0</ele><time>2026-04-27T16:24:29Z</time></trkpt><trkpt lat="48.441132512118934" lon="11.855757165342757"><ele>429.5</ele><time>2026-04-27T16:24:30Z</time></trkpt><trkpt lat="48.441203002015534" lon="11.855630959329927"><ele>429.0</ele><time>2026-04-27T16:24:31Z</time></trkpt><trkpt lat="48.441274378175095" lon="11.855494572272324"><ele>428.5</ele><time>2026-04-27T16:24:32Z</time></trkpt><trkpt lat="48.44134936978114" lon="11.855354917897731"><ele>428.0</ele><time>2026-04-27T16:24:33Z</time></trkpt><trkpt lat="48.441423552882284" lon="11.855210942576793"><ele>427.5</ele><time>2026-04-27T16:24:34Z</time></trkpt><trkpt lat="48.441495719456185" lon="11.855069222296507"><ele>427.0</ele><time>2026-04-27T16:24:35Z</time></trkpt><trkpt lat="48.44156519489838" lon="11.854930788123301"><ele>426.5</ele><time>2026-04-27T16:24:36Z</time></trkpt><trkpt lat="48.44163599219773" lon="11.854798543233773"><ele>426.0</ele><time>2026-04-27T16:24:37Z</time></trkpt><trkpt lat="48.44170301157707" lon="11.854667237651778"><ele>426.0</ele><time>2026-04-27T16:24:38Z</time></trkpt><trkpt lat="48.44176780765062" lon="11.854522661737024"><ele>426.0</ele><time>2026-04-27T16:24:39Z</time></trkpt><trkpt lat="48.441839442449165" lon="11.85437791104342"><ele>426.0</ele><time>2026-04-27T16:24:40Z</time></trkpt><trkpt lat="48.441912315685784" lon="11.854233731101118"><ele>426.0</ele><time>2026-04-27T16:24:41Z</time></trkpt><trkpt lat="48.44198359939283" lon="11.854088039700486"><ele>425.75</ele><time>2026-04-27T16:24:42Z</time></trkpt><trkpt lat="48.44205465274323" lon="11.853944356171496"><ele>425.5</ele><time>2026-04-27T16:24:43Z</time></trkpt><trkpt lat="48.442125056370315" lon="11.853799732046975"><ele>425.25</ele><time>2026-04-27T16:24:44Z</time></trkpt><trkpt lat="48.4421955474042" lon="11.85365649578786"><ele>425.0</ele><time>2026-04-27T16:24:45Z</time></trkpt><trkpt lat="48.442270650716495" lon="11.85351598670132"><ele>425.25</ele><time>2026-04-27T16:24:46Z</time></trkpt><trkpt lat="48.44235099386262" lon="11.853371436969011"><ele>425.5</ele><time>2026-04-27T16:24:47Z</time></trkpt><trkpt lat="48.44243124099717" lon="11.853223714013687"><ele>425.75</ele><time>2026-04-27T16:24:48Z</time></trkpt><trkpt lat="48.44251276852484" lon="11.853076716103187"><ele>426.0</ele><time>2026-04-27T16:24:49Z</time></trkpt><trkpt lat="48.44259763183501" lon="11.852935444949372"><ele>426.0</ele><time>2026-04-27T16:24:50Z</time></trkpt><trkpt lat="48.44268986495834" lon="11.852799360732805"><ele>426.0</ele><time>2026-04-27T16:24:51Z</time></trkpt><trkpt lat="48.44279152055662" lon="11.852669570308162"><ele>426.0</ele><time>2026-04-27T16:24:52Z</time></trkpt><trkpt lat="48.44290712197035" lon="11.852547049277991"><ele>426.0</ele><time>2026-04-27T16:24:53Z</time></trkpt><trkpt lat="48.4430247850571" lon="11.852435547683498"><ele>425.0</ele><time>2026-04-27T16:24:54Z</time></trkpt><trkpt lat="48.44314126037761" lon="11.8523312029745"><ele>424.0</ele><time>2026-04-27T16:24:55Z</time></trkpt><trkpt lat="48.44328714791466" lon="11.852219572121815"><ele>423.0</ele><time>2026-04-27T16:24:56Z</time></trkpt><trkpt lat="48.44341930268659" lon="11.85212789036438"><ele>422.0</ele><time>2026-04-27T16:24:57Z</time></trkpt><trkpt lat="48.44354937133704" lon="11.852044570208184"><ele>422.0</ele><time>2026-04-27T16:24:58Z</time></trkpt><trkpt lat="48.44368237925475" lon="11.851971485681787"><ele>422.0</ele><time>2026-04-27T16:24:59Z</time></trkpt><trkpt lat="48.44381644829606" lon="11.851887511321312"><ele>422.0</ele><time>2026-04-27T16:25:00Z</time></trkpt><trkpt lat="48.443957719155456" lon="11.851796530344883"><ele>422.0</ele><time>2026-04-27T16:25:01Z</time></trkpt><trkpt lat="48.44410719028724" lon="11.851704201139622"><ele>422.0</ele><time>2026-04-27T16:25:02Z</time></trkpt><trkpt lat="48.444269213272236" lon="11.851609880321874"><ele>422.0</ele><time>2026-04-27T16:25:03Z</time></trkpt><trkpt lat="48.44444191619587" lon="11.85150805665373"><ele>422.0</ele><time>2026-04-27T16:25:04Z</time></trkpt><trkpt lat="48.4446189889513" lon="11.851398104063792"><ele>421.3333333333333</ele><time>2026-04-27T16:25:05Z</time></trkpt><trkpt lat="48.444798488429356" lon="11.851284170529834"><ele>420.66666666666663</ele><time>2026-04-27T16:25:06Z</time></trkpt><trkpt lat="48.4449639905414" lon="11.851180525090822"><ele>420.0</ele><time>2026-04-27T16:25:07Z</time></trkpt><trkpt lat="48.4451328193644" lon="11.851075886330738"><ele>420.0</ele><time>2026-04-27T16:25:08Z</time></trkpt><trkpt lat="48.445309610960834" lon="11.850975545697787"><ele>420.0</ele><time>2026-04-27T16:25:09Z</time></trkpt><trkpt lat="48.4454901604119" lon="11.850877149297723"><ele>420.0</ele><time>2026-04-27T16:25:10Z</time></trkpt><trkpt lat="48.44567112320649" lon="11.850779848440997"><ele>420.33333333333337</ele><time>2026-04-27T16:25:11Z</time></trkpt><trkpt lat="48.44585726902855" lon="11.850691598249021"><ele>420.6666666666667</ele><time>2026-04-27T16:25:12Z</time></trkpt><trkpt lat="48.44605065569002" lon="11.850622932931984"><ele>421.0</ele><time>2026-04-27T16:25:13Z</time></trkpt><trkpt lat="48.446248739812134" lon="11.850573980261741"><ele>421.33333333333337</ele><time>2026-04-27T16:25:14Z</time></trkpt><trkpt lat="48.446449058762255" lon="11.85053307205101"><ele>421.66666666666663</ele><time>2026-04-27T16:25:15Z</time></trkpt><trkpt lat="48.44664122889976" lon="11.850495297100686"><ele>422.0</ele><time>2026-04-27T16:25:16Z</time></trkpt><trkpt lat="48.44681943355496" lon="11.85046368524217"><ele>422.0</ele><time>2026-04-27T16:25:17Z</time></trkpt><trkpt lat="48.446986702410825" lon="11.850446215382362"><ele>422.0</ele><time>2026-04-27T16:25:18Z</time></trkpt><trkpt lat="48.44714796799132" lon="11.85044046014897"><ele>422.0</ele><time>2026-04-27T16:25:19Z</time></trkpt><trkpt lat="48.447295925877704" lon="11.85045193745459"><ele>421.75</ele><time>2026-04-27T16:25:20Z</time></trkpt><trkpt lat="48.44743194902284" lon="11.850467991284358"><ele>421.5</ele><time>2026-04-27T16:25:21Z</time></trkpt><trkpt lat="48.44755565948827" lon="11.850485006293733"><ele>421.25</ele><time>2026-04-27T16:25:22Z</time></trkpt><trkpt lat="48.44765833149261" lon="11.85050326401324"><ele>421.0</ele><time>2026-04-27T16:25:23Z</time></trkpt><trkpt lat="48.447753381026374" lon="11.850521049209869"><ele>421.0</ele><time>2026-04-27T16:25:24Z</time></trkpt><trkpt lat="48.447845997048866" lon="11.850538464167736"><ele>421.0</ele><time>2026-04-27T16:25:25Z</time></trkpt><trkpt lat="48.44793269356705" lon="11.850555988467722"><ele>421.0</ele><time>2026-04-27T16:25:26Z</time></trkpt><trkpt lat="48.44802643854193" lon="11.850578754012984"><ele>421.0</ele><time>2026-04-27T16:25:27Z</time></trkpt><trkpt lat="48.44812961699626" lon="11.85060522019066"><ele>421.0</ele><time>2026-04-27T16:25:28Z</time></trkpt><trkpt lat="48.448236979091966" lon="11.850643010985587"><ele>422.0</ele><time>2026-04-27T16:25:29Z</time></trkpt><trkpt lat="48.44835555812447" lon="11.850688092170405"><ele>423.0</ele><time>2026-04-27T16:25:30Z</time></trkpt><trkpt lat="48.448502053780466" lon="11.850749543258493"><ele>424.0</ele><time>2026-04-27T16:25:31Z</time></trkpt><trkpt lat="48.44865420527848" lon="11.850817420249953"><ele>425.0</ele><time>2026-04-27T16:25:32Z</time></trkpt><trkpt lat="48.44879468261291" lon="11.850910665661399"><ele>426.66666666666663</ele><time>2026-04-27T16:25:33Z</time></trkpt><trkpt lat="48.44895757312212" lon="11.850998794401777"><ele>428.33333333333337</ele><time>2026-04-27T16:25:34Z</time></trkpt><trkpt lat="48.44913361263256" lon="11.851103222945662"><ele>430.0</ele><time>2026-04-27T16:25:35Z</time></trkpt><trkpt lat="48.44931350726589" lon="11.851212014400025"><ele>430.0</ele><time>2026-04-27T16:25:36Z</time></trkpt><trkpt lat="48.44947989144783" lon="11.85130733266409"><ele>430.0</ele><time>2026-04-27T16:25:37Z</time></trkpt><trkpt lat="48.449637529408555" lon="11.851397111491847"><ele>430.0</ele><time>2026-04-27T16:25:38Z</time></trkpt><trkpt lat="48.44982136571599" lon="11.851499690480638"><ele>429.33333333333337</ele><time>2026-04-27T16:25:39Z</time></trkpt><trkpt lat="48.45002489961199" lon="11.851585264765998"><ele>428.66666666666663</ele><time>2026-04-27T16:25:40Z</time></trkpt><trkpt lat="48.45023532441461" lon="11.851693947318985"><ele>428.0</ele><time>2026-04-27T16:25:41Z</time></trkpt><trkpt lat="48.45045484173435" lon="11.851798701529807"><ele>427.0</ele><time>2026-04-27T16:25:42Z</time></trkpt><trkpt lat="48.45067401922278" lon="11.85189846390351"><ele>426.0</ele><time>2026-04-27T16:25:43Z</time></trkpt><trkpt lat="48.45089493526189" lon="11.851991057568386"><ele>426.0</ele><time>2026-04-27T16:25:44Z</time></trkpt><trkpt lat="48.451100441007085" lon="11.85209782998221"><ele>426.0</ele><time>2026-04-27T16:25:45Z</time></trkpt><trkpt lat="48.45130887211482" lon="11.852151886653104"><ele>426.0</ele><time>2026-04-27T16:25:46Z</time></trkpt><trkpt lat="48.45151905462257" lon="11.852227385210005"><ele>424.5</ele><time>2026-04-27T16:25:47Z</time></trkpt><trkpt lat="48.45173841764058" lon="11.85232473737896"><ele>423.0</ele><time>2026-04-27T16:25:48Z</time></trkpt><trkpt lat="48.45196513325106" lon="11.852392048558858"><ele>423.5</ele><time>2026-04-27T16:25:49Z</time></trkpt><trkpt lat="48.4521937687305" lon="11.85245396694528"><ele>424.0</ele><time>2026-04-27T16:25:50Z</time></trkpt><trkpt lat="48.45242332831004" lon="11.852511572854498"><ele>424.0</ele><time>2026-04-27T16:25:51Z</time></trkpt><trkpt lat="48.452651814243936" lon="11.852538163087141"><ele>424.0</ele><time>2026-04-27T16:25:52Z</time></trkpt><trkpt lat="48.45287416994228" lon="11.852587805435475"><ele>425.0</ele><time>2026-04-27T16:25:53Z</time></trkpt><trkpt lat="48.45309767344685" lon="11.852627771142732"><ele>426.0</ele><time>2026-04-27T16:25:54Z</time></trkpt><trkpt lat="48.45332418200275" lon="11.852663350096662"><ele>426.0</ele><time>2026-04-27T16:25:55Z</time></trkpt><trkpt lat="48.45355244260272" lon="11.852719041332794"><ele>426.0</ele><time>2026-04-27T16:25:56Z</time></trkpt><trkpt lat="48.45378297227476" lon="11.852747679813154"><ele>425.0</ele><time>2026-04-27T16:25:57Z</time></trkpt><trkpt lat="48.45401422407687" lon="11.852765088303903"><ele>424.0</ele><time>2026-04-27T16:25:58Z</time></trkpt><trkpt lat="48.45424629973703" lon="11.852774190656753"><ele>424.0</ele><time>2026-04-27T16:25:59Z</time></trkpt><trkpt lat="48.45448024596601" lon="11.85277305789024"><ele>424.0</ele><time>2026-04-27T16:26:00Z</time></trkpt><trkpt lat="48.45471141744903" lon="11.852761629830663"><ele>421.5</ele><time>2026-04-27T16:26:01Z</time></trkpt><trkpt lat="48.45493948141056" lon="11.852740899192767"><ele>419.0</ele><time>2026-04-27T16:26:02Z</time></trkpt><trkpt lat="48.45516518142875" lon="11.85269113073557"><ele>419.0</ele><time>2026-04-27T16:26:03Z</time></trkpt><trkpt lat="48.455393383784234" lon="11.852665384116737"><ele>419.0</ele><time>2026-04-27T16:26:04Z</time></trkpt><trkpt lat="48.455621744285565" lon="11.852631965484514"><ele>420.0</ele><time>2026-04-27T16:26:05Z</time></trkpt><trkpt lat="48.455851312660585" lon="11.852592806912353"><ele>421.0</ele><time>2026-04-27T16:26:06Z</time></trkpt><trkpt lat="48.45607778765469" lon="11.852553084752135"><ele>421.0</ele><time>2026-04-27T16:26:07Z</time></trkpt><trkpt lat="48.4562996556458" lon="11.852511913684639"><ele>421.0</ele><time>2026-04-27T16:26:08Z</time></trkpt><trkpt lat="48.456519690485386" lon="11.852463765337625"><ele>421.0</ele><time>2026-04-27T16:26:09Z</time></trkpt><trkpt lat="48.456741135275806" lon="11.852408153513776"><ele>421.0</ele><time>2026-04-27T16:26:10Z</time></trkpt><trkpt lat="48.45696595073093" lon="11.85234693274218"><ele>421.0</ele><time>2026-04-27T16:26:11Z</time></trkpt><trkpt lat="48.457189502507546" lon="11.852280776541164"><ele>421.0</ele><time>2026-04-27T16:26:12Z</time></trkpt><trkpt lat="48.45739885022622" lon="11.852213007451168"><ele>421.0</ele><time>2026-04-27T16:26:13Z</time></trkpt><trkpt lat="48.45760079081838" lon="11.852180396696621"><ele>421.0</ele><time>2026-04-27T16:26:14Z</time></trkpt><trkpt lat="48.45779311065048" lon="11.852122643510205"><ele>421.33333333333337</ele><time>2026-04-27T16:26:15Z</time></trkpt><trkpt lat="48.45797900045749" lon="11.851996293688574"><ele>421.66666666666663</ele><time>2026-04-27T16:26:16Z</time></trkpt><trkpt lat="48.45817181405674" lon="11.851916898994242"><ele>422.0</ele><time>2026-04-27T16:26:17Z</time></trkpt><trkpt lat="48.45835946401392" lon="11.851835969978268"><ele>422.0</ele><time>2026-04-27T16:26:18Z</time></trkpt><trkpt lat="48.45853475136332" lon="11.851754892123845"><ele>422.0</ele><time>2026-04-27T16:26:19Z</time></trkpt><trkpt lat="48.45869855445605" lon="11.851673473117232"><ele>422.0</ele><time>2026-04-27T16:26:20Z</time></trkpt><trkpt lat="48.45885150893849" lon="11.851591556533466"><ele>422.3333333333333</ele><time>2026-04-27T16:26:21Z</time></trkpt><trkpt lat="48.459003398431456" lon="11.851508762352259"><ele>422.66666666666663</ele><time>2026-04-27T16:26:22Z</time></trkpt><trkpt lat="48.45916201296888" lon="11.851422620822087"><ele>423.0</ele><time>2026-04-27T16:26:23Z</time></trkpt><trkpt lat="48.45930839852094" lon="11.851341319790187"><ele>423.0</ele><time>2026-04-27T16:26:24Z</time></trkpt><trkpt lat="48.45944345160442" lon="11.851264618439318"><ele>423.0</ele><time>2026-04-27T16:26:25Z</time></trkpt><trkpt lat="48.45956747129458" lon="11.851189690686791"><ele>423.0</ele><time>2026-04-27T16:26:26Z</time></trkpt><trkpt lat="48.459679905830846" lon="11.851114368698315"><ele>423.0</ele><time>2026-04-27T16:26:27Z</time></trkpt><trkpt lat="48.4597803750275" lon="11.851044225086804"><ele>423.3333333333333</ele><time>2026-04-27T16:26:28Z</time></trkpt><trkpt lat="48.45986871189101" lon="11.850982212422855"><ele>423.66666666666663</ele><time>2026-04-27T16:26:29Z</time></trkpt><trkpt lat="48.45994907832947" lon="11.850926556045739"><ele>424.0</ele><time>2026-04-27T16:26:30Z</time></trkpt><trkpt lat="48.460026134845734" lon="11.85087094900496"><ele>424.3333333333333</ele><time>2026-04-27T16:26:31Z</time></trkpt><trkpt lat="48.46009255664001" lon="11.850819346200863"><ele>424.66666666666663</ele><time>2026-04-27T16:26:32Z</time></trkpt><trkpt lat="48.460149018487854" lon="11.850774506793103"><ele>425.0</ele><time>2026-04-27T16:26:33Z</time></trkpt><trkpt lat="48.460208131304306" lon="11.8507414701937"><ele>425.0</ele><time>2026-04-27T16:26:34Z</time></trkpt><trkpt lat="48.460323853112186" lon="11.850796902499313"><ele>425.0</ele><time>2026-04-27T16:26:36Z</time></trkpt><trkpt lat="48.46036375748377" lon="11.850898741086151"><ele>425.0</ele><time>2026-04-27T16:26:37Z</time></trkpt><trkpt lat="48.460390952051284" lon="11.851047054512362"><ele>425.0</ele><time>2026-04-27T16:26:38Z</time></trkpt><trkpt lat="48.46040474363804" lon="11.851228460589448"><ele>425.0</ele><time>2026-04-27T16:26:39Z</time></trkpt><trkpt lat="48.46041070018401" lon="11.851441096238872"><ele>425.0</ele><time>2026-04-27T16:26:40Z</time></trkpt><trkpt lat="48.46041627849991" lon="11.85166981481448"><ele>425.0</ele><time>2026-04-27T16:26:41Z</time></trkpt><trkpt lat="48.4604230113199" lon="11.851920119121989"><ele>425.0</ele><time>2026-04-27T16:26:42Z</time></trkpt><trkpt lat="48.46043280457122" lon="11.852190689570682"><ele>424.66666666666663</ele><time>2026-04-27T16:26:43Z</time></trkpt><trkpt lat="48.46044521933673" lon="11.852474112403593"><ele>424.33333333333337</ele><time>2026-04-27T16:26:44Z</time></trkpt><trkpt lat="48.46045899065804" lon="11.852770322582769"><ele>424.0</ele><time>2026-04-27T16:26:45Z</time></trkpt><trkpt lat="48.460474245212794" lon="11.853074704874562"><ele>427.0</ele><time>2026-04-27T16:26:46Z</time></trkpt><trkpt lat="48.46049331172907" lon="11.85338031940646"><ele>430.0</ele><time>2026-04-27T16:26:47Z</time></trkpt><trkpt lat="48.460520151432995" lon="11.85366139173613"><ele>433.0</ele><time>2026-04-27T16:26:48Z</time></trkpt><trkpt lat="48.460562427066314" lon="11.853943660465216"><ele>433.0</ele><time>2026-04-27T16:26:49Z</time></trkpt><trkpt lat="48.46062081183685" lon="11.854229897420687"><ele>433.0</ele><time>2026-04-27T16:26:50Z</time></trkpt><trkpt lat="48.46068496286864" lon="11.854511421357484"><ele>433.0</ele><time>2026-04-27T16:26:51Z</time></trkpt><trkpt lat="48.46074188520315" lon="11.854776710795635"><ele>432.33333333333337</ele><time>2026-04-27T16:26:52Z</time></trkpt><trkpt lat="48.46078501094122" lon="11.855044170222525"><ele>431.66666666666663</ele><time>2026-04-27T16:26:53Z</time></trkpt><trkpt lat="48.460810851989265" lon="11.855330553700878"><ele>431.0</ele><time>2026-04-27T16:26:54Z</time></trkpt><trkpt lat="48.460826074271736" lon="11.855623990790034"><ele>429.66666666666663</ele><time>2026-04-27T16:26:55Z</time></trkpt><trkpt lat="48.4608171496672" lon="11.855912397337022"><ele>428.33333333333337</ele><time>2026-04-27T16:26:56Z</time></trkpt><trkpt lat="48.46079836723816" lon="11.856192514593925"><ele>427.0</ele><time>2026-04-27T16:26:57Z</time></trkpt><trkpt lat="48.460789324858055" lon="11.856470000976245"><ele>425.33333333333337</ele><time>2026-04-27T16:26:58Z</time></trkpt><trkpt lat="48.46080647817948" lon="11.856758809391573"><ele>423.66666666666663</ele><time>2026-04-27T16:26:59Z</time></trkpt><trkpt lat="48.460838769902416" lon="11.857053375536076"><ele>422.0</ele><time>2026-04-27T16:27:00Z</time></trkpt><trkpt lat="48.460867384214716" lon="11.857350053462241"><ele>421.3333333333333</ele><time>2026-04-27T16:27:01Z</time></trkpt><trkpt lat="48.46087107923431" lon="11.857643991927036"><ele>420.66666666666663</ele><time>2026-04-27T16:27:02Z</time></trkpt><trkpt lat="48.46086319469257" lon="11.857918657754206"><ele>420.0</ele><time>2026-04-27T16:27:03Z</time></trkpt><trkpt lat="48.46086034762892" lon="11.858181203630593"><ele>420.0</ele><time>2026-04-27T16:27:04Z</time></trkpt><trkpt lat="48.46086828098496" lon="11.858435753785784"><ele>420.0</ele><time>2026-04-27T16:27:05Z</time></trkpt><trkpt lat="48.46089013770489" lon="11.85868353497788"><ele>420.0</ele><time>2026-04-27T16:27:06Z</time></trkpt><trkpt lat="48.460925018026536" lon="11.858927547068035"><ele>420.0</ele><time>2026-04-27T16:27:07Z</time></trkpt><trkpt lat="48.4609696975741" lon="11.859161885213402"><ele>420.0</ele><time>2026-04-27T16:27:08Z</time></trkpt><trkpt lat="48.46102273074345" lon="11.85938025654489"><ele>420.0</ele><time>2026-04-27T16:27:09Z</time></trkpt><trkpt lat="48.461078490446454" lon="11.859595067228343"><ele>420.0</ele><time>2026-04-27T16:27:10Z</time></trkpt><trkpt lat="48.46112595013805" lon="11.859807131630637"><ele>420.0</ele><time>2026-04-27T16:27:11Z</time></trkpt><trkpt lat="48.46115905136548" lon="11.860017100662697"><ele>420.0</ele><time>2026-04-27T16:27:12Z</time></trkpt><trkpt lat="48.46117785611369" lon="11.86022358225618"><ele>420.0</ele><time>2026-04-27T16:27:13Z</time></trkpt><trkpt lat="48.461183140708116" lon="11.860428149765143"><ele>420.5</ele><time>2026-04-27T16:27:14Z</time></trkpt><trkpt lat="48.46117402167578" lon="11.860626655089995"><ele>421.0</ele><time>2026-04-27T16:27:15Z</time></trkpt><trkpt lat="48.461152628462855" lon="11.86081843818482"><ele>421.5</ele><time>2026-04-27T16:27:16Z</time></trkpt><trkpt lat="48.46112952222173" lon="11.86099405270712"><ele>422.0</ele><time>2026-04-27T16:27:17Z</time></trkpt><trkpt lat="48.46110899182682" lon="11.861165195297843"><ele>421.75</ele><time>2026-04-27T16:27:18Z</time></trkpt><trkpt lat="48.461094515504655" lon="11.861332312983183"><ele>421.5</ele><time>2026-04-27T16:27:19Z</time></trkpt><trkpt lat="48.46107586261802" lon="11.86149962529842"><ele>421.25</ele><time>2026-04-27T16:27:20Z</time></trkpt><trkpt lat="48.46106881581116" lon="11.861676969521998"><ele>421.0</ele><time>2026-04-27T16:27:21Z</time></trkpt><trkpt lat="48.461073774816384" lon="11.861856212178898"><ele>421.0</ele><time>2026-04-27T16:27:22Z</time></trkpt><trkpt lat="48.461088349188614" lon="11.862031322153806"><ele>421.0</ele><time>2026-04-27T16:27:23Z</time></trkpt><trkpt lat="48.46111857139134" lon="11.86219845534398"><ele>421.0</ele><time>2026-04-27T16:27:24Z</time></trkpt><trkpt lat="48.461165153628734" lon="11.862392875337608"><ele>421.0</ele><time>2026-04-27T16:27:25Z</time></trkpt><trkpt lat="48.46121673546226" lon="11.862588193372483"><ele>420.75</ele><time>2026-04-27T16:27:26Z</time></trkpt><trkpt lat="48.46126270699164" lon="11.86275682562559"><ele>420.5</ele><time>2026-04-27T16:27:27Z</time></trkpt><trkpt lat="48.461313094110935" lon="11.862907659909226"><ele>420.25</ele><time>2026-04-27T16:27:28Z</time></trkpt><trkpt lat="48.46137569676325" lon="11.863043905542435"><ele>420.0</ele><time>2026-04-27T16:27:29Z</time></trkpt><trkpt lat="48.4614520597873" lon="11.863158104464906"><ele>421.4</ele><time>2026-04-27T16:27:30Z</time></trkpt><trkpt lat="48.461542179750566" lon="11.863245559984879"><ele>422.8</ele><time>2026-04-27T16:27:31Z</time></trkpt><trkpt lat="48.46163884900871" lon="11.863303730294962"><ele>424.20000000000005</ele><time>2026-04-27T16:27:32Z</time></trkpt><trkpt lat="48.461749380922534" lon="11.863327210917896"><ele>425.6</ele><time>2026-04-27T16:27:33Z</time></trkpt><trkpt lat="48.46187239790006" lon="11.863320666492521"><ele>427.0</ele><time>2026-04-27T16:27:34Z</time></trkpt><trkpt lat="48.46199688294054" lon="11.863318547604738"><ele>428.75</ele><time>2026-04-27T16:27:35Z</time></trkpt><trkpt lat="48.46212275348582" lon="11.863319433741447"><ele>430.5</ele><time>2026-04-27T16:27:36Z</time></trkpt><trkpt lat="48.4622465608951" lon="11.863322628315057"><ele>432.25</ele><time>2026-04-27T16:27:37Z</time></trkpt><trkpt lat="48.462363569642875" lon="11.863329338404563"><ele>434.0</ele><time>2026-04-27T16:27:38Z</time></trkpt><trkpt lat="48.4624740277811" lon="11.863328707958395"><ele>434.0</ele><time>2026-04-27T16:27:39Z</time></trkpt><trkpt lat="48.46257958909458" lon="11.863317380391448"><ele>434.0</ele><time>2026-04-27T16:27:40Z</time></trkpt><trkpt lat="48.46268432561308" lon="11.863300412627673"><ele>434.0</ele><time>2026-04-27T16:27:41Z</time></trkpt><trkpt lat="48.4627901044868" lon="11.86328404920858"><ele>434.0</ele><time>2026-04-27T16:27:42Z</time></trkpt><trkpt lat="48.46288691512934" lon="11.863271110066353"><ele>434.0</ele><time>2026-04-27T16:27:43Z</time></trkpt><trkpt lat="48.46297281359483" lon="11.863256868063484"><ele>435.0</ele><time>2026-04-27T16:27:44Z</time></trkpt><trkpt lat="48.463058104463286" lon="11.863228550461654"><ele>436.0</ele><time>2026-04-27T16:27:45Z</time></trkpt><trkpt lat="48.4631441832746" lon="11.863173881451852"><ele>437.0</ele><time>2026-04-27T16:27:46Z</time></trkpt><trkpt lat="48.463231679075434" lon="11.863093670598476"><ele>438.0</ele><time>2026-04-27T16:27:47Z</time></trkpt><trkpt lat="48.46332608925104" lon="11.863018393763452"><ele>439.0</ele><time>2026-04-27T16:27:48Z</time></trkpt><trkpt lat="48.46342124577538" lon="11.862943122916308"><ele>439.0</ele><time>2026-04-27T16:27:49Z</time></trkpt><trkpt lat="48.46352475595684" lon="11.862893764817148"><ele>439.0</ele><time>2026-04-27T16:27:50Z</time></trkpt><trkpt lat="48.46361362150785" lon="11.862801806986836"><ele>439.0</ele><time>2026-04-27T16:27:51Z</time></trkpt><trkpt lat="48.46371096803814" lon="11.86273356642974"><ele>439.0</ele><time>2026-04-27T16:27:52Z</time></trkpt><trkpt lat="48.46380953347753" lon="11.862662453490685"><ele>439.0</ele><time>2026-04-27T16:27:53Z</time></trkpt><trkpt lat="48.46391081679341" lon="11.862587875237717"><ele>439.75</ele><time>2026-04-27T16:27:54Z</time></trkpt><trkpt lat="48.46401364502225" lon="11.862502767759022"><ele>440.5</ele><time>2026-04-27T16:27:55Z</time></trkpt><trkpt lat="48.464117798339196" lon="11.862408819281978"><ele>441.25</ele><time>2026-04-27T16:27:56Z</time></trkpt><trkpt lat="48.46421535529426" lon="11.862317072796518"><ele>442.0</ele><time>2026-04-27T16:27:57Z</time></trkpt><trkpt lat="48.46430137879137" lon="11.862231041442735"><ele>442.0</ele><time>2026-04-27T16:27:58Z</time></trkpt><trkpt lat="48.46439109962" lon="11.862151810129093"><ele>442.00000000000006</ele><time>2026-04-27T16:27:59Z</time></trkpt><trkpt lat="48.46448737846286" lon="11.862098731647752"><ele>442.00000000000006</ele><time>2026-04-27T16:28:00Z</time></trkpt><trkpt lat="48.4645766043118" lon="11.862074705941268"><ele>442.0</ele><time>2026-04-27T16:28:01Z</time></trkpt><trkpt lat="48.464666669120525" lon="11.862062627255161"><ele>442.0</ele><time>2026-04-27T16:28:02Z</time></trkpt><trkpt lat="48.46475666961349" lon="11.86207027269317"><ele>442.8</ele><time>2026-04-27T16:28:03Z</time></trkpt><trkpt lat="48.464839818498355" lon="11.86209791541256"><ele>443.6</ele><time>2026-04-27T16:28:04Z</time></trkpt><trkpt lat="48.464912338296315" lon="11.862159640833518"><ele>444.40000000000003</ele><time>2026-04-27T16:28:05Z</time></trkpt><trkpt lat="48.46495832196436" lon="11.862279522675498"><ele>445.20000000000005</ele><time>2026-04-27T16:28:06Z</time></trkpt><trkpt lat="48.46502764242855" lon="11.862393916293042"><ele>446.0</ele><time>2026-04-27T16:28:07Z</time></trkpt><trkpt lat="48.46507236886535" lon="11.862551280952065"><ele>446.4</ele><time>2026-04-27T16:28:08Z</time></trkpt><trkpt lat="48.4651119326955" lon="11.862703306051666"><ele>446.8</ele><time>2026-04-27T16:28:09Z</time></trkpt><trkpt lat="48.46514241181294" lon="11.862817304496922"><ele>447.19999999999993</ele><time>2026-04-27T16:28:10Z</time></trkpt><trkpt lat="48.465163552871516" lon="11.862909135908241"><ele>447.59999999999997</ele><time>2026-04-27T16:28:11Z</time></trkpt><trkpt lat="48.465201363682844" lon="11.863032682357737"><ele>448.0</ele><time>2026-04-27T16:28:13Z</time></trkpt><trkpt lat="48.46538692040115" lon="11.863081907259652"><ele>448.5</ele><time>2026-04-27T16:28:16Z</time></trkpt><trkpt lat="48.465476422201796" lon="11.863004740382399"><ele>449.0</ele><time>2026-04-27T16:28:17Z</time></trkpt><trkpt lat="48.465596914059006" lon="11.862953018482823"><ele>449.5</ele><time>2026-04-27T16:28:18Z</time></trkpt><trkpt lat="48.46570564762657" lon="11.862848370702935"><ele>450.0</ele><time>2026-04-27T16:28:19Z</time></trkpt><trkpt lat="48.465820088118484" lon="11.862759669575862"><ele>450.0</ele><time>2026-04-27T16:28:20Z</time></trkpt><trkpt lat="48.465940025366486" lon="11.862646289368758"><ele>450.0</ele><time>2026-04-27T16:28:21Z</time></trkpt><trkpt lat="48.46606631854492" lon="11.862507169596332"><ele>450.0</ele><time>2026-04-27T16:28:22Z</time></trkpt><trkpt lat="48.4662004774821" lon="11.862344307791012"><ele>452.66666666666663</ele><time>2026-04-27T16:28:23Z</time></trkpt><trkpt lat="48.46634336951994" lon="11.862169726253782"><ele>455.3333333333333</ele><time>2026-04-27T16:28:24Z</time></trkpt><trkpt lat="48.46649138301012" lon="11.861987125091112"><ele>458.0</ele><time>2026-04-27T16:28:25Z</time></trkpt><trkpt lat="48.46664198309601" lon="11.86179561216461"><ele>459.0</ele><time>2026-04-27T16:28:26Z</time></trkpt><trkpt lat="48.46679438960739" lon="11.86160292835305"><ele>460.0</ele><time>2026-04-27T16:28:27Z</time></trkpt><trkpt lat="48.46693269390778" lon="11.861426556563137"><ele>461.0</ele><time>2026-04-27T16:28:28Z</time></trkpt><trkpt lat="48.46707287841388" lon="11.861261483464576"><ele>462.66666666666663</ele><time>2026-04-27T16:28:29Z</time></trkpt><trkpt lat="48.46722842626856" lon="11.861116881617097"><ele>464.33333333333337</ele><time>2026-04-27T16:28:30Z</time></trkpt><trkpt lat="48.46740255094994" lon="11.860984460591746"><ele>466.0</ele><time>2026-04-27T16:28:31Z</time></trkpt><trkpt lat="48.46759376693479" lon="11.860883495833557"><ele>466.33333333333337</ele><time>2026-04-27T16:28:32Z</time></trkpt><trkpt lat="48.46778360353652" lon="11.860769148650842"><ele>466.66666666666663</ele><time>2026-04-27T16:28:33Z</time></trkpt><trkpt lat="48.46797296197206" lon="11.860639273534632"><ele>467.0</ele><time>2026-04-27T16:28:34Z</time></trkpt><trkpt lat="48.46817262997055" lon="11.86053382574403"><ele>467.0</ele><time>2026-04-27T16:28:35Z</time></trkpt><trkpt lat="48.468374047738266" lon="11.86042954584632"><ele>467.0</ele><time>2026-04-27T16:28:36Z</time></trkpt><trkpt lat="48.46857635964503" lon="11.860323378991618"><ele>467.0</ele><time>2026-04-27T16:28:37Z</time></trkpt><trkpt lat="48.468783272831395" lon="11.86021110382034"><ele>465.3333333333333</ele><time>2026-04-27T16:28:38Z</time></trkpt><trkpt lat="48.4689918855817" lon="11.860097522818808"><ele>463.66666666666663</ele><time>2026-04-27T16:28:39Z</time></trkpt><trkpt lat="48.469202353234614" lon="11.859984006119012"><ele>462.0</ele><time>2026-04-27T16:28:40Z</time></trkpt><trkpt lat="48.469413084310574" lon="11.859871616432798"><ele>461.33333333333337</ele><time>2026-04-27T16:28:41Z</time></trkpt><trkpt lat="48.46962301059255" lon="11.859759874590939"><ele>460.6666666666667</ele><time>2026-04-27T16:28:42Z</time></trkpt><trkpt lat="48.4698326624939" lon="11.859647357258558"><ele>460.0</ele><time>2026-04-27T16:28:43Z</time></trkpt><trkpt lat="48.47004151924527" lon="11.859536206096294"><ele>460.0</ele><time>2026-04-27T16:28:44Z</time></trkpt><trkpt lat="48.470246967919515" lon="11.859424644891904"><ele>460.0</ele><time>2026-04-27T16:28:45Z</time></trkpt><trkpt lat="48.470448651900746" lon="11.859316416591676"><ele>460.0</ele><time>2026-04-27T16:28:46Z</time></trkpt><trkpt lat="48.47064655197508" lon="11.85921270782757"><ele>462.6666666666667</ele><time>2026-04-27T16:28:47Z</time></trkpt><trkpt lat="48.47084079598866" lon="11.85911883026456"><ele>465.33333333333337</ele><time>2026-04-27T16:28:48Z</time></trkpt><trkpt lat="48.471030187241034" lon="11.859041972884793"><ele>468.0</ele><time>2026-04-27T16:28:49Z</time></trkpt><trkpt lat="48.471205125098734" lon="11.858983918065874"><ele>470.0</ele><time>2026-04-27T16:28:50Z</time></trkpt><trkpt lat="48.47137941691394" lon="11.85893888188773"><ele>472.0</ele><time>2026-04-27T16:28:51Z</time></trkpt><trkpt lat="48.47156567646468" lon="11.858925003541671"><ele>474.0</ele><time>2026-04-27T16:28:52Z</time></trkpt><trkpt lat="48.47175991928868" lon="11.858942805321272"><ele>474.0</ele><time>2026-04-27T16:28:53Z</time></trkpt><trkpt lat="48.47195937362726" lon="11.858985609597143"><ele>474.0</ele><time>2026-04-27T16:28:54Z</time></trkpt><trkpt lat="48.47216230008442" lon="11.859039832451352"><ele>474.0</ele><time>2026-04-27T16:28:55Z</time></trkpt><trkpt lat="48.47237271108536" lon="11.859095980436853"><ele>473.0</ele><time>2026-04-27T16:28:56Z</time></trkpt><trkpt lat="48.47259175291177" lon="11.859146873283038"><ele>472.0</ele><time>2026-04-27T16:28:57Z</time></trkpt><trkpt lat="48.47281648993747" lon="11.85920810144227"><ele>467.5</ele><time>2026-04-27T16:28:58Z</time></trkpt><trkpt lat="48.47304025761815" lon="11.859287894278678"><ele>463.0</ele><time>2026-04-27T16:28:59Z</time></trkpt><trkpt lat="48.47326355017259" lon="11.859387056531629"><ele>463.0</ele><time>2026-04-27T16:29:00Z</time></trkpt><trkpt lat="48.47348368478583" lon="11.859503173999414"><ele>463.0</ele><time>2026-04-27T16:29:01Z</time></trkpt><trkpt lat="48.473699240897176" lon="11.859633574356192"><ele>463.0</ele><time>2026-04-27T16:29:02Z</time></trkpt><trkpt lat="48.47390129598722" lon="11.859798885360723"><ele>463.0</ele><time>2026-04-27T16:29:03Z</time></trkpt><trkpt lat="48.474104670833064" lon="11.859947490485997"><ele>463.0</ele><time>2026-04-27T16:29:04Z</time></trkpt><trkpt lat="48.47430835692167" lon="11.860079673036886"><ele>463.0</ele><time>2026-04-27T16:29:05Z</time></trkpt><trkpt lat="48.47449586178143" lon="11.86023906290459"><ele>463.0</ele><time>2026-04-27T16:29:06Z</time></trkpt><trkpt lat="48.474676840015995" lon="11.860400670730085"><ele>467.0</ele><time>2026-04-27T16:29:07Z</time></trkpt><trkpt lat="48.47485138751261" lon="11.860558772741665"><ele>471.0</ele><time>2026-04-27T16:29:08Z</time></trkpt><trkpt lat="48.4750281695378" lon="11.86071044259642"><ele>475.0</ele><time>2026-04-27T16:29:09Z</time></trkpt><trkpt lat="48.47520450478577" lon="11.860856365623471"><ele>475.33333333333337</ele><time>2026-04-27T16:29:10Z</time></trkpt><trkpt lat="48.47537923633389" lon="11.860992047129312"><ele>475.66666666666663</ele><time>2026-04-27T16:29:11Z</time></trkpt><trkpt lat="48.47556226135749" lon="11.86111583955199"><ele>476.0</ele><time>2026-04-27T16:29:12Z</time></trkpt><trkpt lat="48.47575087086972" lon="11.861235134334942"><ele>476.66666666666663</ele><time>2026-04-27T16:29:13Z</time></trkpt><trkpt lat="48.47594164178288" lon="11.861356523955424"><ele>477.33333333333337</ele><time>2026-04-27T16:29:14Z</time></trkpt><trkpt lat="48.4761342227124" lon="11.86148076809093"><ele>478.0</ele><time>2026-04-27T16:29:15Z</time></trkpt><trkpt lat="48.47633142632095" lon="11.86161322979078"><ele>476.6666666666667</ele><time>2026-04-27T16:29:16Z</time></trkpt><trkpt lat="48.47653239990076" lon="11.861746677298731"><ele>475.33333333333337</ele><time>2026-04-27T16:29:17Z</time></trkpt><trkpt lat="48.47673570865628" lon="11.861877945315664"><ele>474.0</ele><time>2026-04-27T16:29:18Z</time></trkpt><trkpt lat="48.47693370119894" lon="11.86203425534909"><ele>472.66666666666663</ele><time>2026-04-27T16:29:19Z</time></trkpt><trkpt lat="48.47713725783121" lon="11.862170271671681"><ele>471.3333333333333</ele><time>2026-04-27T16:29:20Z</time></trkpt><trkpt lat="48.47734489811655" lon="11.86228207720354"><ele>470.0</ele><time>2026-04-27T16:29:21Z</time></trkpt><trkpt lat="48.47752347770082" lon="11.862433763609278"><ele>470.0</ele><time>2026-04-27T16:29:22Z</time></trkpt><trkpt lat="48.47768957103355" lon="11.862560290662339"><ele>470.0</ele><time>2026-04-27T16:29:23Z</time></trkpt><trkpt lat="48.477840699526475" lon="11.862682946367404"><ele>470.0</ele><time>2026-04-27T16:29:24Z</time></trkpt><trkpt lat="48.47797726000873" lon="11.862795906789904"><ele>471.5</ele><time>2026-04-27T16:29:25Z</time></trkpt><trkpt lat="48.4781002873198" lon="11.862900561451813"><ele>473.0</ele><time>2026-04-27T16:29:26Z</time></trkpt><trkpt lat="48.478219393979664" lon="11.862974036893146"><ele>474.5</ele><time>2026-04-27T16:29:27Z</time></trkpt><trkpt lat="48.47831976608176" lon="11.863061376374862"><ele>476.0</ele><time>2026-04-27T16:29:28Z</time></trkpt><trkpt lat="48.47841093342983" lon="11.863140710062511"><ele>476.0</ele><time>2026-04-27T16:29:29Z</time></trkpt><trkpt lat="48.478502025189435" lon="11.863221194831402"><ele>476.0</ele><time>2026-04-27T16:29:30Z</time></trkpt><trkpt lat="48.47859703677087" lon="11.863302434644902"><ele>476.0</ele><time>2026-04-27T16:29:31Z</time></trkpt><trkpt lat="48.47869422591933" lon="11.863385822769109"><ele>476.0</ele><time>2026-04-27T16:29:32Z</time></trkpt><trkpt lat="48.47878998076891" lon="11.863475264205334"><ele>476.0</ele><time>2026-04-27T16:29:33Z</time></trkpt><trkpt lat="48.47888496773171" lon="11.863565113693856"><ele>475.25</ele><time>2026-04-27T16:29:34Z</time></trkpt><trkpt lat="48.478981988830924" lon="11.863654237626799"><ele>474.5</ele><time>2026-04-27T16:29:35Z</time></trkpt><trkpt lat="48.47908095080751" lon="11.863745276093583"><ele>473.75</ele><time>2026-04-27T16:29:36Z</time></trkpt><trkpt lat="48.479180603676326" lon="11.863831266981675"><ele>473.0</ele><time>2026-04-27T16:29:37Z</time></trkpt><trkpt lat="48.47928293536789" lon="11.863913130966639"><ele>473.0</ele><time>2026-04-27T16:29:38Z</time></trkpt><trkpt lat="48.47938453187554" lon="11.863992984292276"><ele>472.99999999999994</ele><time>2026-04-27T16:29:39Z</time></trkpt><trkpt lat="48.47947935530008" lon="11.864066832401582"><ele>472.99999999999994</ele><time>2026-04-27T16:29:40Z</time></trkpt><trkpt lat="48.47957756145823" lon="11.86413732605203"><ele>473.0</ele><time>2026-04-27T16:29:41Z</time></trkpt><trkpt lat="48.47967685547084" lon="11.864206825315227"><ele>473.0</ele><time>2026-04-27T16:29:42Z</time></trkpt><trkpt lat="48.479771837850855" lon="11.86429851228724"><ele>472.4</ele><time>2026-04-27T16:29:43Z</time></trkpt><trkpt lat="48.479874589453786" lon="11.864368511837519"><ele>471.79999999999995</ele><time>2026-04-27T16:29:44Z</time></trkpt><trkpt lat="48.47997706545696" lon="11.864438306025288"><ele>471.2</ele><time>2026-04-27T16:29:45Z</time></trkpt><trkpt lat="48.480078889738486" lon="11.864505544982476"><ele>470.6</ele><time>2026-04-27T16:29:46Z</time></trkpt><trkpt lat="48.48017898845181" lon="11.864571644517223"><ele>470.0</ele><time>2026-04-27T16:29:47Z</time></trkpt><trkpt lat="48.4802846558415" lon="11.864614724797613"><ele>470.0</ele><time>2026-04-27T16:29:48Z</time></trkpt><trkpt lat="48.48038099652413" lon="11.86468978666238"><ele>470.0</ele><time>2026-04-27T16:29:49Z</time></trkpt><trkpt lat="48.48047836489531" lon="11.864757646909265"><ele>470.0</ele><time>2026-04-27T16:29:50Z</time></trkpt><trkpt lat="48.48057678550181" lon="11.8648252678217"><ele>470.0</ele><time>2026-04-27T16:29:51Z</time></trkpt><trkpt lat="48.4806846938088" lon="11.864896354127788"><ele>470.0</ele><time>2026-04-27T16:29:52Z</time></trkpt><trkpt lat="48.480794531383054" lon="11.864967939323735"><ele>470.2</ele><time>2026-04-27T16:29:53Z</time></trkpt><trkpt lat="48.480896717694" lon="11.865039383896429"><ele>470.4</ele><time>2026-04-27T16:29:54Z</time></trkpt><trkpt lat="48.480990178973265" lon="11.865098046414804"><ele>470.6</ele><time>2026-04-27T16:29:55Z</time></trkpt><trkpt lat="48.48107367601654" lon="11.865154165198698"><ele>470.8</ele><time>2026-04-27T16:29:56Z</time></trkpt><trkpt lat="48.48114878747999" lon="11.865204646387314"><ele>471.0</ele><time>2026-04-27T16:29:57Z</time></trkpt><trkpt lat="48.48122389351402" lon="11.865232256344608"><ele>471.0</ele><time>2026-04-27T16:29:58Z</time></trkpt><trkpt lat="48.4812989224343" lon="11.86523162123524"><ele>471.0</ele><time>2026-04-27T16:29:59Z</time></trkpt><trkpt lat="48.481372767101014" lon="11.865195911910343"><ele>471.0</ele><time>2026-04-27T16:30:00Z</time></trkpt><trkpt lat="48.48143871720763" lon="11.865108956718354"><ele>471.0</ele><time>2026-04-27T16:30:01Z</time></trkpt><trkpt lat="48.48148412926886" lon="11.86497841382278"><ele>471.0</ele><time>2026-04-27T16:30:02Z</time></trkpt><trkpt lat="48.48150067684991" lon="11.864818977875327"><ele>471.0</ele><time>2026-04-27T16:30:03Z</time></trkpt><trkpt lat="48.48149732020348" lon="11.864635361444027"><ele>471.0</ele><time>2026-04-27T16:30:04Z</time></trkpt><trkpt lat="48.48148724489347" lon="11.864467826393511"><ele>471.0</ele><time>2026-04-27T16:30:05Z</time></trkpt><trkpt lat="48.48148094968348" lon="11.864312597426125"><ele>471.0</ele><time>2026-04-27T16:30:06Z</time></trkpt><trkpt lat="48.48146831189933" lon="11.864163571256482"><ele>471.0</ele><time>2026-04-27T16:30:07Z</time></trkpt><trkpt lat="48.4814491428782" lon="11.8640269381351"><ele>471.0</ele><time>2026-04-27T16:30:08Z</time></trkpt><trkpt lat="48.481422638252816" lon="11.863896725180659"><ele>471.0</ele><time>2026-04-27T16:30:09Z</time></trkpt><trkpt lat="48.4813820690345" lon="11.863770511276012"><ele>471.0</ele><time>2026-04-27T16:30:10Z</time></trkpt><trkpt lat="48.48131907662142" lon="11.863664113393195"><ele>471.0</ele><time>2026-04-27T16:30:11Z</time></trkpt><trkpt lat="48.48124183862547" lon="11.863570494252095"><ele>471.0</ele><time>2026-04-27T16:30:12Z</time></trkpt><trkpt lat="48.48116694580895" lon="11.863480386926033"><ele>471.0</ele><time>2026-04-27T16:30:13Z</time></trkpt><trkpt lat="48.481100656452696" lon="11.863410376526762"><ele>470.1666666666667</ele><time>2026-04-27T16:30:14Z</time></trkpt><trkpt lat="48.48104441723216" lon="11.863354187339086"><ele>469.33333333333337</ele><time>2026-04-27T16:30:15Z</time></trkpt><trkpt lat="48.48099682641911" lon="11.863269892492994"><ele>468.5</ele><time>2026-04-27T16:30:16Z</time></trkpt><trkpt lat="48.48097488114027" lon="11.863156741816494"><ele>467.6666666666667</ele><time>2026-04-27T16:30:17Z</time></trkpt><trkpt lat="48.480987620735114" lon="11.8630323917738"><ele>466.83333333333337</ele><time>2026-04-27T16:30:18Z</time></trkpt><trkpt lat="48.481029675551945" lon="11.862894303867485"><ele>466.0</ele><time>2026-04-27T16:30:19Z</time></trkpt><trkpt lat="48.481100015900296" lon="11.862751765798189"><ele>466.0</ele><time>2026-04-27T16:30:20Z</time></trkpt><trkpt lat="48.481181696522675" lon="11.862619318900364"><ele>466.0</ele><time>2026-04-27T16:30:21Z</time></trkpt><trkpt lat="48.48126238795667" lon="11.862491516715604"><ele>466.0</ele><time>2026-04-27T16:30:22Z</time></trkpt><trkpt lat="48.48134250113186" lon="11.862367166656623"><ele>466.0</ele><time>2026-04-27T16:30:23Z</time></trkpt><trkpt lat="48.48141894517204" lon="11.86224067171414"><ele>465.20000000000005</ele><time>2026-04-27T16:30:24Z</time></trkpt><trkpt lat="48.48149104433128" lon="11.862126824995842"><ele>464.40000000000003</ele><time>2026-04-27T16:30:25Z</time></trkpt><trkpt lat="48.4815631538958" lon="11.862020932893135"><ele>463.6</ele><time>2026-04-27T16:30:26Z</time></trkpt><trkpt lat="48.481645514978474" lon="11.861927381650224"><ele>462.8</ele><time>2026-04-27T16:30:27Z</time></trkpt><trkpt lat="48.481733873625444" lon="11.861853929695489"><ele>462.0</ele><time>2026-04-27T16:30:28Z</time></trkpt><trkpt lat="48.481830779187156" lon="11.86180328333558"><ele>462.0</ele><time>2026-04-27T16:30:29Z</time></trkpt><trkpt lat="48.48194091642814" lon="11.86177904752164"><ele>462.0</ele><time>2026-04-27T16:30:30Z</time></trkpt><trkpt lat="48.482055464589095" lon="11.861783975309125"><ele>462.0</ele><time>2026-04-27T16:30:31Z</time></trkpt><trkpt lat="48.48217108131802" lon="11.861798524560331"><ele>462.0</ele><time>2026-04-27T16:30:32Z</time></trkpt><trkpt lat="48.48228151430578" lon="11.861813889835508"><ele>461.6</ele><time>2026-04-27T16:30:33Z</time></trkpt><trkpt lat="48.48238776274914" lon="11.861831729037355"><ele>461.20000000000005</ele><time>2026-04-27T16:30:34Z</time></trkpt><trkpt lat="48.4824928152932" lon="11.861858417159121"><ele>460.8</ele><time>2026-04-27T16:30:35Z</time></trkpt><trkpt lat="48.482592628014885" lon="11.861878520508695"><ele>460.4</ele><time>2026-04-27T16:30:36Z</time></trkpt><trkpt lat="48.4826932065357" lon="11.861897401433273"><ele>460.0</ele><time>2026-04-27T16:30:37Z</time></trkpt><trkpt lat="48.48279325126925" lon="11.861916652450516"><ele>460.0</ele><time>2026-04-27T16:30:38Z</time></trkpt><trkpt lat="48.48289664872012" lon="11.861937382498432"><ele>460.0</ele><time>2026-04-27T16:30:39Z</time></trkpt><trkpt lat="48.48300064799736" lon="11.861954961246937"><ele>460.0</ele><time>2026-04-27T16:30:40Z</time></trkpt><trkpt lat="48.483106365332134" lon="11.861974466652285"><ele>460.0</ele><time>2026-04-27T16:30:41Z</time></trkpt><trkpt lat="48.48321119628652" lon="11.861995002611975"><ele>460.0</ele><time>2026-04-27T16:30:42Z</time></trkpt><trkpt lat="48.48331389189706" lon="11.86202983592043"><ele>458.4</ele><time>2026-04-27T16:30:43Z</time></trkpt><trkpt lat="48.483414094220485" lon="11.862066626892416"><ele>456.8</ele><time>2026-04-27T16:30:44Z</time></trkpt><trkpt lat="48.48351373909117" lon="11.862112524617874"><ele>455.20000000000005</ele><time>2026-04-27T16:30:45Z</time></trkpt><trkpt lat="48.483611240957856" lon="11.862162088413541"><ele>453.6</ele><time>2026-04-27T16:30:46Z</time></trkpt><trkpt lat="48.483705542191736" lon="11.862223459096494"><ele>452.0</ele><time>2026-04-27T16:30:47Z</time></trkpt><trkpt lat="48.4838024819174" lon="11.862271946881108"><ele>450.6</ele><time>2026-04-27T16:30:48Z</time></trkpt><trkpt lat="48.48389726418499" lon="11.862328355752773"><ele>449.20000000000005</ele><time>2026-04-27T16:30:49Z</time></trkpt><trkpt lat="48.483988753544196" lon="11.862378344557479"><ele>447.8</ele><time>2026-04-27T16:30:50Z</time></trkpt><trkpt lat="48.48407645829267" lon="11.86244166493831"><ele>446.4</ele><time>2026-04-27T16:30:51Z</time></trkpt><trkpt lat="48.484168999588334" lon="11.862492278259136"><ele>445.0</ele><time>2026-04-27T16:30:52Z</time></trkpt><trkpt lat="48.48426315530753" lon="11.862542616596558"><ele>445.00000000000006</ele><time>2026-04-27T16:30:53Z</time></trkpt><trkpt lat="48.484348762271374" lon="11.862591378011885"><ele>445.0</ele><time>2026-04-27T16:30:54Z</time></trkpt><trkpt lat="48.48442172971518" lon="11.862631423681048"><ele>445.0</ele><time>2026-04-27T16:30:55Z</time></trkpt><trkpt lat="48.48449748793193" lon="11.86267170669367"><ele>445.0</ele><time>2026-04-27T16:30:56Z</time></trkpt><trkpt lat="48.48457223004687" lon="11.862712531612264"><ele>445.00000000000006</ele><time>2026-04-27T16:30:57Z</time></trkpt><trkpt lat="48.48463322659959" lon="11.862744272375211"><ele>445.0</ele><time>2026-04-27T16:30:58Z</time></trkpt><trkpt lat="48.48472111196516" lon="11.862814458030448"><ele>444.50000000000006</ele><time>2026-04-27T16:31:00Z</time></trkpt><trkpt lat="48.48477785756502" lon="11.862877401478878"><ele>444.0</ele><time>2026-04-27T16:31:02Z</time></trkpt><trkpt lat="48.48475264025942" lon="11.863034529161954"><ele>443.5</ele><time>2026-04-27T16:31:03Z</time></trkpt><trkpt lat="48.4847315921239" lon="11.863130668050502"><ele>443.0</ele><time>2026-04-27T16:31:04Z</time></trkpt><trkpt lat="48.48470892180011" lon="11.863247485124383"><ele>442.50000000000006</ele><time>2026-04-27T16:31:05Z</time></trkpt><trkpt lat="48.484684884704954" lon="11.863385319590147"><ele>442.0</ele><time>2026-04-27T16:31:06Z</time></trkpt><trkpt lat="48.48465782095206" lon="11.863539767506511"><ele>442.20000000000005</ele><time>2026-04-27T16:31:07Z</time></trkpt><trkpt lat="48.484634014216034" lon="11.863692972184195"><ele>442.40000000000003</ele><time>2026-04-27T16:31:08Z</time></trkpt><trkpt lat="48.484615169986675" lon="11.863817011643617"><ele>442.59999999999997</ele><time>2026-04-27T16:31:09Z</time></trkpt><trkpt lat="48.484597258612865" lon="11.863921143771583"><ele>442.79999999999995</ele><time>2026-04-27T16:31:10Z</time></trkpt><trkpt lat="48.484572379767066" lon="11.864056994949937"><ele>443.0</ele><time>2026-04-27T16:31:12Z</time></trkpt><trkpt lat="48.48471627421115" lon="11.864204851861194"><ele>442.25</ele><time>2026-04-27T16:31:14Z</time></trkpt><trkpt lat="48.4848110826448" lon="11.86427380061871"><ele>441.5</ele><time>2026-04-27T16:31:15Z</time></trkpt><trkpt lat="48.484925662672126" lon="11.864361776642845"><ele>440.75</ele><time>2026-04-27T16:31:16Z</time></trkpt><trkpt lat="48.485036063127055" lon="11.8645047689612"><ele>440.0</ele><time>2026-04-27T16:31:17Z</time></trkpt><trkpt lat="48.48516146468272" lon="11.86463910992673"><ele>439.66666666666663</ele><time>2026-04-27T16:31:18Z</time></trkpt><trkpt lat="48.485257723603496" lon="11.864840446935638"><ele>439.33333333333337</ele><time>2026-04-27T16:31:19Z</time></trkpt><trkpt lat="48.48537772514711" lon="11.865042940420985"><ele>439.0</ele><time>2026-04-27T16:31:20Z</time></trkpt><trkpt lat="48.485479950113934" lon="11.865280318134687"><ele>441.0</ele><time>2026-04-27T16:31:21Z</time></trkpt><trkpt lat="48.48558559327254" lon="11.86552135484892"><ele>443.0</ele><time>2026-04-27T16:31:22Z</time></trkpt><trkpt lat="48.485703001932244" lon="11.865755448532198"><ele>445.0</ele><time>2026-04-27T16:31:23Z</time></trkpt><trkpt lat="48.485839479096455" lon="11.86597005578441"><ele>445.0</ele><time>2026-04-27T16:31:24Z</time></trkpt><trkpt lat="48.48599356958189" lon="11.866163437476057"><ele>445.0</ele><time>2026-04-27T16:31:25Z</time></trkpt><trkpt lat="48.48616145798829" lon="11.86633098223143"><ele>445.0</ele><time>2026-04-27T16:31:26Z</time></trkpt><trkpt lat="48.486338956777765" lon="11.866465177447816"><ele>448.0</ele><time>2026-04-27T16:31:27Z</time></trkpt><trkpt lat="48.48652693206318" lon="11.86657295875685"><ele>451.0</ele><time>2026-04-27T16:31:28Z</time></trkpt><trkpt lat="48.48672447962442" lon="11.866653923956079"><ele>454.0</ele><time>2026-04-27T16:31:29Z</time></trkpt><trkpt lat="48.486927775729896" lon="11.866710086065941"><ele>455.33333333333337</ele><time>2026-04-27T16:31:30Z</time></trkpt><trkpt lat="48.48713321797425" lon="11.866763838980555"><ele>456.66666666666663</ele><time>2026-04-27T16:31:31Z</time></trkpt><trkpt lat="48.487328485971695" lon="11.866817806015243"><ele>458.0</ele><time>2026-04-27T16:31:32Z</time></trkpt><trkpt lat="48.487514355412756" lon="11.866869816438115"><ele>458.0</ele><time>2026-04-27T16:31:33Z</time></trkpt><trkpt lat="48.48769690711271" lon="11.866918143251068"><ele>458.0</ele><time>2026-04-27T16:31:34Z</time></trkpt><trkpt lat="48.487872542804766" lon="11.86696718239791"><ele>458.0</ele><time>2026-04-27T16:31:35Z</time></trkpt><trkpt lat="48.48804003928105" lon="11.867067612406158"><ele>458.66666666666663</ele><time>2026-04-27T16:31:36Z</time></trkpt><trkpt lat="48.48821742174342" lon="11.867153396837715"><ele>459.33333333333337</ele><time>2026-04-27T16:31:37Z</time></trkpt><trkpt lat="48.488384758527445" lon="11.86728847580081"><ele>460.0</ele><time>2026-04-27T16:31:38Z</time></trkpt><trkpt lat="48.48854319149433" lon="11.867446793226863"><ele>459.0</ele><time>2026-04-27T16:31:39Z</time></trkpt><trkpt lat="48.48869498399436" lon="11.867629100325855"><ele>458.0</ele><time>2026-04-27T16:31:40Z</time></trkpt><trkpt lat="48.488836749176265" lon="11.86783671683075"><ele>457.0</ele><time>2026-04-27T16:31:41Z</time></trkpt><trkpt lat="48.48897060988333" lon="11.868064776473929"><ele>459.6666666666667</ele><time>2026-04-27T16:31:42Z</time></trkpt><trkpt lat="48.48909996387362" lon="11.868306181021062"><ele>462.33333333333337</ele><time>2026-04-27T16:31:43Z</time></trkpt><trkpt lat="48.48923168842984" lon="11.868544683012692"><ele>465.0</ele><time>2026-04-27T16:31:44Z</time></trkpt><trkpt lat="48.48935928740913" lon="11.868763077949513"><ele>465.0</ele><time>2026-04-27T16:31:45Z</time></trkpt><trkpt lat="48.489489158808965" lon="11.868973067783621"><ele>465.0</ele><time>2026-04-27T16:31:46Z</time></trkpt><trkpt lat="48.489625721455695" lon="11.869172583605755"><ele>465.0</ele><time>2026-04-27T16:31:47Z</time></trkpt><trkpt lat="48.48977247998711" lon="11.869359269506912"><ele>466.0</ele><time>2026-04-27T16:31:48Z</time></trkpt><trkpt lat="48.4899312110911" lon="11.869533264052903"><ele>467.0</ele><time>2026-04-27T16:31:49Z</time></trkpt><trkpt lat="48.49009897951781" lon="11.869695558868777"><ele>468.0</ele><time>2026-04-27T16:31:50Z</time></trkpt><trkpt lat="48.490276716605926" lon="11.86984368978417"><ele>468.0</ele><time>2026-04-27T16:31:51Z</time></trkpt><trkpt lat="48.49045691152689" lon="11.869984776278129"><ele>468.0</ele><time>2026-04-27T16:31:52Z</time></trkpt><trkpt lat="48.49063835682351" lon="11.870126299262484"><ele>468.0</ele><time>2026-04-27T16:31:53Z</time></trkpt><trkpt lat="48.49082122130344" lon="11.870269861504946"><ele>466.66666666666663</ele><time>2026-04-27T16:31:54Z</time></trkpt><trkpt lat="48.49100409014547" lon="11.870415328079078"><ele>465.3333333333333</ele><time>2026-04-27T16:31:55Z</time></trkpt><trkpt lat="48.49118854958514" lon="11.870560954029601"><ele>464.0</ele><time>2026-04-27T16:31:56Z</time></trkpt><trkpt lat="48.49136549855771" lon="11.870730596755644"><ele>462.3333333333333</ele><time>2026-04-27T16:31:57Z</time></trkpt><trkpt lat="48.49155047322497" lon="11.87085103750242"><ele>460.66666666666663</ele><time>2026-04-27T16:31:58Z</time></trkpt><trkpt lat="48.49171021235869" lon="11.871006222998512"><ele>459.0</ele><time>2026-04-27T16:31:59Z</time></trkpt><trkpt lat="48.4918766836794" lon="11.871111852020611"><ele>458.66666666666663</ele><time>2026-04-27T16:32:00Z</time></trkpt><trkpt lat="48.49202722659117" lon="11.871233872283337"><ele>458.3333333333333</ele><time>2026-04-27T16:32:01Z</time></trkpt><trkpt lat="48.492170925684164" lon="11.87134764762822"><ele>458.0</ele><time>2026-04-27T16:32:02Z</time></trkpt><trkpt lat="48.49230880308222" lon="11.87145898125537"><ele>458.0</ele><time>2026-04-27T16:32:03Z</time></trkpt><trkpt lat="48.492441748139186" lon="11.871569540845401"><ele>458.0</ele><time>2026-04-27T16:32:04Z</time></trkpt><trkpt lat="48.49257567922441" lon="11.871679540235844"><ele>458.0</ele><time>2026-04-27T16:32:05Z</time></trkpt><trkpt lat="48.49271082311887" lon="11.87179114523342"><ele>457.25</ele><time>2026-04-27T16:32:06Z</time></trkpt><trkpt lat="48.492843756760244" lon="11.871891175407216"><ele>456.5</ele><time>2026-04-27T16:32:07Z</time></trkpt><trkpt lat="48.49297508981526" lon="11.871994744790449"><ele>455.75</ele><time>2026-04-27T16:32:08Z</time></trkpt><trkpt lat="48.49310733722123" lon="11.872098946440033"><ele>455.0</ele><time>2026-04-27T16:32:09Z</time></trkpt><trkpt lat="48.49323853719825" lon="11.872205720054536"><ele>455.0</ele><time>2026-04-27T16:32:10Z</time></trkpt><trkpt lat="48.493370004449524" lon="11.87231219045676"><ele>455.0</ele><time>2026-04-27T16:32:11Z</time></trkpt><trkpt lat="48.49350122004223" lon="11.872418294325495"><ele>455.0</ele><time>2026-04-27T16:32:12Z</time></trkpt><trkpt lat="48.49363333672413" lon="11.872522229977845"><ele>455.0</ele><time>2026-04-27T16:32:13Z</time></trkpt><trkpt lat="48.49375457619756" lon="11.872620127428995"><ele>454.0</ele><time>2026-04-27T16:32:14Z</time></trkpt><trkpt lat="48.49387371393565" lon="11.872705835975465"><ele>453.0</ele><time>2026-04-27T16:32:15Z</time></trkpt><trkpt lat="48.49399857738034" lon="11.87278571638895"><ele>452.0</ele><time>2026-04-27T16:32:16Z</time></trkpt><trkpt lat="48.494129825093324" lon="11.872852079353889"><ele>451.0</ele><time>2026-04-27T16:32:17Z</time></trkpt><trkpt lat="48.494253737944916" lon="11.872907138699748"><ele>451.0</ele><time>2026-04-27T16:32:18Z</time></trkpt><trkpt lat="48.494375765022006" lon="11.872954176291763"><ele>451.0</ele><time>2026-04-27T16:32:19Z</time></trkpt><trkpt lat="48.49449825067078" lon="11.872987111589612"><ele>451.0</ele><time>2026-04-27T16:32:20Z</time></trkpt><trkpt lat="48.494621259451236" lon="11.873011914095683"><ele>451.0</ele><time>2026-04-27T16:32:21Z</time></trkpt><trkpt lat="48.49474326381924" lon="11.873030145517305"><ele>450.75</ele><time>2026-04-27T16:32:22Z</time></trkpt><trkpt lat="48.49486486949478" lon="11.873040495201325"><ele>450.5</ele><time>2026-04-27T16:32:23Z</time></trkpt><trkpt lat="48.49498560057263" lon="11.873042145817632"><ele>450.25</ele><time>2026-04-27T16:32:24Z</time></trkpt><trkpt lat="48.4951068954542" lon="11.873036463265947"><ele>450.0</ele><time>2026-04-27T16:32:25Z</time></trkpt><trkpt lat="48.495228481660675" lon="11.873027065923367"><ele>450.0</ele><time>2026-04-27T16:32:26Z</time></trkpt><trkpt lat="48.49534931902065" lon="11.873014718946191"><ele>450.0</ele><time>2026-04-27T16:32:27Z</time></trkpt><trkpt lat="48.49547581235988" lon="11.872997170838058"><ele>450.0</ele><time>2026-04-27T16:32:28Z</time></trkpt><trkpt lat="48.495621883233504" lon="11.872975618801682"><ele>450.0</ele><time>2026-04-27T16:32:29Z</time></trkpt><trkpt lat="48.49574663482523" lon="11.872961434470582"><ele>450.3333333333333</ele><time>2026-04-27T16:32:30Z</time></trkpt><trkpt lat="48.49585759602465" lon="11.872944168808852"><ele>450.66666666666663</ele><time>2026-04-27T16:32:31Z</time></trkpt><trkpt lat="48.49595320124788" lon="11.87292797508114"><ele>451.0</ele><time>2026-04-27T16:32:32Z</time></trkpt><trkpt lat="48.49602543349406" lon="11.87291430690938"><ele>451.3333333333333</ele><time>2026-04-27T16:32:33Z</time></trkpt><trkpt lat="48.4961091663469" lon="11.872900633054321"><ele>451.66666666666663</ele><time>2026-04-27T16:32:35Z</time></trkpt><trkpt lat="48.4961722949537" lon="11.872899246674015"><ele>452.0</ele><time>2026-04-27T16:32:37Z</time></trkpt><trkpt lat="48.49615475474263" lon="11.872680955741131"><ele>452.20000000000005</ele><time>2026-04-27T16:32:39Z</time></trkpt><trkpt lat="48.496102027655745" lon="11.872481644722741"><ele>452.40000000000003</ele><time>2026-04-27T16:32:41Z</time></trkpt><trkpt lat="48.49607832117582" lon="11.87235814707876"><ele>452.59999999999997</ele><time>2026-04-27T16:32:42Z</time></trkpt><trkpt lat="48.49606035389098" lon="11.872246558968033"><ele>452.79999999999995</ele><time>2026-04-27T16:32:43Z</time></trkpt><trkpt lat="48.49604260607199" lon="11.872095158452531"><ele>453.0</ele><time>2026-04-27T16:32:45Z</time></trkpt><trkpt lat="48.49603410303058" lon="11.871952532053331"><ele>453.0</ele><time>2026-04-27T16:32:47Z</time></trkpt><trkpt lat="48.49600717409904" lon="11.871792137781048"><ele>453.0</ele><time>2026-04-27T16:32:49Z</time></trkpt><trkpt lat="48.496011472220786" lon="11.871641946409815"><ele>457.0</ele><time>2026-04-27T16:32:51Z</time></trkpt><trkpt lat="48.49599866993655" lon="11.871547211362488"><ele>457.0</ele><time>2026-04-27T16:32:54Z</time></trkpt></trkseg></trk></gpx>